[[{"header":{"parameterUnit":"m.s-1","parameterCategory":1,"la1":30.6,"la2":29.2853,"lo1":-89.7004,"lo2":-87.6739,"dy":0.0162,"dx":0.0183,"nx":112,"ny":82,"refTime":"2024-07-05T00:00:00:Z","depth":0,"parameterNumber":2,"parameterNumberName":"U-component_of_WINDS"},"data":[0.0,0.0,0.0,0.0,0.0,0.0,0.0,0.0,0.0,0.0,0.0,0.0,0.0,0.0,0.0,0.0,0.0,0.0,0.0,0.0,0.0,0.0,0.0,0.0,0.0,0.0,0.0,0.0,0.0,0.0,0.0,0.0,0.0,0.0,0.0,0.0,0.0,0.0,0.0,0.0,0.0,0.0,0.0,0.0,0.0,0.0,0.0,0.0,0.0,0.0,0.0,0.0,0.0,0.0,0.0,0.0,0.0,0.0,0.0,0.0,0.0,0.0,0.0,0.0,0.0,0.0,0.0,0.0,0.0,0.0,0.0,0.0,0.0,0.0,0.0,0.0,0.0,0.0,0.0,0.0,0.0,0.0,0.0,0.0,0.0,0.0,0.0,0.0,0.0,0.0,-1.6236,-1.8431,-2.0192,-2.1183,-2.1119,-2.0335,-1.9246,-1.7907,0.0,0.0,0.0,0.0,0.0,0.0,0.0,0.0,0.0,0.0,0.0,0.0,0.0,0.0,0.0,0.0,0.0,0.0,0.0,0.0,0.0,0.0,0.0,0.0,0.0,0.0,0.0,0.0,0.0,0.0,0.0,0.0,0.0,0.0,0.0,0.0,0.0,0.0,0.0,0.0,0.0,0.0,0.0,0.0,0.0,0.0,0.0,0.0,0.0,0.0,0.0,0.0,0.0,0.0,0.0,0.0,0.0,0.0,0.0,0.0,0.0,0.0,0.0,0.0,0.0,0.0,0.0,0.0,0.0,0.0,0.0,0.0,0.0,0.0,0.0,0.0,0.0,0.0,0.0,0.0,0.0,0.0,0.0,0.0,0.0,0.0,0.0,0.0,0.0,0.0,0.0,0.0,0.0,0.0,0.0,0.0,0.0,0.0,0.0,0.0,0.0,0.0,0.0,0.0,-1.724,-1.9965,-2.0865,-2.1262,-2.1183,-1.9948,-1.8529,-1.708,0.0,0.0,0.0,0.0,0.0,0.0,0.0,0.0,0.0,0.0,0.0,0.0,0.0,0.0,0.0,0.0,0.0,0.0,0.0,0.0,0.0,0.0,0.0,0.0,0.0,0.0,0.0,0.0,0.0,0.0,0.0,0.0,0.0,0.0,0.0,0.0,0.0,0.0,0.0,0.0,0.0,0.0,0.0,0.0,0.0,0.0,0.0,0.0,0.0,0.0,0.0,0.0,0.0,0.0,0.0,0.0,0.0,0.0,0.0,0.0,0.0,0.0,0.0,0.0,0.0,0.0,0.0,0.0,0.0,0.0,0.0,0.0,0.0,0.0,0.0,0.0,0.0,0.0,0.0,0.0,0.0,0.0,0.0,0.0,0.0,0.0,0.0,0.0,0.0,0.0,0.0,0.0,0.0,0.0,0.0,0.0,0.0,0.0,0.0,0.0,0.0,0.0,0.0,-1.6823,-1.8923,-2.0984,-2.1361,-2.1419,-2.1309,-2.0326,-1.9088,-1.7652,-1.5912,0.0,0.0,0.0,0.0,0.0,0.0,0.0,0.0,0.0,0.0,0.0,0.0,0.0,0.0,0.0,0.0,0.0,0.0,0.0,0.0,0.0,0.0,0.0,0.0,0.0,0.0,0.0,0.0,0.0,0.0,0.0,0.0,0.0,0.0,0.0,0.0,0.0,0.0,0.0,0.0,0.0,0.0,0.0,0.0,0.0,0.0,0.0,0.0,0.0,0.0,0.0,0.0,0.0,0.0,0.0,0.0,0.0,0.0,0.0,0.0,0.0,0.0,0.0,0.0,0.0,0.0,0.0,0.0,0.0,0.0,0.0,0.0,0.0,0.0,0.0,0.0,0.0,0.0,0.0,0.0,0.0,0.0,0.0,0.0,0.0,0.0,0.0,0.0,0.0,0.0,0.0,0.0,0.0,0.0,0.0,0.0,0.0,0.0,0.0,0.0,0.0,0.0,-1.872,-2.0149,-2.1544,-2.1634,-2.1542,-2.1402,-2.0592,-1.9457,-1.8036,-1.5793,0.0,0.0,0.0,0.0,0.0,0.0,0.0,0.0,0.0,0.0,0.0,0.0,0.0,0.0,0.0,0.0,0.0,0.0,0.0,0.0,0.0,0.0,0.0,0.0,0.0,0.0,0.0,0.0,0.0,0.0,0.0,0.0,0.0,0.0,0.0,0.0,0.0,0.0,0.0,0.0,0.0,0.0,0.0,0.0,0.0,0.0,0.0,0.0,0.0,0.0,0.0,0.0,0.0,0.0,0.0,0.0,0.0,0.0,0.0,0.0,0.0,0.0,0.0,0.0,0.0,0.0,0.0,0.0,0.0,0.0,0.0,0.0,0.0,0.0,0.0,0.0,0.0,0.0,0.0,0.0,0.0,0.0,0.0,0.0,0.0,0.0,0.0,0.0,0.0,0.0,0.0,0.0,0.0,0.0,0.0,0.0,0.0,0.0,0.0,0.0,0.0,0.0,-1.8704,-2.0149,-2.1544,-2.1634,-2.1542,-2.1402,-2.0148,-1.8735,-1.7275,-1.465,0.0,0.0,0.0,0.0,0.0,0.0,0.0,0.0,0.0,0.0,0.0,0.0,0.0,0.0,0.0,0.0,0.0,0.0,0.0,0.0,0.0,0.0,0.0,0.0,0.0,0.0,0.0,0.0,0.0,0.0,0.0,0.0,0.0,0.0,0.0,0.0,0.0,0.0,0.0,0.0,0.0,0.0,0.0,0.0,0.0,0.0,0.0,0.0,0.0,0.0,0.0,0.0,0.0,0.0,0.0,0.0,0.0,0.0,0.0,0.0,0.0,0.0,0.0,0.0,0.0,0.0,0.0,0.0,0.0,0.0,0.0,0.0,0.0,0.0,0.0,0.0,0.0,0.0,0.0,0.0,0.0,0.0,0.0,0.0,0.0,0.0,0.0,0.0,0.0,0.0,0.0,0.0,0.0,0.0,0.0,0.0,0.0,0.0,0.0,0.0,0.0,0.0,-1.8704,-2.0149,0.0,-2.1634,-2.1542,-2.1402,-2.0116,-1.8711,-1.7314,0.0,0.0,0.0,0.0,0.0,0.0,0.0,0.0,0.0,0.0,0.0,0.0,0.0,0.0,0.0,0.0,0.0,0.0,0.0,0.0,0.0,0.0,0.0,0.0,0.0,0.0,0.0,0.0,0.0,0.0,0.0,0.0,0.0,0.0,0.0,0.0,0.0,0.0,0.0,0.0,0.0,0.0,0.0,0.0,0.0,0.0,0.0,0.0,0.0,0.0,0.0,0.0,0.0,0.0,0.0,0.0,0.0,0.0,0.0,0.0,0.0,0.0,0.0,0.0,0.0,0.0,0.0,0.0,0.0,0.0,0.0,0.0,0.0,0.0,0.0,0.0,0.0,0.0,0.0,0.0,0.0,0.0,0.0,0.0,0.0,0.0,0.0,0.0,0.0,0.0,0.0,0.0,0.0,0.0,0.0,0.0,0.0,0.0,0.0,0.0,0.0,0.0,-1.7093,-1.872,-2.0136,0.0,-2.1635,-2.1542,-2.1402,-2.0159,-1.8778,-1.7412,0.0,0.0,0.0,0.0,0.0,0.0,0.0,0.0,0.0,0.0,0.0,0.0,0.0,0.0,0.0,0.0,0.0,0.0,0.0,0.0,0.0,0.0,0.0,0.0,0.0,0.0,0.0,0.0,0.0,0.0,0.0,0.0,0.0,0.0,0.0,0.0,0.0,0.0,0.0,0.0,0.0,0.0,0.0,0.0,0.0,0.0,0.0,0.0,0.0,0.0,0.0,0.0,0.0,0.0,0.0,0.0,0.0,0.0,0.0,0.0,0.0,0.0,0.0,0.0,0.0,0.0,0.0,0.0,0.0,0.0,0.0,0.0,0.0,0.0,0.0,0.0,0.0,0.0,0.0,0.0,0.0,0.0,0.0,0.0,0.0,0.0,0.0,0.0,0.0,0.0,0.0,0.0,0.0,0.0,0.0,0.0,0.0,0.0,0.0,0.0,0.0,0.0,-1.7032,-1.8704,-2.0108,-2.1472,-2.1604,-2.1542,-2.1402,-2.023,-1.8897,0.0,0.0,0.0,0.0,0.0,0.0,0.0,0.0,0.0,0.0,0.0,0.0,0.0,0.0,0.0,0.0,0.0,0.0,0.0,0.0,0.0,0.0,0.0,0.0,0.0,0.0,0.0,0.0,0.0,0.0,0.0,0.0,0.0,0.0,0.0,0.0,0.0,0.0,0.0,0.0,0.0,0.0,0.0,0.0,0.0,0.0,0.0,0.0,0.0,0.0,0.0,0.0,0.0,0.0,0.0,0.0,0.0,0.0,0.0,0.0,0.0,0.0,0.0,0.0,0.0,0.0,0.0,0.0,0.0,0.0,0.0,0.0,0.0,0.0,0.0,0.0,0.0,0.0,0.0,0.0,0.0,0.0,0.0,0.0,0.0,0.0,0.0,0.0,0.0,0.0,0.0,0.0,0.0,0.0,0.0,0.0,0.0,0.0,0.0,0.0,0.0,0.0,0.0,-1.7093,-1.872,-2.0108,-2.1472,-2.1634,-2.1603,-2.1417,-2.0272,-1.8976,-1.7562,0.0,0.0,0.0,0.0,0.0,0.0,0.0,0.0,0.0,0.0,0.0,0.0,0.0,0.0,0.0,0.0,0.0,0.0,0.0,0.0,0.0,0.0,0.0,0.0,0.0,0.0,0.0,0.0,0.0,0.0,0.0,0.0,0.0,0.0,0.0,0.0,0.0,0.0,0.0,0.0,0.0,0.0,0.0,0.0,0.0,0.0,0.0,0.0,0.0,0.0,0.0,0.0,0.0,0.0,0.0,0.0,0.0,0.0,0.0,0.0,0.0,0.0,0.0,0.0,0.0,0.0,0.0,0.0,0.0,0.0,0.0,0.0,0.0,0.0,0.0,0.0,0.0,0.0,0.0,0.0,0.0,0.0,0.0,0.0,0.0,0.0,0.0,0.0,0.0,0.0,0.0,0.0,0.0,0.0,0.0,0.0,0.0,0.0,0.0,0.0,0.0,0.0,-1.7122,-1.872,-2.0108,-2.1472,-2.1664,-2.1649,-2.1495,-2.0621,-1.9485,-1.8061,0.0,0.0,0.0,0.0,0.0,0.0,0.0,0.0,0.0,0.0,0.0,0.0,0.0,0.0,0.0,0.0,0.0,0.0,0.0,0.0,0.0,0.0,0.0,0.0,0.0,0.0,0.0,0.0,0.0,0.0,0.0,0.0,0.0,0.0,0.0,0.0,0.0,0.0,0.0,0.0,0.0,0.0,0.0,0.0,0.0,0.0,0.0,0.0,0.0,0.0,0.0,0.0,0.0,0.0,0.0,0.0,0.0,0.0,0.0,0.0,0.0,0.0,0.0,0.0,0.0,0.0,0.0,0.0,0.0,0.0,0.0,0.0,0.0,0.0,0.0,0.0,0.0,0.0,0.0,0.0,0.0,0.0,0.0,0.0,0.0,0.0,0.0,0.0,0.0,0.0,0.0,0.0,0.0,0.0,0.0,0.0,0.0,0.0,0.0,0.0,0.0,0.0,-1.7221,-1.8833,-2.0188,-2.1456,-2.1664,-2.1679,-2.1619,-2.112,-2.0214,-1.8793,0.0,0.0,0.0,0.0,0.0,0.0,0.0,0.0,0.0,0.0,0.0,0.0,0.0,0.0,0.0,0.0,0.0,0.0,0.0,0.0,0.0,0.0,0.0,0.0,0.0,0.0,0.0,0.0,0.0,0.0,0.0,0.0,0.0,0.0,0.0,0.0,0.0,0.0,0.0,0.0,0.0,0.0,0.0,0.0,0.0,0.0,0.0,0.0,0.0,0.0,0.0,0.0,0.0,0.0,0.0,0.0,0.0,0.0,0.0,0.0,-1.4886,0.0,0.0,0.0,0.0,0.0,0.0,0.0,0.0,0.0,0.0,0.0,0.0,0.0,0.0,0.0,0.0,0.0,0.0,0.0,0.0,0.0,0.0,0.0,0.0,0.0,0.0,0.0,0.0,0.0,0.0,0.0,0.0,0.0,0.0,0.0,0.0,0.0,0.0,0.0,0.0,0.0,-1.7992,-1.9561,-2.0775,-2.1595,-2.1738,-2.1783,-2.1753,-2.1218,-2.0277,-1.8879,-1.731,0.0,0.0,0.0,0.0,0.0,0.0,0.0,0.0,0.0,0.0,0.0,0.0,0.0,0.0,0.0,0.0,0.0,0.0,0.0,0.0,0.0,0.0,0.0,0.0,0.0,0.0,0.0,0.0,0.0,0.0,0.0,0.0,0.0,0.0,0.0,0.0,0.0,0.0,0.0,0.0,0.0,0.0,0.0,0.0,0.0,0.0,0.0,0.0,0.0,0.0,0.0,0.0,0.0,0.0,0.0,0.0,0.0,0.0,0.0,0.0,-1.6606,0.0,0.0,0.0,0.0,0.0,0.0,0.0,0.0,0.0,0.0,0.0,0.0,0.0,0.0,0.0,0.0,0.0,0.0,0.0,0.0,0.0,0.0,0.0,0.0,0.0,0.0,0.0,0.0,0.0,0.0,0.0,0.0,0.0,0.0,0.0,0.0,0.0,0.0,0.0,0.0,-1.8274,-2.0108,-2.1501,-2.2154,-2.2282,-2.2327,-2.2327,-2.1778,-2.0974,-1.9929,-1.8875,0.0,0.0,0.0,0.0,0.0,0.0,0.0,0.0,0.0,0.0,0.0,0.0,0.0,0.0,0.0,0.0,0.0,0.0,0.0,0.0,0.0,0.0,0.0,0.0,0.0,0.0,0.0,0.0,0.0,0.0,0.0,0.0,0.0,0.0,0.0,0.0,0.0,0.0,0.0,0.0,0.0,0.0,0.0,0.0,0.0,0.0,0.0,0.0,0.0,0.0,0.0,0.0,0.0,-2.3484,-2.3974,-2.4646,-2.4693,-2.4693,-2.4483,-2.1894,-2.0445,-1.9856,-1.8914,0.0,0.0,0.0,0.0,0.0,0.0,0.0,0.0,0.0,0.0,0.0,0.0,0.0,0.0,0.0,0.0,0.0,0.0,0.0,0.0,0.0,0.0,-1.9,-1.8885,-2.0866,-2.2061,-1.945,0.0,0.0,0.0,0.0,0.0,0.0,0.0,0.0,0.0,0.0,0.0,-1.8869,-2.0787,-2.2263,-2.296,-2.3074,-2.3071,-2.2969,-2.2523,-2.1888,-2.11,-2.0529,-1.927,0.0,0.0,0.0,0.0,0.0,0.0,0.0,0.0,0.0,0.0,0.0,0.0,0.0,0.0,0.0,0.0,0.0,0.0,0.0,0.0,0.0,0.0,0.0,0.0,0.0,0.0,0.0,0.0,0.0,0.0,0.0,0.0,-1.3045,-1.3908,0.0,0.0,0.0,0.0,0.0,0.0,0.0,0.0,0.0,0.0,0.0,0.0,0.0,-2.2037,-2.3684,-2.4471,-2.5397,-2.6491,-2.7271,-2.7751,-2.7966,-2.7984,-2.7984,-2.7948,-2.7532,0.0,-2.3081,-2.1622,0.0,0.0,0.0,0.0,0.0,0.0,0.0,0.0,0.0,0.0,0.0,0.0,0.0,0.0,0.0,0.0,0.0,0.0,0.0,0.0,0.0,0.0,-2.1522,-2.1829,-2.3096,-2.4056,-2.3409,-2.1142,-1.9202,-1.9134,-1.6825,-1.4868,0.0,0.0,0.0,0.0,0.0,0.0,-2.1085,-2.2178,-2.3071,-2.3849,-2.3932,-2.3746,-2.3296,-2.3175,-2.2562,-2.1248,-2.1089,-2.031,-1.8685,-1.7196,0.0,0.0,0.0,0.0,0.0,0.0,0.0,0.0,0.0,0.0,0.0,0.0,0.0,0.0,0.0,0.0,0.0,0.0,0.0,0.0,0.0,0.0,0.0,0.0,0.0,0.0,0.0,0.0,0.0,-1.33,-1.4948,-1.6175,-1.6722,-1.7004,0.0,0.0,0.0,0.0,0.0,0.0,0.0,0.0,0.0,-2.3602,-2.4295,-2.5403,-2.6972,-2.7409,-2.813,-2.9138,-2.9551,-2.9823,-2.9952,-2.9952,-2.9952,-2.9952,-2.9952,-2.9156,-2.7647,-2.5172,-2.4139,-2.3922,0.0,0.0,0.0,0.0,-1.9673,-2.0072,-2.0143,-2.047,-2.0788,-2.0397,0.0,0.0,0.0,0.0,0.0,0.0,0.0,-1.8493,-2.0459,-2.2729,-2.4601,-2.5069,-2.6104,-2.6809,-2.62,-2.4663,-2.3019,-2.1742,-1.9455,-1.7718,-1.7723,0.0,0.0,0.0,0.0,-2.0704,-2.168,-2.3202,-2.4331,-2.468,-2.4779,-2.4744,-2.4553,-2.3777,-2.3049,-2.2462,-2.204,-2.1329,-2.0242,-1.9147,-1.7676,0.0,0.0,0.0,0.0,0.0,0.0,0.0,0.0,0.0,0.0,0.0,0.0,0.0,0.0,0.0,0.0,0.0,0.0,0.0,0.0,0.0,0.0,0.0,0.0,0.0,0.0,0.0,0.0,-1.5451,-1.7087,-1.8914,-1.9648,-2.0101,0.0,0.0,0.0,0.0,0.0,0.0,-2.235,-2.401,-2.5478,-2.661,-2.7496,-2.8638,-3.0037,-3.031,-3.096,-3.1942,-3.2002,-3.2105,-3.2234,-3.2234,-3.2234,-3.2234,-3.2234,-3.2234,-3.1962,-2.854,-2.7127,-2.6928,-2.4961,-2.4219,-2.4129,-2.3536,-2.3692,-2.4218,-2.4257,-2.4678,-2.5179,-2.5179,-2.4623,-2.3842,-2.3024,0.0,0.0,0.0,0.0,-2.237,-2.4306,-2.5976,-2.7277,-2.7801,-2.8459,-2.879,-2.8051,-2.735,-2.6157,-2.3901,-2.1816,-2.0442,-2.0442,0.0,0.0,0.0,0.0,-2.2212,-2.2592,-2.4148,-2.5296,-2.5513,-2.5648,-2.5664,-2.5545,-2.4347,-2.3536,-2.341,-2.2716,-2.2057,-2.1512,-2.0737,-1.9439,-1.7585,0.0,0.0,0.0,0.0,0.0,0.0,0.0,0.0,0.0,0.0,0.0,0.0,0.0,0.0,0.0,0.0,0.0,0.0,0.0,0.0,0.0,0.0,0.0,0.0,0.0,0.0,0.0,0.0,0.0,-2.2174,-2.2481,0.0,0.0,0.0,0.0,-2.3551,-2.4937,-2.5816,-2.5859,-2.7972,-2.9195,-2.9219,-3.0606,-3.1769,-3.2608,-3.3453,-3.4336,-3.5254,-3.5387,-3.5503,-3.555,-3.555,-3.555,-3.555,-3.555,-3.555,-3.5243,-3.127,-2.9621,-2.9531,-2.8654,-2.831,-2.831,-2.8256,-2.8274,-2.8292,-2.831,-2.8328,-2.8377,-2.8377,-2.7821,-2.7019,-2.6204,-2.5878,0.0,0.0,-2.5738,-2.7033,-2.7847,-2.8472,-2.8993,-2.9464,-2.9386,-2.9105,-2.88,-2.8636,-2.7853,-2.5459,-2.3768,-2.2725,-2.2725,0.0,-2.1864,-2.2576,-2.2758,-2.3354,-2.4762,-2.5079,-2.5513,-2.6351,-2.6487,-2.6286,-2.566,-2.4881,-2.4135,-2.3427,-2.2716,-2.2279,-2.2245,-2.1532,-2.072,-1.9849,-1.7693,0.0,0.0,0.0,0.0,0.0,0.0,0.0,0.0,0.0,0.0,0.0,0.0,0.0,0.0,0.0,0.0,0.0,0.0,0.0,0.0,0.0,0.0,0.0,0.0,0.0,0.0,0.0,0.0,-2.3252,-2.432,0.0,-2.6029,-2.6149,-2.6343,-2.679,-2.7807,-2.8611,-2.9098,-3.0883,-3.2113,-3.2604,-3.3593,-3.4259,-3.453,-3.4849,-3.5202,-3.564,-3.5672,-3.5738,-3.5804,-3.5804,-3.5804,-3.5804,-3.5804,-3.5804,-3.5677,-3.4247,-3.3357,-3.2814,-3.1999,-3.1691,-3.1622,-3.1111,-3.093,-3.084,-3.0314,-3.0133,-3.0133,-3.0133,-2.9952,-2.9572,-2.877,-2.8516,-2.8462,-2.8172,-2.844,-2.9107,-3.0408,-3.0716,-3.0802,-3.1369,-3.1185,-3.0672,-2.9884,-2.9578,-2.9072,-2.7686,-2.6231,-2.503,-2.448,-2.3782,-2.3351,-2.3586,-2.4066,-2.4564,-2.5096,-2.5714,-2.6218,-2.6538,-2.6623,-2.6573,-2.6336,-2.5202,-2.4389,-2.4118,-2.297,-2.2296,-2.2296,-2.2057,-2.1549,-2.0788,-1.9012,-1.7399,0.0,0.0,0.0,0.0,0.0,0.0,0.0,0.0,0.0,0.0,0.0,0.0,0.0,0.0,0.0,0.0,0.0,0.0,0.0,0.0,0.0,0.0,0.0,0.0,0.0,0.0,-2.4255,-2.5298,-2.6602,-2.7725,-2.854,-2.8866,-2.922,-2.9705,-3.0753,-3.157,-3.2069,-3.3349,-3.4323,-3.4864,-3.5604,-3.6019,-3.6019,-3.6542,-3.6863,-3.6949,-3.7202,-3.7345,-3.7379,-3.7142,-3.716,-3.7361,-3.6852,-3.6761,-3.6997,-3.6725,-3.6309,-3.5711,-3.4624,-3.4208,-3.4154,-3.361,-3.3411,-3.3339,-3.2795,-3.2614,-3.2614,-3.2614,-3.2614,-3.2524,-3.1981,-3.1818,-3.1763,-3.1492,-3.1363,-3.1506,-3.23,-3.2256,-3.2131,-3.2465,-3.2232,-3.1718,-3.0929,-3.0602,-3.0207,-2.937,-2.815,-2.7071,-2.6465,-2.5981,-2.5547,-2.5262,-2.568,-2.5914,-2.5681,-2.6201,-2.6589,-2.6589,-2.6657,-2.6691,-2.6691,-2.5354,-2.4491,-2.4491,-2.3122,-2.2296,-2.2296,-2.2296,-2.2073,-2.158,-1.9819,-1.8178,-1.6699,0.0,0.0,0.0,0.0,0.0,0.0,0.0,0.0,0.0,0.0,0.0,0.0,0.0,0.0,0.0,0.0,0.0,0.0,0.0,0.0,0.0,0.0,0.0,-2.2687,-2.4795,-2.6862,-2.8455,-2.9373,-3.0183,-3.0998,-3.1799,-3.2288,-3.2306,-3.3755,-3.4661,-3.4663,-3.5406,-3.5858,-3.5912,-3.6671,-3.7085,-3.7104,-3.8662,-3.9423,-3.9441,-4.0166,-4.0492,-4.0474,-3.9767,-3.9822,-4.042,-3.8916,-3.8699,-3.9369,-3.859,-3.8263,-3.8082,-3.649,-3.5858,-3.5858,-3.584,-3.5822,-3.5804,-3.5804,-3.5804,-3.5804,-3.5804,-3.5804,-3.5804,-3.5804,-3.5804,-3.5641,-3.4844,-3.4599,-3.4357,-3.3581,-3.3178,-3.2955,-3.2823,-3.2507,-3.2196,-3.2,-3.1726,-3.1257,-3.0413,-2.9441,-2.8766,-2.8714,-2.8697,-2.8446,-2.7743,-2.7643,0.0,-2.6653,-2.6605,-2.664,-2.664,-2.6674,-2.6691,-2.6691,-2.5371,-2.4525,-2.4491,-2.3139,-2.2313,-2.2296,-2.2296,-2.2279,-2.2262,-2.0094,-1.8245,-1.6766,0.0,0.0,0.0,0.0,0.0,0.0,0.0,0.0,0.0,0.0,0.0,0.0,0.0,0.0,0.0,0.0,0.0,0.0,0.0,0.0,0.0,-2.3041,-2.4934,-2.4493,-2.6451,-2.831,-2.9355,-3.0708,-3.1854,-3.2651,-3.3465,-3.419,-3.4769,-3.5206,-3.5729,-3.6306,-3.656,-3.7196,-3.8373,-3.8608,-3.8989,-3.9532,-3.9985,-4.0202,-4.0202,-4.0401,-4.0492,-4.0492,-4.0293,-4.0311,-4.0474,-4.0039,-4.0003,-4.0166,-3.9967,-3.955,-3.897,-3.7938,-3.754,-3.7468,-3.6904,-3.6309,-3.5804,-3.5804,-3.5804,-3.5804,-3.5804,-3.5804,-3.5804,-3.5804,-3.5804,-3.575,-3.5532,-3.5462,-3.5392,-3.5157,-3.4959,-3.4763,-3.468,-3.4,-3.3283,-3.3053,-3.2365,-3.1658,-3.1227,-3.0834,-3.0209,-2.8977,-2.8774,-2.8688,-2.8448,-2.8434,0.0,-2.8184,-2.7769,-2.7468,-2.7468,-2.7012,-2.6691,-2.6691,-2.5828,-2.5067,-2.4525,-2.3613,-2.2868,-2.2313,-2.2296,-2.2057,-2.1512,-2.0886,-1.9819,0.0,0.0,0.0,0.0,0.0,0.0,0.0,0.0,0.0,0.0,0.0,0.0,0.0,0.0,0.0,0.0,0.0,0.0,0.0,0.0,0.0,0.0,-2.6553,-2.8427,-2.8559,-2.9748,-3.0785,-3.1238,-3.2723,-3.39,-3.4371,-3.5131,-3.5802,-3.6272,-3.6924,-3.7504,-3.7991,-3.8282,-3.888,-3.984,-3.9858,-4.0075,-4.0492,-4.0836,-4.0999,-4.0999,-4.1343,-4.1506,-4.1488,-4.1144,-4.118,-4.147,-4.0782,-4.0691,-4.0981,-4.0637,-4.0239,-3.9786,0.0,0.0,0.0,0.0,-3.7212,-3.6816,-3.6816,-3.6816,-3.6816,-3.6816,-3.6816,-3.6816,-3.6816,-3.6816,-3.6743,-3.6399,-3.6309,-3.6236,-3.5876,-3.569,-3.5575,-3.5526,-3.4968,-3.4356,-3.4164,-3.3282,-3.2452,-3.2228,-3.1764,0.0,-3.0023,-2.9831,-2.969,-2.9349,-2.9317,-2.9237,-2.8917,-2.8549,-2.8162,-2.7841,-2.7418,-2.7046,-2.6725,-2.6031,0.0,0.0,0.0,-2.3071,-2.233,-2.2296,0.0,0.0,0.0,0.0,0.0,0.0,0.0,0.0,-1.7084,-1.7777,0.0,0.0,0.0,0.0,0.0,0.0,0.0,0.0,0.0,0.0,0.0,0.0,0.0,0.0,0.0,0.0,-2.9933,-3.1869,-3.3321,-3.3683,-3.3773,-3.3683,-3.5023,-3.5931,-3.5931,-3.6743,-3.7267,-3.7267,-3.8663,-3.9514,-3.9514,0.0,0.0,0.0,0.0,-4.0673,-4.0764,-4.1469,-4.1831,-4.1831,-4.2556,-4.2901,-4.2883,-4.2158,-4.223,-4.2829,-4.1397,-4.118,-4.1777,-4.1053,-4.0709,-4.0546,-3.9822,-3.9079,-3.8462,-3.8462,-3.8408,-3.8354,-3.8354,0.0,0.0,-3.8209,-3.8209,-3.8209,-3.8209,-3.8209,-3.8064,-3.7339,-3.714,-3.6977,-3.6272,-3.6025,-3.5959,-3.5959,-3.5707,-3.5416,-3.5277,-3.4359,-3.3509,-3.3203,-3.2408,-3.1701,-3.1408,-3.1291,-3.099,-3.0328,-3.0207,-2.9989,-2.9331,-2.9179,-2.8839,-2.8145,0.0,0.0,-2.6877,-2.615,-2.5693,-2.5609,-2.4289,-2.3224,-2.2581,-2.255,-2.255,-2.255,-2.1918,-2.1563,-2.1563,-2.0859,-2.0859,-2.1529,-2.0006,-2.0056,0.0,0.0,0.0,0.0,0.0,0.0,0.0,0.0,0.0,0.0,0.0,0.0,0.0,0.0,0.0,-3.0026,-3.1951,-3.3354,-3.4244,-3.5476,-3.6055,-3.5406,-3.6182,-3.6777,-3.6777,-3.8082,-3.8934,-3.8934,-3.9786,-4.0293,-4.0293,-4.042,-4.08,-4.1451,-4.1469,-4.1777,-4.2429,-4.2592,-4.2665,-4.2665,0.0,0.0,-4.2901,-4.2737,-4.2737,-4.2883,-4.2556,-4.252,-4.2647,-4.2484,-4.2049,-4.1397,-4.0583,-4.0202,-4.0075,-4.0075,-3.9677,-3.9187,-3.9187,-3.8735,-3.8209,-3.8209,-3.8209,-3.8209,-3.8209,-3.8209,0.0,-3.8009,-3.7973,-3.7937,-3.7792,-3.7653,-3.7568,-3.7568,-3.6979,-3.6394,-3.6185,-3.5421,-3.45,-3.3599,-3.312,-3.2639,-3.1849,-3.1466,-3.1203,-3.1024,-3.0987,-3.0937,-3.0784,-3.026,-2.9837,-2.9666,-2.8534,-2.7739,-2.7604,-2.6911,-2.6234,-2.5642,-2.4763,-2.422,-2.4085,-2.4068,-2.4068,-2.4068,-2.3932,-2.3848,-2.3848,-2.3712,-2.3712,-2.3831,-2.2344,-2.2124,0.0,0.0,0.0,0.0,0.0,0.0,0.0,0.0,0.0,0.0,0.0,-2.3996,-2.6279,0.0,-3.0173,-3.2056,-3.3986,-3.5377,-3.5745,-3.685,-3.7303,-3.649,-3.7105,-3.7756,-3.8172,-3.8933,-3.955,-3.993,-4.0655,-4.1089,-4.1089,-4.1488,-4.1886,-4.2285,-4.2358,-4.2595,-4.2994,-4.3031,-4.305,-4.305,-4.305,-4.305,-4.305,-4.305,-4.305,-4.305,-4.305,-4.305,-4.305,-4.3012,-4.272,-4.2266,-4.1868,-4.1216,-4.0492,-4.0492,-4.0274,-3.9948,-3.9948,-3.9695,-3.9297,-3.8933,-3.8807,-3.8734,-3.8317,-3.8209,-3.8209,-3.8209,-3.8209,-3.8209,-3.8209,-3.8157,-3.8105,-3.8105,-3.773,-3.7321,-3.7217,-3.6486,-3.5668,-3.5066,-3.4164,-3.33,-3.2609,-3.197,-3.1485,-3.1274,-3.123,-3.119,-3.119,-3.0869,-3.0514,-3.0142,-2.9413,-2.8804,-2.8433,-2.7689,-2.6793,-2.566,-2.5253,-2.488,-2.4508,-2.4491,-2.4491,-2.4491,-2.4491,-2.4491,-2.4491,-2.4491,-2.4694,-2.5033,-2.4289,-2.4154,0.0,0.0,0.0,0.0,0.0,0.0,0.0,0.0,-2.352,-2.4335,-2.6303,-2.8358,-2.9821,-3.1697,-3.3287,-3.4109,-3.5805,-3.7082,-3.7243,-3.7825,-3.7988,-3.7352,-3.797,-3.8715,-3.9367,-3.9711,-4.0146,-4.0763,-4.1542,-4.1977,-4.1977,-4.2612,-4.2975,-4.2975,-4.305,-4.3123,-4.3123,-4.316,-4.3214,-4.3214,-4.3214,-4.3214,-4.3214,-4.3214,-4.3214,-4.3214,-4.3214,-4.3214,-4.3196,-4.3142,-4.3049,-4.2938,-4.2938,-4.2122,-4.0981,-4.0981,-4.0854,-4.0727,-4.0727,-4.0619,-4.0401,-3.9804,-3.9604,-3.946,-3.8663,-3.8444,-3.8408,-3.8245,-3.8209,-3.8209,-3.8209,-3.8209,-3.8209,-3.8209,-3.8122,-3.8036,-3.8001,-3.7411,-3.6787,-3.6504,-3.517,-3.3934,-3.3405,-3.2505,-3.1727,-3.1353,-3.1252,-3.119,-3.119,-3.119,-3.097,-3.0378,-3.0192,-2.9803,-2.9061,-2.8416,-2.7452,-2.61,-2.6015,-2.5693,-2.4965,-2.4931,-2.4931,-2.4931,-2.4931,-2.4931,-2.4931,-2.4931,-2.522,-2.5812,-2.5812,-2.5812,-1.823,-1.9792,-2.1703,-2.2677,-2.3667,-2.4394,0.0,0.0,-2.7136,-2.7872,-2.9878,-3.1958,-3.3366,-3.4306,-3.5331,-3.6658,-3.7002,-3.736,-3.8113,-3.8267,-3.8287,-3.8241,-3.8902,-3.9379,-3.947,-4.083,-4.1738,-4.1829,-4.2577,-4.3032,-4.3032,-4.3124,-4.3178,-4.3178,-4.3178,-4.3196,-4.3196,-4.3196,-4.3214,-4.3214,-4.3214,-4.3214,-4.3214,-4.3214,-4.3214,-4.3214,-4.3214,-4.3214,-4.3214,-4.3196,-4.3142,-4.3086,-4.3086,-4.2885,-4.2629,-4.2629,-4.2176,-4.156,-4.156,-4.1089,-4.0474,-4.0401,-4.0383,-4.0256,-3.9496,-3.9278,-3.9133,-3.8408,-3.8209,-3.8209,-3.8209,-3.8209,-3.8209,-3.8209,-3.8192,-3.8157,-3.8036,-3.7929,-3.7608,-3.6821,-3.5841,-3.4831,-3.388,-3.2809,-3.1875,-3.1372,-3.1252,-3.119,-3.119,-3.119,-3.1157,-3.1089,-3.0497,-2.9803,-2.9061,-2.8925,-2.8484,-2.7604,-2.7553,-2.7215,-2.6471,-2.6454,-2.6454,-2.6454,-2.6454,-2.6454,-2.6454,-2.6454,-2.6505,-2.6573,-2.6573,-2.6573,-2.1664,-2.295,0.0,0.0,-2.7065,-2.8152,-2.8654,-2.9626,-3.0758,-3.1955,-3.2958,-3.4028,-3.5453,-3.6289,-3.6939,0.0,-3.783,-3.8208,-3.8541,-3.8512,-3.8478,-3.8507,-3.9241,-3.9871,-4.021,-4.1319,-4.2193,-4.2667,-4.3014,-4.3214,-4.3214,-4.3214,-4.3214,-4.3214,-4.3287,-4.3323,-4.3323,-4.3358,-4.3375,-4.3375,-4.3375,-4.3375,-4.3375,-4.3375,-4.3375,-4.3375,-4.3375,-4.3358,-4.3323,-4.3323,-4.3251,-4.3142,-4.3123,-4.3067,-4.3012,-4.2938,-4.2683,-4.2393,-4.2393,-4.2176,-4.1814,-4.1343,-4.1198,-4.1053,-4.0293,-3.9731,-3.9315,-3.8989,-3.8571,-3.8209,-3.8209,-3.8209,-3.8209,-3.8209,-3.8209,-3.8174,-3.814,-3.8105,-3.8015,-3.7639,-3.6783,-3.5806,-3.4831,-3.3723,-3.2704,-3.1927,-3.1559,-3.1346,-3.1271,-3.1271,-3.1252,-3.121,-3.092,-3.0446,-2.9702,-2.9634,-2.9313,-2.8552,-2.8501,-2.8349,-2.8045,-2.8045,-2.8045,-2.8045,-2.8045,-2.8045,-2.8045,-2.8045,-2.8045,-2.8045,-2.8045,-2.8045,-2.4415,0.0,0.0,-2.8083,-2.9603,-3.1058,-3.1924,-3.2534,-3.3287,-3.4633,-3.5029,-3.5512,-3.6752,-3.7536,-3.8042,-3.8104,-3.8746,-3.9228,-3.9213,-3.9131,-3.9083,-3.9131,-3.9838,-4.048,-4.0904,-4.1622,-4.2427,-4.3213,-4.3268,-4.3268,-4.3268,-4.3268,-4.3268,-4.3268,-4.3394,-4.3429,-4.3429,-4.348,-4.3515,-4.3515,-4.3515,-4.3515,-4.3515,-4.3515,-4.3515,-4.3515,-4.3515,-4.3463,-4.3429,-4.3429,-4.3358,-4.3251,-4.3196,-4.3141,-4.3086,-4.2994,-4.2938,-4.2901,-4.2901,-4.2901,-4.2792,-4.223,-4.2012,-4.1868,-4.1071,-4.0311,-3.9659,-3.946,-3.8808,-3.8209,-3.8209,-3.8209,-3.8209,-3.8209,-3.8209,-3.8209,-3.8209,-3.8209,-3.8209,-3.8209,-3.7405,-3.6514,-3.5805,-3.4602,-3.3493,-3.2774,-3.2158,-3.169,-3.1466,-3.1353,-3.1274,-3.121,-3.119,-3.097,-3.0446,-3.0412,-3.0091,-2.9365,-2.9314,-2.9213,-2.901,-2.8993,-2.8993,-2.8993,-2.8993,-2.8993,-2.8993,-2.8993,-2.8993,-2.8993,-2.8993,-2.9111,0.0,0.0,-3.0058,-3.0115,-3.1381,-3.2852,-3.3719,-3.3929,-3.4181,-3.5009,-3.5768,-3.6473,-3.7248,-3.7882,-3.8536,-3.9333,-3.9912,-4.0314,-4.0517,-4.037,-4.0304,-4.044,-4.097,-4.1336,0.0,-4.1891,-4.2616,-4.3424,-4.3479,-4.3479,-4.3479,-4.3479,-4.3479,-4.3479,-4.3479,-4.3497,-4.3497,-4.3515,-4.3515,-4.3515,-4.3515,-4.3515,-4.3515,-4.3515,-4.3515,-4.3515,-4.3515,-4.3515,-4.3497,-4.3497,-4.3464,-4.3394,-4.3394,-4.3269,-4.3104,-4.3086,-4.3012,-4.2901,-4.2901,-4.2901,-4.2901,-4.2883,-4.2846,-4.2701,-4.1904,-4.1089,-4.0311,-3.9604,-3.8808,-3.8209,-3.8209,-3.8209,-3.8209,-3.8209,-3.8209,-3.8209,-3.8209,-3.8209,-3.8209,-3.8209,-3.7437,-3.6776,-3.6674,-3.523,-3.4027,-3.3874,-3.305,-3.2301,-3.1838,-3.1504,-3.1274,-3.121,-3.119,-3.119,-3.1157,-3.1157,-3.0852,-3.0125,-3.0074,-2.9753,-2.9027,-2.8993,-2.8993,-2.8993,-2.8993,-2.8993,-2.8993,-2.8993,-2.8993,-2.8993,-2.8993,-2.9382,0.0,0.0,-3.0612,-3.2294,-3.3146,-3.3777,-3.4617,-3.4808,-3.5021,-3.5838,-3.6193,-3.6596,-3.7327,-3.7627,-3.7997,-3.8712,-3.9445,-4.0096,-4.0646,-4.1138,-4.1448,-4.1493,-4.1558,0.0,0.0,0.0,0.0,-4.3478,-4.3531,-4.3565,-4.3565,-4.3651,-4.3703,-4.3703,-4.3617,-4.3565,-4.3565,-4.3513,-4.3515,-4.3515,-4.3515,-4.3515,-4.3515,-4.3515,-4.3515,-4.3515,-4.3515,-4.3515,-4.3515,-4.3515,-4.3497,-4.3463,-4.3429,-4.3359,-4.3287,-4.3196,-4.3142,-4.3087,-4.2957,-4.2901,-4.2901,-4.2901,-4.2901,-4.2865,-4.2574,-4.194,-4.1126,-4.0347,-3.9586,-3.8862,-3.8354,-3.8209,-3.8209,-3.8209,-3.8209,-3.8209,-3.8209,-3.8209,-3.8209,-3.8209,-3.7853,-3.7406,-3.6866,-3.6227,-3.5444,-3.4269,-3.3085,-3.2197,-3.1893,-3.1615,-3.1387,-3.1274,-3.123,-3.119,-3.119,-3.119,-3.1089,-3.0852,-3.0835,-3.0717,-3.0463,-3.0465,-3.0465,-3.0465,-3.0465,-3.0465,-3.0465,-3.0465,-3.0465,-3.0465,-3.0465,-3.0581,0.0,-3.0861,-3.195,-3.3593,-3.4224,-3.456,-3.5076,-3.5209,-3.5278,-3.5492,-3.5541,-3.5696,-3.6158,-3.6454,-3.6996,-3.8033,-3.9342,-4.0518,-4.1333,-4.2139,-4.2643,-4.2599,-4.2431,-4.2473,0.0,0.0,0.0,-4.3651,-4.3666,-4.3732,-4.3779,-4.3846,-4.3897,-4.3897,-4.383,-4.3765,-4.3718,-4.3634,-4.3566,-4.3515,-4.3515,-4.3515,-4.3515,-4.3515,-4.3515,-4.3515,-4.3515,-4.3515,-4.3515,-4.3515,-4.3515,-4.3497,-4.3464,-4.3411,-4.3394,-4.3286,-4.3233,-4.3178,-4.305,-4.3013,-4.3013,-4.3013,-4.3013,-4.3013,-4.3013,-4.2431,-4.1651,-4.1144,-4.0419,-3.9604,-3.8826,-3.8644,-3.8571,-3.8281,-3.8209,-3.8209,-3.8209,-3.8209,-3.8209,-3.8209,-3.8122,-3.7907,-3.7401,-3.7027,-3.633,-3.495,-3.3943,-3.302,-3.2125,-3.1783,-3.1538,-3.1315,-3.1232,-3.119,-3.119,-3.119,-3.119,-3.119,-3.119,-3.119,-3.119,-3.119,-3.119,-3.119,-3.119,-3.119,-3.119,-3.119,-3.119,-3.119,-3.119,-3.119,-3.0352,-3.216,-3.4014,-3.4052,-3.4636,-3.519,-3.5152,-3.5152,-3.4904,-3.4052,-3.388,-3.388,0.0,0.0,-3.5562,-3.7346,-3.9611,-4.1488,-4.2457,-4.3327,-4.384,0.0,0.0,0.0,0.0,0.0,0.0,-4.3945,0.0,-4.3974,-4.4106,-4.4121,-4.414,-4.414,-4.4121,-4.4048,-4.3913,-4.3835,-4.3703,-4.3513,-4.3515,-4.3515,-4.3496,-4.3515,-4.3515,-4.3515,-4.3515,-4.3515,-4.3515,-4.3515,-4.3515,-4.3515,-4.3515,-4.3445,-4.3412,-4.3412,-4.3323,-4.3233,-4.3233,-4.3214,-4.3214,-4.3214,-4.3214,-4.3214,-4.3214,-4.2614,-4.1959,-4.1923,-4.1252,-4.0401,-3.9658,-3.9441,-3.9206,-3.8444,-3.8227,-3.8209,-3.8209,-3.8209,-3.8209,-3.8209,-3.8209,-3.8209,-3.8209,-3.7575,-3.6763,-3.5903,-3.5598,-3.4706,-3.2564,-3.2053,-3.1724,-3.1372,-3.1271,-3.123,-3.121,-3.121,-3.121,-3.121,-3.121,-3.119,-3.119,-3.119,-3.119,-3.119,-3.119,-3.119,-3.119,-3.119,-3.119,-3.119,-3.119,-3.119,-3.2551,-3.3505,-3.414,-3.474,-3.5057,-3.5037,-3.4445,-3.4312,-3.3891,-3.2439,-3.2134,-3.2114,-3.2076,0.0,0.0,-3.6363,-3.8823,0.0,-4.2411,-4.3855,0.0,-4.4745,0.0,-4.4424,-4.4372,-4.4392,0.0,0.0,-4.4254,-4.4177,-4.4318,-4.443,-4.4463,-4.4463,-4.4383,-4.4265,-4.4121,-4.3961,-4.3851,-4.38,-4.3651,-4.3565,-4.3565,-4.3513,-4.3515,-4.3515,-4.3515,-4.3515,-4.3515,-4.3515,-4.3515,-4.3515,-4.3515,-4.3497,-4.348,-4.348,-4.3445,-4.341,-4.341,-4.334,-4.3214,-4.3214,-4.3214,-4.3214,-4.3214,-4.3051,-4.2741,-4.214,-4.1759,-4.1361,-4.0562,-3.9874,-3.9351,-3.9134,-3.8644,-3.8209,-3.8209,-3.8209,-3.8209,-3.8209,-3.8209,-3.8209,-3.8209,-3.8028,-3.7612,-3.6781,-3.649,-3.5645,-3.3634,-3.316,-3.2663,-3.1836,-3.169,-3.1596,-3.1521,-3.1462,-3.1385,-3.1274,-3.123,-3.119,-3.119,-3.119,-3.119,-3.119,-3.119,-3.119,-3.119,-3.119,-3.119,-3.119,-3.119,-3.119,-3.4251,-3.5143,-3.5722,-3.5793,-3.5815,-3.5501,-3.4281,-3.37,-3.2955,-3.1274,-3.0624,0.0,-2.9853,0.0,0.0,0.0,0.0,0.0,-4.2408,-4.4132,-4.5181,0.0,-4.5038,0.0,-4.4883,-4.4802,-4.4764,0.0,-4.4581,-4.4495,-4.4649,-4.4726,-4.4789,-4.4789,-4.4694,-4.4557,-4.4388,-4.4185,-4.4048,-4.3989,-4.3876,-4.3798,-4.3734,-4.3651,-4.36,-4.3531,-4.3496,-4.3515,-4.3515,-4.3515,-4.3515,-4.3515,-4.3515,-4.3515,-4.3515,-4.3515,-4.3515,-4.3515,-4.3515,-4.3428,-4.3322,-4.3322,-4.3322,-4.3322,-4.3322,-4.3304,-4.3195,-4.2739,-4.254,-4.2286,-4.145,-4.0852,-4.0382,-3.9967,-3.9278,-3.8734,-3.8734,-3.8461,-3.8257,-3.8272,-3.8289,-3.8272,-3.8241,-3.8241,-3.8079,-3.7593,-3.7369,-3.6731,-3.5256,-3.4447,-3.3633,-3.2665,-3.2469,-3.2239,-3.1764,-3.1709,-3.1615,-3.143,-3.1406,-3.1349,-3.1327,-3.1288,-3.1252,-3.1252,-3.121,-3.119,-3.119,-3.119,-3.119,-3.119,-3.119,-3.119,-3.5585,-3.6743,-3.7732,-3.6822,-3.653,-3.5959,-3.4094,-3.3001,-3.1866,-3.0077,0.0,-2.8363,-2.7663,-2.8905,-3.0854,-3.3414,0.0,-3.968,-4.2125,-4.3997,-4.5114,-4.5061,-4.5145,-4.5159,-4.5045,-4.5033,-4.5033,-4.5033,-4.4858,-4.4833,-4.5033,-4.5033,-4.5033,-4.5033,-4.5003,-4.4883,-4.4659,-4.4467,-4.4294,-4.4185,-4.4151,-4.4079,-4.3945,-4.3867,-4.3769,-4.3632,-4.3583,-4.3549,-4.3549,-4.3532,-4.3496,-4.3496,-4.3496,-4.3515,-4.3515,-4.3515,-4.3515,-4.3515,-4.3515,-4.3515,-4.3515,-4.3515,-4.3515,-4.3515,-4.3515,-4.3445,-4.3394,-4.3394,-4.3323,-4.305,-4.2286,-4.2014,-4.1705,-4.089,-4.0129,-3.9566,-3.9457,-3.8837,-3.8322,-3.8401,-3.8399,-3.8385,-3.8322,-3.8305,-3.829,-3.8241,-3.8122,-3.7766,-3.7013,-3.5828,-3.4694,-3.3757,-3.3439,-3.3,-3.2211,-3.2054,-3.1876,-3.1691,-3.1673,-3.1617,-3.1557,-3.1447,-3.1372,-3.1334,-3.1271,-3.123,-3.121,-3.121,-3.119,-3.119,-3.119,-3.119,-3.6466,-3.734,-3.7841,-3.6911,-3.6138,-3.4988,-3.2579,-3.1292,0.0,0.0,0.0,-2.6784,-2.6651,-2.8001,0.0,-3.2508,0.0,0.0,0.0,0.0,-4.4216,0.0,0.0,0.0,0.0,0.0,0.0,0.0,0.0,-4.5125,-4.5159,-4.517,-4.517,-4.517,-4.5068,-4.4986,-4.4919,-4.4796,-4.4661,-4.46,-4.4421,-4.4294,-4.4151,-4.4079,-4.3974,-4.3849,-4.3832,0.0,-4.3754,-4.3634,-4.3582,-4.3565,-4.3513,-4.3515,-4.3515,-4.3515,-4.3515,-4.3515,-4.3515,-4.3515,-4.3515,-4.3515,-4.3515,-4.3515,-4.3515,-4.3497,-4.348,-4.348,-4.3429,-4.334,-4.3176,-4.2557,-4.1939,-4.1775,-4.1138,-4.0372,-3.97,-3.8933,-3.8401,-3.8399,-3.8399,-3.8399,-3.8366,-3.8385,-3.8385,-3.8368,-3.8305,-3.8203,-3.8041,-3.7016,-3.5952,-3.5064,-3.4353,-3.3823,-3.3493,-3.2808,-3.2318,-3.2108,-3.1985,-3.1895,-3.1839,-3.1803,-3.1711,-3.156,-3.1481,-3.1404,-3.1276,-3.123,-3.119,-3.119,-3.119,-3.119,-3.7531,-3.8546,-3.9184,-3.7829,-3.6826,-3.5387,-3.2346,0.0,0.0,0.0,0.0,-2.578,-2.5782,0.0,0.0,0.0,0.0,0.0,0.0,0.0,0.0,0.0,0.0,0.0,0.0,0.0,0.0,0.0,0.0,-4.5246,-4.5246,-4.5246,-4.5246,-4.5246,-4.5159,-4.5095,-4.5095,-4.501,-4.4919,-4.4846,-4.4758,-4.4629,-4.4458,-4.4388,-4.4273,-4.4124,-4.4079,-4.402,-4.3942,-4.3876,-4.383,-4.3751,-4.3667,-4.3617,-4.3566,-4.3496,-4.3515,-4.3515,-4.3515,-4.3515,-4.3515,-4.3515,-4.3515,-4.3515,-4.3515,-4.3515,-4.3515,-4.3515,-4.348,-4.3446,-4.3412,-4.3084,-4.272,-4.2649,-4.1993,-4.1098,-3.9962,-3.9396,-3.901,-3.8638,-3.8562,-3.8528,-3.8462,-3.8462,-3.8446,-3.8399,-3.8368,-3.8336,-3.8336,-3.786,-3.7168,-3.6191,-3.5694,-3.5234,-3.4669,-3.387,-3.3309,-3.3106,-3.2614,-3.2318,-3.2214,-3.2161,-3.202,-3.1857,-3.1764,-3.1617,-3.1466,-3.1408,-3.1349,-3.1235,-3.1235,-3.1232,-3.8255,-3.9437,-4.0184,-3.8609,-3.7425,-3.5734,-3.2257,-3.0127,0.0,0.0,0.0,-2.5238,-2.5225,0.0,0.0,0.0,0.0,0.0,0.0,0.0,0.0,0.0,0.0,0.0,0.0,0.0,0.0,0.0,0.0,-4.5307,-4.5307,-4.5307,-4.5307,-4.5307,-4.5254,-4.5213,-4.5213,-4.517,-4.5114,-4.5038,-4.5038,-4.4962,-4.4757,-4.4712,-4.4581,-4.4407,-4.4351,-4.4283,-4.4196,-4.4181,-4.4094,-4.3961,-4.3899,-4.3783,-4.3667,-4.3617,-4.3566,-4.3513,-4.3513,-4.3496,-4.3515,-4.3515,-4.3515,-4.3515,-4.3515,-4.3515,-4.3515,-4.3515,-4.3515,-4.3497,-4.3429,-4.3411,-4.3394,-4.3286,-4.252,-4.1495,-4.0321,-3.9806,-3.9399,-3.882,-3.8707,-3.8658,-3.8559,-3.8525,-3.851,-3.8481,-3.8465,-3.8465,-3.8465,-3.843,-3.8113,-3.7249,-3.6952,-3.6526,-3.5812,-3.5022,-3.4403,-3.406,-3.3405,-3.2913,-3.2625,-3.2506,-3.237,-3.2214,-3.2091,-3.193,-3.1728,-3.1691,-3.1581,-3.143,-3.1391,-3.1417,-3.8059,-3.9128,-3.9565,-3.8533,-3.704,-3.4917,-3.1489,0.0,0.0,0.0,-2.5443,-2.536,-2.5308,-2.5943,0.0,0.0,0.0,0.0,0.0,0.0,0.0,0.0,0.0,0.0,0.0,0.0,0.0,0.0,-4.5307,-4.5307,-4.5307,-4.5307,-4.5307,-4.5307,-4.5297,-4.5297,-4.5297,-4.5286,-4.5254,-4.5181,-4.5181,-4.5114,-4.4967,-4.4974,-4.4883,-4.4757,-4.4745,-4.4667,0.0,-4.4421,-4.4289,-4.4166,-4.4109,-4.3989,-4.3865,-4.3865,-4.3751,-4.3582,-4.3582,-4.3548,-4.3515,-4.3515,-4.3515,-4.3515,-4.3515,-4.3515,-4.3515,-4.3515,-4.3515,-4.3497,-4.3497,-4.3497,-4.3497,-4.348,-4.2289,-4.1152,-4.1005,-3.9829,-3.8784,-3.8726,-3.8707,-3.8692,-3.8673,-3.8673,-3.8673,-3.8658,-3.8658,-3.8658,-3.8658,-3.8559,-3.8457,-3.8353,-3.7635,-3.7101,-3.6967,-3.6159,-3.5302,-3.4503,-3.4265,-3.3777,-3.2983,-3.2932,-3.282,-3.2573,-3.2489,-3.2336,-3.2144,-3.1966,-3.1858,-3.184,-3.1654,-3.1956,-3.6653,-3.7963,-3.8763,-3.7855,-3.633,-3.4273,-3.1326,0.0,-2.7608,-2.5839,-2.5455,-2.5434,-2.5372,-2.5592,-2.6049,-2.6841,-2.8651,-3.0731,0.0,0.0,0.0,0.0,0.0,0.0,0.0,0.0,0.0,0.0,-4.5307,-4.5307,-4.5307,-4.5307,-4.5307,-4.5307,-4.5307,-4.5307,-4.5307,-4.5307,-4.5286,-4.5265,-4.5265,-4.5203,-4.5125,-4.5125,-4.508,-4.4967,-4.4967,-4.4919,0.0,-4.477,-4.4655,-4.45,-4.4435,-4.4302,-4.4136,-4.4048,-4.3971,-4.3892,-4.3798,-4.3767,-4.3734,-4.3703,-4.3686,-4.3669,-4.3549,-4.3515,-4.3515,-4.3515,-4.3515,-4.3515,-4.3515,-4.3515,-4.3515,-4.3515,-4.3002,-4.2286,-4.1297,-4.06,-3.9863,-3.8891,-3.8707,-3.8707,-3.8707,-3.8707,-3.8707,-3.8707,-3.8707,-3.8707,-3.8707,-3.8658,-3.8624,-3.8624,-3.8188,-3.7908,-3.7877,-3.7119,-3.6487,-3.6163,-3.5626,-3.5147,-3.4762,-3.4715,-3.4587,-3.4358,-3.3795,-3.3414,-3.3228,-3.2649,-3.23,-3.2144,-3.2056,-3.2383,-3.4915,-3.6278,-3.7227,-3.6616,-3.5154,-3.3241,0.0,0.0,-2.7405,-2.5873,-2.5532,-2.5518,-2.5467,-2.5393,-2.5592,-2.6399,-2.772,-2.9538,-3.2098,0.0,0.0,0.0,0.0,0.0,0.0,0.0,0.0,0.0,-4.5307,-4.5307,-4.5307,-4.5307,-4.5307,-4.5307,-4.5307,-4.5307,-4.5307,-4.5307,-4.5307,-4.5307,-4.5307,-4.5286,-4.5224,-4.5224,-4.5203,-4.5159,-4.5159,-4.5125,0.0,-4.5068,-4.4943,-4.477,-4.4751,-4.4608,-4.4435,-4.4312,-4.424,-4.4162,-4.4064,-4.4005,-4.3974,-4.3929,-4.3913,-4.3897,-4.3747,-4.3649,-4.3583,-4.3583,-4.3583,-4.3583,-4.3549,-4.3513,-4.3513,-4.3496,-4.313,-4.2488,-4.1334,-4.0728,-4.0049,-3.8927,-3.8707,-3.8707,-3.8707,-3.8707,-3.8707,-3.8707,-3.8707,-3.8707,-3.8707,-3.8707,-3.8707,-3.8707,-3.8562,-3.8481,-3.8481,-3.7919,-3.7484,-3.728,-3.6684,-3.6234,-3.5936,-3.589,-3.5779,-3.5636,-3.5013,-3.4629,-3.4448,-3.3877,-3.3477,-3.3312,-3.3227,-3.3547,-3.2955,-3.4078,-3.4733,-3.4733,-3.3429,-3.1673,0.0,-2.8221,-2.6757,-2.5889,-2.5658,-2.5595,-2.5604,-2.5495,-2.5665,-2.6476,-2.728,-2.8693,-3.1245,0.0,0.0,0.0,0.0,0.0,0.0,0.0,0.0,-4.5307,-4.5307,0.0,-4.5307,-4.5307,-4.5307,-4.5307,-4.5307,-4.5307,-4.5307,-4.5307,-4.5307,-4.5307,-4.5307,-4.5307,-4.5297,-4.5297,-4.5297,-4.5297,-4.5297,-4.5265,0.0,-4.5192,-4.5125,-4.501,-4.501,-4.4907,-4.4802,-4.4725,-4.4562,-4.4402,-4.4318,-4.4265,-4.4192,-4.421,-4.421,-4.421,-4.4192,-4.402,-4.3788,-4.3788,-4.3788,-4.3771,-4.3615,-4.3599,-4.3582,-4.3532,-4.2286,-4.1113,-4.1095,-3.9848,-3.8726,-3.8707,-3.8707,-3.8707,-3.8707,-3.8707,-3.8707,-3.8707,-3.8707,-3.8707,-3.8707,-3.8707,-3.8707,-3.8707,-3.8707,-3.8692,-3.8692,-3.8575,-3.818,-3.7427,-3.7262,-3.6833,-3.603,-3.5994,-3.5964,-3.5905,-3.5887,-3.5841,-3.5781,-3.5716,-3.5684,-3.565,-3.547,-3.5733,-3.0993,-3.2259,-3.2921,-3.2921,-3.2062,-3.0774,-2.9076,-2.7809,-2.6754,-2.5888,-2.5684,-2.565,-2.5619,-2.5577,-2.5796,-2.661,-2.7875,0.0,0.0,0.0,0.0,0.0,0.0,0.0,0.0,0.0,0.0,-4.538,-4.537,-4.538,-4.5359,-4.5378,-4.5338,-4.5307,-4.5307,-4.5307,-4.5307,-4.5307,-4.5307,-4.5307,-4.5307,-4.5307,-4.5307,-4.5307,-4.5307,-4.5307,-4.5307,-4.5297,-4.5275,-4.5275,-4.5213,-4.5136,-4.5136,-4.5091,-4.501,-4.4919,-4.4852,-4.4783,-4.4687,-4.4635,-4.4608,-4.4554,-4.4541,-4.4541,-4.4541,-4.4331,-4.4079,-4.4079,-4.4033,-4.4005,-4.3955,-4.3878,-4.38,-4.3783,-4.3349,-4.2634,-4.1472,-4.0799,-4.0071,-3.8983,-3.8735,-3.8707,-3.8707,-3.8707,-3.8707,-3.8707,-3.8707,-3.8707,-3.8707,-3.8707,-3.8707,-3.8707,-3.8707,-3.8707,-3.8707,-3.8658,-3.8533,-3.831,-3.8261,-3.8117,-3.786,-3.776,-3.7695,-3.7664,-3.7106,-3.6786,-3.6755,-3.6175,-3.5872,-3.5862,-3.6295,-3.6611,0.0,-2.9513,-3.0256,-3.0587,-3.0001,-2.9084,-2.8049,-2.7133,-2.6351,-2.58,-2.5698,-2.5689,-2.5653,-2.5896,-2.6343,-2.7165,-2.867,0.0,0.0,0.0,0.0,0.0,0.0,0.0,0.0,0.0,-4.5429,-4.541,-4.54,-4.539,-4.54,-4.54,-4.538,-4.535,-4.5309,-4.5307,-4.5307,-4.5307,-4.5307,-4.5307,-4.5307,-4.5307,-4.5307,-4.5307,-4.5307,-4.5307,-4.5307,-4.5307,0.0,-4.5307,-4.5286,-4.5243,-4.5243,-4.5203,-4.517,-4.5103,-4.508,-4.5068,-4.4943,-4.4907,-4.4907,-4.4858,-4.4846,-4.4846,-4.4846,-4.4635,-4.4383,-4.4383,-4.4345,-4.4288,-4.424,-4.4136,-4.4048,-4.4036,-4.3735,-4.3098,-4.1742,-4.1166,-4.0495,-3.9165,-3.8866,-3.881,-3.878,-3.875,-3.8719,-3.8707,-3.8707,-3.8707,-3.8707,-3.8707,-3.8707,-3.8707,-3.8707,-3.8707,-3.8707,-3.8707,-3.8707,-3.8707,-3.8707,-3.8707,-3.8707,-3.8624,-3.8575,-3.8575,-3.8037,-3.7765,-3.7765,-3.7253,-3.7001,-3.6973,-3.7421,-3.7642,0.0,-2.6157,-2.7094,-2.7913,-2.7543,-2.6977,-2.6918,-2.6274,0.0,-2.5707,-2.5703,-2.5699,-2.5699,-2.6357,-2.7177,-2.7976,0.0,0.0,0.0,0.0,0.0,0.0,0.0,0.0,0.0,0.0,-4.5485,-4.5419,-4.5419,-4.541,-4.541,-4.541,-4.541,-4.541,-4.535,-4.5317,-4.5307,-4.5307,-4.5307,-4.5307,-4.5307,-4.5307,-4.5307,-4.5307,-4.5307,0.0,-4.5307,-4.5307,-4.5307,-4.5307,-4.5307,-4.5307,-4.5307,-4.5307,-4.5297,-4.5224,-4.5203,-4.5192,-4.5136,-4.5114,-4.5114,-4.5114,-4.5114,-4.5114,-4.5114,-4.4931,-4.4738,-4.4738,-4.4685,-4.46,-4.4476,-4.4388,-4.4322,-4.425,-4.3617,-4.2793,-4.1992,-4.1171,-4.0337,-3.9463,-3.9245,-3.916,-3.9046,-3.8955,-3.8865,-3.8738,-3.8704,-3.8707,-3.8707,-3.8707,-3.8707,-3.8707,-3.8707,-3.8707,-3.8707,-3.8707,-3.8707,-3.8707,-3.8707,-3.8707,-3.8707,-3.8707,-3.8707,-3.8707,-3.8707,-3.8707,-3.8707,-3.8707,-3.8707,-3.8707,-3.8707,-3.8707,-2.2447,0.0,-2.6058,-2.6253,-2.6664,-2.6821,0.0,-2.5844,-2.5707,0.0,0.0,0.0,0.0,0.0,0.0,0.0,0.0,0.0,0.0,0.0,0.0,0.0,0.0,0.0,0.0,0.0,-4.5568,-4.554,-4.5559,-4.5522,-4.5485,-4.5485,-4.5448,-4.541,-4.5381,-4.539,-4.5388,-4.5328,-4.5307,-4.5307,-4.5307,-4.5307,-4.5307,-4.5307,-4.5307,-4.5307,-4.5307,-4.5307,-4.5307,-4.5307,-4.5307,-4.5307,-4.5307,-4.5307,-4.5297,-4.5286,-4.5286,-4.5256,-4.5265,-4.5246,-4.5246,-4.5246,-4.5246,-4.5246,-4.5246,-4.5136,-4.501,-4.501,-4.4955,-4.4895,-4.4864,-4.4777,-4.4674,-4.4661,-4.4423,-4.397,-4.312,-4.2687,-4.2212,-4.1389,-4.1143,-4.0859,-4.0235,-3.9991,-3.9653,-3.9032,-3.8837,-3.8777,-3.8777,-3.8735,-3.8707,-3.8707,-3.8707,-3.8707,-3.8707,-3.8707,-3.8707,-3.8707,-3.8707,-3.8707,-3.8707,-3.8707,-3.8707,-3.8707,-3.8707,-3.8707,-3.8707,-3.8707,-3.8707,-3.8707,-3.8707,-3.8707,-2.1653,-2.3172,-2.4594,-2.5003,-2.5765,-2.6274,-2.5805,0.0,0.0,0.0,0.0,0.0,0.0,0.0,0.0,0.0,0.0,0.0,0.0,0.0,0.0,0.0,0.0,0.0,0.0,-4.5665,-4.5648,-4.5648,-4.5622,-4.5577,-4.5559,-4.555,-4.5522,-4.5495,-4.5457,-4.5438,-4.54,-4.5351,-4.536,-4.536,-4.536,-4.535,-4.5338,-4.5338,-4.5328,-4.5307,-4.5307,-4.5307,-4.5307,-4.5307,-4.5307,-4.5307,-4.5307,-4.5307,-4.5307,-4.5307,-4.5307,-4.5307,-4.5307,-4.5307,-4.5307,-4.5307,-4.5307,-4.5307,-4.5307,-4.5254,-4.5192,-4.5192,-4.5148,-4.5103,-4.5103,-4.5022,-4.4931,-4.4931,-4.4846,-4.4556,-4.3718,-4.3454,-4.3133,-4.2285,-4.2013,-4.1777,-4.1306,-4.0779,-4.0263,-3.9751,-3.9291,-3.8964,-3.891,-3.8837,-3.878,-3.875,-3.8723,-3.8707,-3.8707,-3.8707,-3.8707,-3.8707,-3.8707,-3.8707,-3.8707,-3.8707,-3.8707,-3.8707,-3.8707,-3.8707,-3.8707,-3.8707,-3.8707,-3.8707,-3.8707,-3.8707,-2.1659,-2.2474,-2.3347,-2.4359,-2.5159,-2.5726,-2.5863,0.0,0.0,0.0,0.0,0.0,0.0,0.0,0.0,0.0,0.0,0.0,0.0,0.0,0.0,0.0,0.0,0.0,-4.5822,-4.5762,-4.5734,-4.5717,-4.5657,-4.5612,-4.5622,-4.5614,-4.5594,-4.5594,-4.5531,-4.5495,-4.5429,-4.541,-4.54,-4.54,-4.54,-4.54,-4.5399,-4.5399,-4.5369,-4.5328,-4.5328,0.0,-4.5317,-4.5317,-4.5307,-4.5307,-4.5307,-4.5307,-4.5307,-4.5307,-4.5307,-4.5307,-4.5307,-4.5307,-4.5307,-4.5307,-4.5307,-4.5307,-4.5307,-4.5307,-4.5307,-4.5307,-4.5265,-4.5233,-4.5233,-4.517,-4.5136,-4.5136,-4.5091,-4.4836,-4.4163,-4.3965,-4.3691,-4.297,-4.2707,-4.2573,-4.2391,-4.1682,-4.1014,-4.0638,-3.993,-3.9346,-3.9082,-3.8979,-3.8925,-3.8851,-3.878,-3.8738,-3.8723,-3.8707,-3.8707,-3.8707,-3.8707,-3.8707,-3.8707,-3.8707,-3.8707,-3.8707,-3.8707,-3.8707,-3.8707,-3.8707,-3.8707,-3.8707,-3.8707,-3.8707,-2.1582,-2.244,-2.349,-2.5104,-2.5609,-2.5883,-2.6625,0.0,0.0,0.0,0.0,0.0,0.0,0.0,0.0,0.0,0.0,0.0,0.0,0.0,0.0,0.0,0.0,-4.5944,-4.5886,-4.5873,-4.5858,-4.5792,-4.5708,-4.5668,-4.5673,-4.5631,-4.5594,-4.5594,-4.5586,-4.5577,-4.5568,-4.5467,-4.54,-4.54,-4.54,-4.54,-4.539,-4.539,-4.539,-4.5381,0.0,-4.538,-4.5369,-4.5369,-4.5348,-4.5307,-4.5307,-4.5307,-4.5307,-4.5307,-4.5307,-4.5307,-4.5307,-4.5307,-4.5307,-4.5307,-4.5307,-4.5307,-4.5307,-4.5307,-4.5307,-4.5307,-4.5297,-4.5286,-4.5286,-4.5286,-4.5275,-4.5275,-4.5213,-4.5132,-4.4998,-4.4935,-4.4851,-4.4699,-4.4623,-4.4348,-4.3665,-4.3331,-4.2655,-4.1147,-4.0716,-4.0233,-3.9365,-3.9197,-3.912,-3.8979,-3.891,-3.8851,-3.8792,-3.8735,-3.8707,-3.8707,-3.8707,-3.8707,-3.8707,-3.8707,-3.8707,-3.8707,-3.8707,-3.8707,-3.8707,-3.8707,-3.8707,-3.8707,-3.8707,-3.8707,-2.2143,-2.2792,-2.375,-2.6439,-2.6746,-2.6625,-2.7503,0.0,0.0,0.0,0.0,0.0,0.0,0.0,0.0,0.0,0.0,0.0,0.0,0.0,0.0,0.0,0.0,-4.6032,-4.6011,-4.5978,-4.5931,-4.5867,-4.5826,-4.5795,-4.5754,-4.5711,-4.5698,-4.5648,-4.5648,-4.564,-4.5594,-4.555,-4.5504,-4.5504,-4.5504,-4.5495,-4.5448,-4.5448,-4.5429,-4.54,0.0,-4.539,-4.5409,-4.5409,-4.537,-4.5351,-4.5359,-4.5348,-4.5348,-4.5348,-4.5348,-4.5348,-4.5341,-4.5351,-4.5351,-4.5351,-4.535,-4.5348,-4.5348,-4.5328,-4.5307,-4.5307,-4.5307,-4.5307,-4.5307,-4.5307,-4.5307,-4.5307,-4.5286,-4.5246,-4.5246,-4.5224,-4.5203,-4.5203,-4.5159,-4.4981,-4.463,-4.4114,-4.3475,-4.264,-4.1692,-4.0868,-4.0284,-3.9746,-3.935,-3.9183,-3.9101,-3.9021,-3.8925,-3.8881,-3.8825,-3.8707,-3.8707,-3.8707,-3.8707,-3.8707,-3.8707,-3.8707,-3.8707,-3.8707,-3.8707,-3.8707,-3.8707,-3.8707,-3.8707,-3.8707,-2.2632,-2.3096,-2.3944,-2.7421,-2.763,-2.7329,-2.8596,0.0,0.0,0.0,0.0,0.0,0.0,0.0,0.0,0.0,0.0,0.0,0.0,0.0,0.0,-4.6215,-4.6151,-4.6123,-4.6123,-4.6089,-4.6022,-4.5958,-4.5923,-4.5899,-4.5845,-4.5824,-4.5781,-4.573,-4.5706,-4.5673,-4.5631,-4.5614,-4.5594,-4.5594,-4.5594,-4.5577,-4.5522,-4.5522,-4.5495,-4.5438,-4.5438,-4.5438,-4.5419,-4.5419,-4.5419,-4.54,-4.54,-4.5409,-4.5409,-4.5409,-4.5409,-4.539,-4.539,-4.54,-4.54,-4.54,-4.54,-4.5409,-4.5409,-4.5369,-4.5317,-4.5317,-4.5317,-4.5307,-4.5307,-4.5307,-4.5307,-4.5307,-4.5307,-4.5307,-4.5307,-4.5307,-4.5307,-4.5307,-4.5265,-4.5213,-4.5213,-4.4666,-4.4146,-4.3862,-4.2577,-4.1486,-4.112,-4.0257,-3.9611,-3.9427,-3.9324,-3.9237,-3.9073,-3.9064,-3.8979,-3.884,-3.8765,-3.8723,-3.8707,-3.8707,-3.8707,-3.8707,-3.8707,-3.8707,-3.8707,-3.8707,-3.8707,-3.8707,-3.8707,-3.8707,-2.2624,-2.3101,-2.3938,-2.7421,-2.7635,0.0,-3.006,-3.0625,0.0,0.0,0.0,0.0,0.0,0.0,0.0,0.0,0.0,0.0,0.0,0.0,-4.6228,-4.6282,-4.6231,-4.6198,-4.618,-4.6196,-4.6153,-4.6093,-4.6022,-4.5988,-4.5986,-4.5925,-4.5854,-4.5793,-4.5719,-4.5703,-4.5693,-4.5631,-4.5594,-4.5594,-4.5594,-4.5594,-4.5586,-4.5586,-4.5586,-4.5586,-4.5586,-4.5559,-4.5495,-4.5495,-4.5467,-4.54,-4.54,-4.54,-4.54,-4.54,-4.54,-4.54,-4.54,-4.54,-4.54,-4.54,-4.54,-4.54,-4.54,-4.54,-4.5398,-4.5398,-4.5338,-4.5307,-4.5307,-4.5307,-4.5307,-4.5307,-4.5307,-4.5307,-4.5307,-4.5307,-4.5307,-4.5307,-4.5297,-4.5297,-4.5297,-4.5239,-4.4913,-4.4009,-4.3151,-4.2271,-4.1383,-4.0507,-3.9892,-3.9693,-3.9611,-3.9489,-3.9298,-3.9224,-3.9183,-3.9156,-3.8935,-3.8762,-3.8707,-3.8707,-3.8707,-3.8707,-3.8707,-3.8707,-3.8707,-3.8707,-3.8707,-3.8707,-3.8707,-3.8707,-2.2568,-2.3075,-2.3945,-2.7436,0.0,0.0,0.0,0.0,0.0,0.0,0.0,0.0,0.0,0.0,0.0,0.0,0.0,0.0,0.0,-4.6273,-4.6271,-4.6294,-4.6273,-4.6264,-4.6253,-4.625,-4.6237,-4.6176,-4.615,-4.6107,-4.606,-4.6047,-4.5986,-4.5935,-4.5867,-4.5791,-4.5704,-4.5671,-4.564,-4.5594,-4.5594,-4.5594,-4.5594,-4.5594,-4.5594,-4.5594,-4.5594,-4.5586,-4.5568,-4.5568,-4.5559,-4.5513,-4.5485,-4.5429,-4.541,-4.5438,-4.5457,-4.5476,-4.5504,-4.5522,-4.5522,-4.5522,-4.5495,-4.5457,-4.5457,-4.5438,-4.54,-4.54,-4.538,-4.5351,-4.5298,-4.5307,-4.5307,-4.5307,-4.5307,-4.5307,-4.5307,-4.5307,-4.5307,-4.5307,-4.5307,-4.5307,-4.5307,-4.5307,-4.5182,-4.4817,-4.4043,-4.3183,-4.229,-4.1412,-4.0618,-3.996,-3.9792,-3.9682,-3.9611,-3.9514,-3.9427,-3.9389,-3.9087,-3.8925,-3.8881,-3.8837,-3.8822,-3.8822,-3.8822,-3.8822,-3.8822,-3.8777,-3.8747,-3.8765,-3.8719,-3.8707,-2.2532,-2.3244,-2.434,0.0,0.0,0.0,0.0,0.0,0.0,0.0,0.0,0.0,0.0,0.0,0.0,0.0,0.0,0.0,-4.63,-4.63,-4.63,-4.63,-4.63,-4.6298,-4.629,-4.631,-4.6282,-4.624,-4.624,-4.6209,-4.6141,-4.6138,-4.6106,-4.6022,-4.5964,-4.5886,-4.5761,-4.5746,-4.5695,-4.5637,-4.562,-4.5622,-4.5594,-4.5594,-4.5594,-4.5594,-4.5594,-4.5594,-4.5594,-4.5594,-4.5594,-4.5605,-4.5559,-4.5504,-4.5476,-4.5513,-4.5522,-4.555,-4.5577,-4.5594,-4.5594,-4.5594,-4.5568,-4.5522,-4.5522,-4.5485,-4.5429,-4.5429,-4.5419,-4.539,-4.533,-4.5339,-4.5329,-4.5338,-4.5328,-4.5328,-4.5307,-4.5307,-4.5307,-4.5307,-4.5307,-4.5307,-4.5307,-4.5307,-4.5307,-4.5307,-4.4571,-4.369,-4.2849,-4.198,-4.1082,-4.0153,-3.9965,-3.9881,-3.9881,-3.9792,-3.9712,-3.9658,-3.9401,-3.921,-3.9106,-3.9045,-3.9036,-3.9036,-3.9036,-3.9021,-3.8993,-3.895,-3.8906,-3.8866,-3.8792,-3.875,-2.2527,-2.3694,0.0,0.0,0.0,0.0,0.0,0.0,0.0,0.0,0.0,0.0,0.0,0.0,0.0,-4.499,-4.5734,-4.63,-4.63,-4.63,-4.63,-4.63,-4.63,-4.63,-4.63,-4.63,-4.6296,-4.6306,-4.6306,-4.626,-4.6209,-4.6195,-4.617,-4.6092,-4.6046,-4.5963,-4.5892,-4.5822,-4.5771,-4.5708,-4.5706,-4.5676,-4.5594,-4.5594,-4.5594,-4.5594,-4.5594,-4.5594,-4.5594,-4.5594,-4.5594,-4.5594,-4.5594,-4.5594,-4.5594,-4.5594,-4.5594,-4.5594,-4.5594,-4.5594,-4.5594,-4.5594,-4.5594,-4.5594,-4.5594,-4.5559,-4.5504,-4.5504,-4.5448,-4.541,-4.541,-4.541,-4.539,-4.5399,-4.5408,-4.5369,-4.5317,-4.5307,-4.5307,-4.5307,-4.5307,-4.5307,-4.5307,-4.5307,-4.5307,-4.5307,-4.4571,-4.372,-4.2908,-4.203,-4.117,-4.0282,-4.0147,-4.0106,-4.0106,-4.0046,-3.9996,-3.9996,-3.987,-3.9647,-3.9324,-3.9311,-3.9311,-3.9311,-3.9311,-3.9272,-3.9197,-3.9197,-3.9129,-3.8993,-3.8921,-3.8881,-2.269,-2.4107,0.0,0.0,0.0,0.0,0.0,0.0,0.0,0.0,0.0,0.0,0.0,0.0,0.0,-4.499,-4.5734,-4.63,-4.63,-4.63,-4.63,-4.63,-4.63,-4.63,-4.63,-4.63,-4.63,-4.6296,-4.6296,-4.6294,-4.6273,-4.6262,-4.625,-4.6242,-4.6126,-4.6054,-4.6032,-4.5935,-4.5861,-4.5833,-4.5781,-4.5714,-4.5594,-4.5594,-4.5594,-4.5594,-4.5594,-4.5594,-4.5594,-4.5594,-4.5594,-4.5594,-4.5648,-4.5665,-4.5665,-4.5665,-4.5665,-4.5657,-4.5622,-4.5594,-4.5594,-4.5594,-4.5594,-4.5594,-4.5594,-4.5586,-4.5568,-4.5568,-4.5559,-4.5531,-4.5531,-4.5531,-4.5532,-4.5419,-4.54,-4.54,-4.5361,-4.538,-4.537,-4.5369,-4.5359,-4.5367,-4.5307,-4.5307,-4.5307,-4.5307,-4.5067,-4.4399,-4.2985,-4.203,-4.1189,-4.0358,-4.0253,-4.0234,-4.0234,-4.0176,-4.0128,-4.0128,-4.0057,-3.9911,-3.9658,-3.9611,-3.9587,-3.9587,-3.9587,-3.9551,-3.9477,-3.9439,-3.9337,-3.9205,-3.9142,-3.905,-2.3188,0.0,0.0,0.0,0.0,0.0,0.0,0.0,0.0,0.0,0.0,0.0,0.0,-4.5168,0.0,-4.5519,-4.5968,-4.63,-4.63,-4.63,-4.63,-4.63,-4.63,-4.63,-4.63,-4.63,-4.63,-4.63,-4.63,-4.63,-4.63,-4.6294,-4.631,-4.6303,-4.6215,-4.6164,-4.6135,-4.6022,-4.598,-4.5935,-4.5893,-4.5812,-4.5731,-4.566,-4.5646,-4.5646,-4.5646,-4.5646,-4.5646,-4.5646,-4.5654,-4.5679,-4.5722,-4.5746,-4.5735,-4.5735,-4.5746,-4.573,-4.5679,-4.5662,-4.5646,-4.5646,-4.5646,-4.5646,-4.5646,-4.5646,-4.5646,-4.5648,-4.564,-4.564,-4.5614,-4.5594,-4.5577,-4.5476,-4.5438,-4.5429,-4.541,-4.54,-4.54,-4.54,-4.54,-4.539,-4.535,-4.535,-4.5339,-4.5338,-4.5031,-4.4418,-4.3405,-4.2545,-4.1839,-4.1342,-4.0979,-4.0788,-4.0788,-4.0454,-4.0244,-4.0244,-4.0196,-4.0127,-3.9996,-3.9922,-3.9859,-3.9859,-3.9859,-3.9826,-3.977,-3.9717,-3.9623,-3.9464,-3.9389,-3.9277,0.0,0.0,0.0,0.0,0.0,0.0,0.0,0.0,0.0,0.0,0.0,0.0,0.0,-4.63,-4.63,-4.63,-4.63,-4.63,-4.63,-4.63,-4.63,-4.63,-4.63,-4.63,-4.63,-4.63,-4.63,-4.63,-4.63,-4.63,-4.63,-4.63,-4.6296,-4.6306,-4.6306,-4.6275,-4.6209,-4.6134,-4.6076,-4.6012,-4.6002,-4.5978,-4.591,-4.5786,-4.5731,-4.5731,-4.5731,-4.5731,-4.5731,-4.5731,-4.5754,-4.5803,-4.5829,-4.5831,-4.5821,-4.5821,-4.5819,-4.5829,-4.5803,-4.5781,-4.5731,-4.5731,-4.5731,-4.5731,-4.5731,-4.5723,-4.5715,-4.5714,-4.5717,-4.5701,-4.562,-4.5612,-4.5594,-4.5522,-4.5513,-4.5495,-4.5429,-4.5419,-4.5419,-4.541,-4.541,-4.541,-4.541,-4.54,-4.541,-4.5399,-4.4669,-4.4103,-4.4027,-4.3377,-4.288,-4.2804,-4.2097,-4.1619,-4.1609,-4.0883,-4.0416,-4.0416,-4.0339,-4.0301,-4.0301,-4.0176,-4.0127,-4.0127,-4.0127,-4.0096,-4.0017,-4.0017,-3.9914,-3.9728,-3.9658,-3.9526,0.0,0.0,0.0,0.0,0.0,0.0,0.0,0.0,0.0,0.0,0.0,0.0,0.0,-4.63,-4.63,-4.63,-4.63,-4.63,-4.63,-4.63,-4.63,-4.63,-4.63,-4.63,-4.63,-4.63,-4.63,-4.63,-4.63,-4.63,-4.63,-4.63,-4.63,-4.6298,-4.631,-4.6282,-4.6277,-4.6209,-4.617,-4.6164,-4.6103,-4.6078,-4.605,-4.5916,-4.5867,-4.5867,-4.5867,-4.5867,-4.5867,-4.5867,-4.5874,-4.588,-4.5944,-4.5962,-4.5968,-4.5968,-4.5962,-4.595,-4.5906,-4.5874,-4.5867,-4.5867,-4.5867,-4.5867,-4.5867,-4.5867,-4.5859,-4.5852,-4.5829,-4.5777,-4.577,-4.5727,-4.5668,-4.5665,-4.5622,-4.5577,-4.5568,-4.5559,-4.5531,-4.5495,-4.5485,-4.5457,-4.541,-4.54,-4.54,-4.539,-4.5227,-4.4873,-4.4231,-4.4001,-4.3628,-4.2881,-4.2623,-4.2518,-4.2507,-4.1724,-4.1246,-4.1246,-4.0654,-4.0301,-4.0301,-4.0263,-4.0253,-4.0253,-4.0253,-4.0225,-4.0166,-4.0166,-4.0087,-3.9943,-3.9914,-3.9815,0.0,0.0,0.0,0.0,0.0,0.0,0.0,0.0,0.0,0.0,0.0,0.0,-4.6306,-4.6303,-4.63,-4.63,-4.63,-4.63,-4.63,-4.63,-4.63,-4.63,-4.63,-4.63,-4.63,-4.63,-4.63,-4.63,-4.63,-4.63,-4.63,-4.63,-4.63,-4.63,-4.6296,-4.6292,-4.6292,-4.6275,-4.6245,-4.6245,-4.6183,-4.6151,-4.6148,-4.6032,-4.5997,-4.5997,-4.5997,-4.5997,-4.5997,-4.5997,-4.6007,-4.5998,-4.6032,-4.6066,-4.6095,-4.6095,-4.6085,-4.6037,-4.6003,-4.6007,-4.5997,-4.5997,-4.5997,-4.5997,-4.5997,-4.5975,-4.5947,-4.5955,-4.5912,-4.5893,-4.5854,-4.5819,-4.581,-4.5807,-4.5722,-4.564,-4.5614,-4.5594,-4.5586,-4.554,-4.5559,-4.555,-4.5504,-4.5476,-4.5438,-4.5438,-4.5419,-4.5247,-4.4825,-4.4767,-4.4585,-4.4106,-4.3695,-4.3465,-4.3426,-4.2623,-4.1954,-4.1571,-4.1141,-4.074,-4.0319,-4.03,-4.0291,-4.0301,-4.0301,-4.0272,-4.0253,-4.0253,-4.0196,-4.0098,-4.0098,-4.0007,0.0,0.0,0.0,0.0,0.0,0.0,0.0,0.0,0.0,0.0,0.0,0.0,-4.6276,-4.6309,-4.6305,-4.6305,-4.6305,-4.6305,-4.6305,-4.6305,-4.6305,-4.6305,-4.6303,-4.6303,-4.6303,-4.6302,-4.63,-4.63,-4.63,-4.63,-4.63,-4.63,-4.63,-4.63,-4.63,-4.63,-4.63,-4.6292,-4.6308,-4.6308,-4.6238,-4.6214,-4.6214,-4.616,-4.6127,-4.6119,-4.6119,-4.6119,-4.6119,-4.6119,-4.6111,-4.6126,-4.6126,-4.6153,-4.6206,-4.6206,-4.616,-4.6126,-4.6126,-4.6115,-4.6119,-4.6119,-4.6119,-4.6119,-4.6119,-4.6083,-4.6022,-4.6022,-4.6032,-4.6,-4.5958,-4.5923,-4.5912,-4.5925,-4.5824,-4.5722,-4.5629,-4.5612,-4.5603,-4.5594,-4.5594,-4.5594,-4.5594,-4.5559,-4.5513,-4.5513,-4.5476,-4.5429,-4.5429,-4.5429,-4.5429,-4.5419,-4.4825,-4.4394,-4.4327,-4.3532,-4.2766,-4.2096,-4.179,-4.1292,-4.0565,-4.0392,-4.0317,-4.0301,-4.031,-4.0301,-4.0301,-4.0301,-4.0263,-4.0225,-4.0225,-4.0157,0.0,0.0,0.0,0.0,0.0,0.0,0.0,0.0,0.0,0.0,0.0,-4.5402,-4.6164,-4.6301,-4.63,-4.63,-4.63,-4.63,-4.63,-4.63,-4.63,-4.63,-4.6295,-4.6291,-4.6291,-4.6305,-4.63,-4.63,-4.63,-4.63,-4.63,-4.63,-4.63,-4.63,-4.63,-4.63,-4.63,-4.63,-4.6298,-4.6298,-4.6298,-4.6296,-4.6296,-4.6271,-4.6238,-4.6195,-4.6195,-4.6195,-4.6195,-4.6195,-4.6198,-4.6198,-4.6198,-4.6181,-4.6201,-4.6201,-4.6181,-4.6198,-4.6198,-4.6198,-4.6195,-4.6195,-4.6195,-4.6195,-4.6195,-4.6183,-4.617,-4.6167,-4.6123,-4.6072,-4.6087,-4.6036,-4.5993,-4.5991,-4.5929,-4.5841,-4.5704,-4.5698,-4.5657,-4.5603,-4.5594,-4.5594,-4.5594,-4.5586,-4.5586,-4.5586,-4.5577,-4.5577,-4.5577,-4.5577,-4.5559,-4.5495,-4.5399,-4.5294,-4.5228,-4.447,-4.3972,-4.3857,-4.2496,-4.1634,-4.1519,-4.0781,-4.0362,-4.0298,-4.031,-4.0301,-4.0301,-4.0301,-4.0301,-4.0291,-4.0291,-4.0244,0.0,0.0,0.0,0.0,0.0,0.0,0.0,0.0,0.0,0.0,0.0,-4.3964,-4.5329,-4.5561,-4.5735,-4.6223,-4.6301,-4.6301,-4.6301,-4.6301,-4.6301,-4.6301,-4.63,-4.6299,-4.6299,-4.6296,-4.6294,-4.6294,-4.629,-4.6308,-4.6308,-4.6303,-4.63,-4.63,-4.63,-4.63,-4.63,-4.63,-4.63,-4.63,-4.63,-4.63,-4.63,-4.63,-4.6277,-4.6267,-4.6267,-4.6267,-4.6267,-4.6267,-4.6267,-4.6267,-4.6267,-4.6267,-4.6267,-4.6267,-4.6267,-4.6267,-4.6267,-4.6267,-4.6267,-4.6267,-4.6267,-4.6267,-4.6267,-4.626,-4.6267,-4.6267,-4.6215,-4.6157,-4.6157,-4.6137,-4.6115,-4.6107,-4.606,-4.5991,-4.5885,-4.58,-4.5738,-4.5679,-4.5665,-4.5648,-4.5648,-4.5631,-4.5594,-4.5594,-4.5594,-4.5594,-4.5594,-4.5594,-4.5586,-4.5559,-4.5559,-4.5522,-4.5457,-4.5121,-4.4737,-4.4277,-4.3097,-4.2215,-4.1724,-4.0891,-4.0432,-4.0362,-4.0317,-4.03,-4.0301,-4.0301,-4.0301,-4.0301,-4.0301,-4.0272,0.0,0.0,0.0,0.0,0.0,0.0,0.0,0.0,0.0,0.0,0.0,-4.2537,-4.4062,-4.4529,-4.4957,-4.5836,-4.5973,-4.6051,-4.6265,-4.6305,-4.6305,-4.6305,-4.6304,-4.6303,-4.6303,-4.6302,-4.6301,-4.6301,-4.6297,-4.6295,-4.6295,-4.6308,-4.6303,-4.6303,-4.6302,-4.63,-4.63,-4.63,-4.63,-4.63,-4.63,-4.63,-4.63,-4.63,-4.63,-4.63,-4.63,-4.63,-4.63,-4.63,-4.63,-4.63,-4.63,-4.63,-4.63,-4.63,-4.63,-4.63,-4.63,-4.63,-4.63,-4.63,-4.63,-4.63,-4.63,-4.6296,-4.6308,-4.6308,-4.6264,-4.6236,-4.6236,-4.6228,-4.6237,-4.6237,-4.616,-4.6106,-4.6013,-4.5911,-4.5817,-4.5761,-4.5743,-4.5722,-4.5698,-4.5657,-4.5622,-4.5594,-4.5594,-4.5594,-4.5594,-4.5594,-4.5594,-4.5594,-4.5594,-4.5577,-4.5522,-4.5541,-4.5176,-4.4341,-4.3496,-4.2631,-4.1767,-4.0941,-4.0482,-4.0424,-4.0379,-4.0335,-4.0319,-4.0319,-4.0319,-4.0319,-4.0319,-4.0319,0.0,0.0,0.0,0.0,0.0,0.0,0.0,0.0,0.0,0.0,-4.1161,-4.1453,-4.2377,-4.3202,-4.4043,-4.4922,-4.5078,-4.5351,-4.6172,-4.6308,-4.6308,-4.6308,-4.6308,-4.6307,-4.6307,-4.6304,-4.6301,-4.6301,-4.6301,-4.6301,-4.6301,-4.6296,-4.6293,-4.6293,-4.6305,-4.63,-4.63,-4.63,-4.63,-4.63,-4.63,-4.63,-4.63,-4.63,-4.63,-4.63,-4.63,-4.63,-4.63,-4.63,-4.63,-4.63,-4.63,-4.63,-4.63,-4.63,-4.63,-4.63,-4.63,-4.63,-4.63,-4.63,-4.63,-4.63,-4.63,-4.63,-4.63,-4.63,-4.63,-4.6298,-4.6298,-4.6292,-4.6284,-4.6284,-4.6242,-4.6153,-4.6035,-4.5929,-4.5893,-4.59,-4.584,-4.5771,-4.5715,-4.5706,-4.5665,-4.5622,-4.5594,-4.5594,-4.5594,-4.5594,-4.5594,-4.5594,-4.5594,-4.5594,-4.5605,-4.5586,-4.522,-4.4355,-4.3547,-4.2692,-4.1827,-4.0969,-4.0511,-4.0502,-4.0493,-4.0449,-4.0398,-4.0398,-4.0398,-4.0398,-4.0398,-4.0398,0.0,0.0,0.0,0.0,0.0,0.0,0.0,0.0,0.0,0.0,-4.0233,-4.0526,-4.1399,-4.2278,-4.3144,-4.4023,-4.4179,-4.4277,-4.459,-4.5117,-4.5469,-4.5469,-4.5957,-4.6308,-4.6308,-4.6308,-4.6307,-4.6307,-4.6306,-4.6305,-4.6305,-4.6301,-4.6299,-4.6299,-4.6293,-4.6306,-4.63,-4.63,-4.63,-4.63,-4.63,-4.63,-4.63,-4.63,-4.63,-4.63,-4.63,-4.63,-4.63,-4.63,-4.63,-4.63,-4.63,-4.63,-4.63,-4.63,-4.63,-4.63,-4.63,-4.63,-4.63,-4.63,-4.63,-4.63,-4.63,-4.63,-4.63,-4.63,-4.63,-4.63,-4.63,-4.6298,-4.6294,-4.6306,-4.6279,-4.6242,-4.6157,-4.6087,-4.6018,-4.5972,-4.5902,-4.5867,-4.5833,-4.5788,-4.5738,-4.5665,-4.5657,-4.5648,-4.5614,-4.5594,-4.5594,-4.5594,-4.5594,-4.5594,-4.5594,-4.5594,-4.5229,-4.4355,-4.3547,-4.272,-4.1846,-4.095,-4.0508,-4.0492,-4.0492,-4.0471,-4.0407,-4.0407,-4.0407,-4.0407,-4.0407,-4.0407,0.0,0.0,0.0,0.0,0.0,0.0,0.0,0.0,0.0,0.0,-3.9322,-3.9944,-4.0521,-4.1333,-4.2212,-4.3119,-4.326,-4.3378,-4.3652,-4.4199,-4.4551,-4.4551,-4.5078,-4.543,-4.543,-4.543,-4.543,-4.543,-4.5429,0.0,-4.5429,-4.5427,-4.5424,-4.5423,-4.5712,-4.5864,-4.5859,-4.6153,-4.6309,-4.6309,-4.6306,-4.6305,-4.6305,-4.6302,-4.63,-4.63,-4.63,-4.63,-4.63,-4.63,-4.63,-4.63,-4.63,-4.63,-4.63,-4.63,-4.63,-4.63,-4.63,-4.63,-4.63,-4.63,-4.63,-4.63,-4.63,-4.63,-4.63,-4.63,-4.63,-4.63,-4.63,-4.63,-4.6298,-4.6292,-4.629,-4.6288,-4.6243,-4.6173,-4.6126,-4.6087,-4.6003,-4.5952,-4.5943,-4.5874,-4.5824,-4.5777,-4.5746,-4.5706,-4.5646,-4.5629,-4.5631,-4.5594,-4.5594,-4.5594,-4.5594,-4.5325,-4.4797,-4.3951,-4.3124,-4.2277,-4.1393,-4.0804,-4.0496,-4.0496,-4.0496,-4.0484,-4.0438,-4.0438,-4.0438,-4.0438,-4.0438,-4.043,0.0,0.0,0.0,0.0,0.0,0.0,0.0,0.0,0.0,0.0,-3.8365,-3.9599,-3.9623,-4.0338,-4.1229,-4.2165,-4.2334,-4.2651,-4.3494,-4.3652,-4.3652,-4.3652,-4.3672,-4.3691,-4.3691,-4.3691,-4.3691,-4.3691,-4.3691,-4.3691,-4.3691,-4.3691,-4.3708,-4.3704,-4.4524,-4.4954,-4.4954,-4.5833,-4.6262,-4.6262,-4.6296,-4.6293,-4.6293,-4.6305,-4.6302,-4.6302,-4.6302,-4.6302,-4.6302,-4.63,-4.63,-4.63,-4.63,-4.63,-4.63,-4.63,-4.63,-4.63,-4.63,-4.63,-4.63,-4.63,-4.63,-4.63,-4.63,-4.63,-4.63,-4.63,-4.63,-4.63,-4.63,-4.63,-4.63,-4.63,-4.63,-4.63,-4.63,-4.6245,-4.6201,-4.6206,-4.6146,-4.6072,-4.6017,-4.5958,-4.5905,-4.5906,-4.5838,-4.5781,-4.5715,-4.5695,-4.5684,-4.5603,-4.5575,-4.5556,-4.5556,-4.4759,-4.3912,-4.3104,-4.2277,-4.1412,-4.0535,-4.0496,-4.0496,-4.0496,-4.0496,-4.0496,-4.0496,-4.0496,-4.0496,-4.0496,-4.0496,-4.0492,-2.271,0.0,0.0,0.0,0.0,0.0,0.0,0.0,0.0,0.0,-3.5629,-3.7001,-3.7696,-3.8497,-3.9342,-4.0286,-4.1012,-4.1547,-4.1787,-4.236,-4.2753,-4.2753,-4.332,-4.3691,-4.3691,-4.3691,-4.3691,0.0,-4.3691,-4.3691,-4.3691,-4.3691,-4.3691,-4.3708,-4.3923,-4.4058,-4.4055,-4.4915,-4.5364,-4.5364,-4.6008,-4.63,-4.63,-4.6297,-4.6297,-4.6297,-4.6297,-4.6295,-4.6309,-4.6303,-4.63,-4.63,-4.63,-4.63,-4.63,-4.63,-4.63,-4.63,-4.63,-4.63,-4.63,-4.63,-4.63,-4.63,-4.63,-4.63,-4.63,-4.63,-4.63,-4.63,-4.63,-4.63,-4.63,-4.63,-4.63,-4.63,-4.63,-4.6296,-4.6269,-4.6272,-4.6217,-4.6157,-4.6076,-4.6069,-4.6022,-4.5969,-4.5911,-4.5874,-4.5859,-4.5795,-4.5754,-4.5676,-4.5104,-4.4705,-4.4671,-4.3912,-4.3066,-4.222,-4.1923,-4.1412,-4.0535,-4.0496,-4.0496,-4.0496,-4.0496,-4.0496,-4.0496,-4.0496,-4.0496,-4.0496,-4.0496,-4.0508,0.0,0.0,0.0,0.0,0.0,0.0,0.0,-2.9169,0.0,0.0,-3.3456,-3.4894,-3.5819,-3.6653,-3.7526,-3.8466,-3.9075,-3.9828,-4.0945,-4.1544,-4.1865,-4.1869,-4.2302,-4.2616,-4.2617,-4.2637,-4.2656,-4.2656,-4.2656,-4.2656,-4.2656,-4.2656,-4.2656,-4.2656,-4.2988,-4.3163,-4.3161,-4.4021,-4.445,-4.445,-4.4977,-4.521,-4.521,-4.5228,-4.5403,-4.5755,-4.5755,-4.5968,-4.6296,-4.6293,-4.6306,-4.63,-4.63,-4.63,-4.63,-4.63,-4.63,-4.63,-4.63,-4.63,-4.63,-4.63,-4.63,-4.63,-4.63,-4.63,-4.63,-4.63,-4.63,-4.63,-4.63,-4.63,-4.63,-4.63,-4.63,-4.63,-4.63,-4.63,-4.6298,-4.6306,-4.6279,-4.6228,-4.6147,-4.6137,-4.6131,-4.6083,-4.6027,-4.5975,-4.5947,-4.5874,-4.5691,-4.5281,-4.4758,-4.4268,-4.3879,-4.3084,-4.2383,-4.1863,-4.1501,-4.1078,-4.0561,-4.0512,-4.0504,-4.0539,-4.0504,-4.0496,-4.0496,-4.0496,-4.0496,-4.0496,-4.0496,-4.0496,-2.4405,-2.4621,0.0,0.0,-2.6238,0.0,-2.6702,-2.7905,-2.9224,0.0,0.0,-3.2943,-3.3824,-3.4676,-3.5606,-3.6633,-3.6798,-3.7769,-4.0552,-4.0944,-4.1,-4.1073,-4.1101,-4.1107,-4.1091,-4.1152,-4.1191,-4.1191,-4.1191,-4.1191,-4.1191,-4.1191,-4.1191,-4.1191,-4.1894,-4.2266,-4.2266,-4.3125,-4.3555,-4.3555,-4.3652,-4.371,-4.3709,-4.3706,-4.4115,-4.4857,-4.4955,-4.5443,-4.6166,-4.6263,-4.6296,-4.6303,-4.6303,-4.6303,-4.6303,-4.6303,-4.6303,-4.6303,-4.6302,-4.6302,-4.6302,-4.6302,-4.63,-4.63,-4.63,-4.63,-4.63,-4.63,-4.63,-4.63,-4.63,-4.63,-4.63,-4.63,-4.63,-4.63,-4.63,-4.63,-4.6298,-4.6308,-4.6306,-4.6284,-4.6214,-4.622,-4.6209,-4.6209,-4.6146,-4.6083,-4.6022,-4.5889,-4.5471,-4.4698,-4.4375,-4.3921,-4.3148,-4.2283,-4.1772,-4.1772,-4.1048,-4.0605,-4.0602,-4.0557,-4.0554,-4.061,-4.0546,-4.0504,-4.0504,-4.0496,-4.0496,-4.0496,-4.0496,-4.0496,-2.7207,-2.7258,-2.731,-2.7477,0.0,0.0,-2.6702,-2.6957,-2.7267,0.0,0.0,-3.0312,-3.1187,-3.2014,-3.3074,-3.4677,-3.4928,-3.6103,-3.9493,-4.0028,-4.0287,-4.0935,-4.106,-4.1097,-4.1101,-4.1109,-4.1132,-4.1191,-4.1191,-4.1191,-4.1191,-4.1191,-4.1191,-4.1191,-4.1348,-4.1426,-4.1426,-4.2246,-4.2656,-4.2656,-4.3359,-4.3691,-4.3691,-4.3691,-4.3789,-4.3984,-4.4707,-4.5097,-4.531,-4.6013,-4.6304,-4.6299,-4.6299,-4.6299,-4.6299,-4.6299,-4.6299,-4.6297,-4.6293,-4.6291,-4.6309,-4.6303,-4.63,-4.63,-4.63,-4.63,-4.63,-4.63,-4.63,-4.63,-4.63,-4.63,-4.63,-4.63,-4.63,-4.63,-4.63,-4.63,-4.63,-4.6298,-4.6298,-4.6296,-4.6275,-4.6286,-4.6277,-4.6277,-4.6212,-4.6187,-4.6164,-4.5488,-4.4929,-4.4705,-4.341,-4.2507,-4.2329,-4.1524,-4.1016,-4.1016,-4.0797,-4.0688,-4.0675,-4.0662,-4.0681,-4.0688,-4.0602,-4.0571,-4.058,-4.0531,-4.0496,-4.0496,-4.0496,-4.0496,-2.9125,-2.8613,-2.8043,-2.8488,0.0,0.0,0.0,-2.6388,-2.6223,-2.6625,-2.7402,-2.8277,0.0,0.0,-3.0486,-3.2222,-3.2508,-3.3567,-3.6621,-3.786,-3.8757,-3.9598,-3.9728,-3.9774,-3.9795,-3.9809,-3.9838,-3.9902,-4.0312,-4.0547,-4.0547,-4.0957,-4.1191,-4.1191,-4.1191,-4.1191,-4.1191,-4.1601,-4.1797,-4.1816,-4.2246,-4.2441,-4.2441,-4.2441,-4.2676,-4.3086,-4.3516,-4.3945,-4.4414,-4.5292,-4.5643,-4.5681,-4.6127,-4.6301,-4.6301,-4.6301,-4.6301,-4.6301,-4.6299,-4.6297,-4.6297,-4.6294,-4.6293,-4.6293,-4.6293,-4.6293,-4.6293,-4.6293,-4.6293,-4.6293,-4.6308,-4.6306,-4.6306,-4.6302,-4.63,-4.63,-4.63,-4.63,-4.63,-4.63,-4.63,-4.63,-4.63,-4.6296,-4.6292,-4.6292,-4.6279,-4.6245,-4.6245,-4.543,-4.4678,-4.4203,-4.2972,-4.2023,-4.1586,-4.1126,-4.0849,-4.0849,-4.0787,-4.0751,-4.0807,-4.0779,-4.0756,-4.0757,-4.0726,-4.0681,-4.0646,-4.0624,-4.0569,-4.0496,-4.0496,-4.0496,0.0,0.0,0.0,0.0,0.0,-2.7131,0.0,0.0,0.0,-2.6311,0.0,0.0,0.0,0.0,0.0,0.0,0.0,0.0,0.0,-3.4686,0.0,-3.7704,-3.7893,-3.7929,-3.7966,-3.7993,-3.809,-3.8317,-3.8982,-3.955,-3.9883,-4.0566,-4.1035,-4.1191,-4.1191,-4.1191,-4.1191,-4.1191,-4.1191,-4.1191,-4.1191,-4.1191,-4.1191,-4.1191,-4.1543,-4.2187,-4.2324,-4.2793,-4.3516,-4.4394,-4.4746,-4.4844,-4.5896,-4.6304,-4.6304,-4.6304,-4.6304,-4.6304,-4.6303,-4.6303,-4.6303,-4.6301,-4.6301,-4.6301,-4.6301,-4.6301,-4.6301,-4.6301,-4.6301,-4.6301,-4.6296,-4.6295,-4.6294,-4.6306,-4.6305,-4.6305,-4.6305,-4.6305,-4.6305,-4.6303,-4.6303,-4.6303,-4.6302,-4.63,-4.63,-4.63,-4.6294,-4.6249,-4.6074,-4.5233,-4.434,-4.3465,-4.2598,-4.1779,-4.1081,-4.0972,-4.0933,-4.0933,-4.0872,-4.0854,-4.0915,-4.0878,-4.0839,-4.084,-4.0834,-4.0781,-4.072,-4.0713,-4.0654,-4.0519,-4.0531,-4.0523,0.0,0.0,0.0,0.0,-3.0155,0.0,0.0,0.0,-2.5444,-2.5541,0.0,0.0,0.0,0.0,0.0,0.0,0.0,0.0,-2.9736,-3.005,-3.1626,-3.5538,-3.6068,-3.6093,-3.6116,-3.6159,-3.6522,-3.7291,-3.7513,-3.8279,-3.9823,-3.998,-4.0391,-4.1172,-4.1191,-4.1191,-4.1191,-4.1191,-4.1191,-4.1191,-4.1191,-4.1191,-4.1191,-4.1191,-4.125,-4.1387,-4.209,-4.2461,-4.2617,-4.3496,-4.3848,-4.4004,-4.5664,-4.6308,-4.6308,-4.6308,-4.6308,-4.6308,-4.6307,-4.6306,-4.6306,-4.6303,-4.6301,-4.6301,-4.6301,-4.6301,-4.6301,-4.6301,-4.6301,-4.6301,-4.6301,-4.6301,-4.6301,-4.6301,-4.63,-4.63,-4.63,-4.63,-4.6299,-4.6293,-4.6291,-4.6309,-4.6302,-4.63,-4.63,-4.63,-4.63,-4.6025,-4.5244,-4.4376,-4.3489,-4.2633,-4.1761,-4.1203,-4.1106,-4.1075,-4.1087,-4.1087,-4.1007,-4.0977,-4.1,-4.0977,-4.0976,-4.0975,-4.092,-4.0864,-4.0784,-4.0782,-4.0712,-4.06,-4.0603,-4.058,0.0,0.0,0.0,0.0,0.0,0.0,-2.8101,0.0,-2.5539,0.0,0.0,0.0,0.0,0.0,0.0,0.0,-2.758,0.0,0.0,0.0,-2.959,0.0,0.0,0.0,-3.3543,-3.4086,-3.4554,-3.4968,-3.5961,-3.6869,-3.7596,-3.9082,-4.0078,-4.043,-4.0937,-4.1191,-4.1191,-4.1191,-4.1191,-4.1191,-4.1191,-4.1191,-4.1191,-4.1191,-4.1191,-4.1211,-4.1562,-4.1699,-4.1777,-4.2598,-4.2949,-4.3125,-4.4863,-4.5547,-4.5605,-4.6113,-4.6308,-4.6308,-4.6308,-4.6308,-4.6308,-4.6307,-4.6307,-4.6307,-4.6307,-4.6307,-4.6307,-4.6307,-4.6307,-4.6307,-4.6306,-4.6305,-4.6305,-4.6302,-4.6301,-4.6301,-4.6301,-4.6301,-4.6301,-4.6299,-4.6299,-4.6297,-4.6295,-4.6306,-4.63,-4.63,-4.587,-4.5402,-4.5049,-4.3798,-4.282,-4.2449,-4.1626,-4.1095,-4.1095,-4.1105,-4.1098,-4.1098,-4.1067,-4.1056,-4.1056,-4.1056,-4.1067,-4.1065,-4.1039,-4.0979,-4.0913,-4.0928,-4.0869,-4.0773,-4.0719,-4.0694,-3.7661,0.0,0.0,0.0,0.0,0.0,0.0,0.0,0.0,0.0,0.0,0.0,0.0,0.0,-2.7155,-2.7583,0.0,-2.6558,0.0,0.0,0.0,0.0,0.0,0.0,0.0,-3.1498,-3.2083,-3.2615,-3.3854,-3.4985,-3.5952,-3.8026,-3.9414,-3.9883,-4.0742,-4.1191,-4.1191,-4.1191,-4.1191,-4.1191,-4.1191,-4.1191,-4.1191,-4.1191,-4.1191,-4.1191,-4.1191,-4.1191,-4.125,-4.1836,-4.207,-4.2246,-4.3965,-4.4648,-4.4785,-4.5898,-4.6308,-4.6308,-4.6308,-4.6308,-4.6308,-4.6308,-4.6308,-4.6308,-4.6308,-4.6308,-4.6308,-4.6308,-4.6308,-4.6308,-4.6308,-4.6307,-4.6307,-4.6305,-4.6305,-4.6305,-4.6305,-4.6305,-4.6305,-4.6304,-4.6303,-4.6303,-4.6301,-4.6295,-4.6308,-4.6308,-4.5563,-4.4917,-4.4663,-4.3334,-4.2318,-4.2064,-4.1479,-4.1109,-4.1109,-4.1103,-4.1097,-4.1097,-4.1109,-4.1105,-4.1105,-4.1105,-4.11,-4.1108,-4.1108,-4.1075,-4.1029,-4.1029,-4.0993,-4.0941,-4.0873,-4.0787,0.0,0.0,0.0,-3.4609,0.0,0.0,0.0,0.0,-2.681,0.0,0.0,0.0,0.0,-2.787,-2.7629,-2.6857,-2.6008,0.0,0.0,0.0,0.0,0.0,0.0,0.0,0.0,-2.8249,-2.8964,0.0,-3.0899,-3.2431,-3.5821,-3.689,-3.8163,-3.9842,-4.0742,-4.1191,-4.1191,-4.1191,-4.1191,-4.1191,-4.1191,-4.1191,-4.1191,-4.1191,-4.1191,-4.1191,-4.1191,-4.1191,-4.1191,-4.123,-4.123,-4.1406,-4.3086,-4.373,-4.3945,-4.5664,-4.6308,-4.6308,-4.6308,-4.6308,-4.6308,-4.6308,-4.6308,-4.6308,-4.6308,-4.6308,-4.6308,-4.6308,-4.6308,-4.6308,-4.6308,-4.6308,-4.6308,-4.6308,-4.6308,-4.6308,-4.6308,-4.6308,-4.6308,-4.6307,-4.6307,-4.6306,-4.6302,-4.6301,-4.6301,-4.6301,-4.5554,-4.4692,-4.3853,-4.2967,-4.2084,-4.1226,-4.1129,-4.1109,-4.1109,-4.1109,-4.1108,-4.1108,-4.1108,-4.1108,-4.1108,-4.1108,-4.1103,-4.1092,-4.1092,-4.1105,-4.1091,-4.1091,-4.1106,-4.1092,-4.096,-4.0869,-4.0354,-3.9065,-3.7296,-3.6142,-3.3949,-3.1698,0.0,0.0,0.0,0.0,0.0,0.0,0.0,-2.9503,-2.8472,-2.7624,-2.6799,-2.6066,0.0,0.0,0.0,0.0,0.0,0.0,0.0,0.0,0.0,-2.8945,-3.0066,0.0,-3.3326,-3.5335,-3.7239,-3.8981,-3.9882,-4.0625,-4.1191,-4.1191,-4.1191,-4.1191,-4.1191,-4.1191,-4.1191,-4.1191,-4.1191,-4.1191,-4.1191,-4.1172,-4.1132,-4.1132,-4.1131,-4.1247,-4.238,-4.3199,-4.3919,-4.5662,-4.6308,-4.6307,-4.6306,-4.6306,-4.6306,-4.6307,-4.6308,-4.6308,-4.6308,-4.6308,-4.6308,-4.6308,-4.6308,-4.6308,-4.6308,-4.6308,-4.6308,-4.6308,-4.6308,-4.6308,-4.6308,-4.6308,-4.6308,-4.6308,-4.6308,-4.6308,-4.6308,-4.6308,-4.6307,-4.6302,-4.5069,-4.4033,-4.3741,-4.2431,-4.1434,-4.1122,-4.1102,-4.1102,-4.1102,-4.1098,-4.1095,-4.1095,-4.1091,-4.1109,-4.1109,-4.1109,-4.1108,-4.1104,-4.1104,-4.1103,-4.1099,-4.1099,-4.1094,-4.11,-4.1059,-4.1,-4.2104,-4.0835,-3.9065,-3.7911,-3.5718,-3.3468,-3.2064,-3.0448,-2.964,0.0,0.0,0.0,0.0,-3.0554,-2.925,-2.8096,-2.7195,-2.6371,0.0,-2.5406,0.0,0.0,0.0,0.0,0.0,0.0,-2.7302,-2.7608,-2.8976,0.0,0.0,-3.4255,-3.6438,-3.85,-3.9406,-4.0289,-4.115,-4.1151,-4.1151,-4.1151,-4.1152,-4.1152,-4.1152,-4.1152,-4.1152,-4.1152,-4.1151,-4.1149,-4.1108,-4.1105,-4.1101,-4.1176,-4.2034,-4.2908,-4.384,-4.5304,-4.6029,-4.6261,-4.6258,-4.6257,-4.6257,-4.6261,-4.6283,-4.6304,-4.6306,-4.6307,-4.6308,-4.6308,-4.6308,-4.6308,-4.6308,-4.6308,-4.6308,-4.6308,-4.6308,-4.6308,-4.6308,-4.6308,-4.6308,-4.6308,-4.6308,-4.6308,-4.6308,-4.6308,-4.6308,-4.6306,-4.482,-4.3706,-4.3706,-4.2182,-4.1107,-4.1107,-4.1107,-4.1107,-4.1107,-4.1104,-4.1102,-4.1102,-4.1099,-4.1097,-4.1097,-4.1097,-4.1095,-4.1093,-4.1093,-4.1091,-4.1109,-4.1109,-4.1106,-4.1099,-4.1099,-4.1085]},{"header":{"parameterUnit":"m.s-1","parameterCategory":1,"la1":30.6,"la2":29.2853,"lo1":-89.7004,"lo2":-87.6739,"dy":0.0162,"dx":0.0183,"nx":112,"ny":82,"refTime":"2024-07-05T00:00:00:Z","depth":0,"parameterNumber":3,"parameterNumberName":"V-component_of_WINDS"},"data":[0.0,0.0,0.0,0.0,0.0,0.0,0.0,0.0,0.0,0.0,0.0,0.0,0.0,0.0,0.0,0.0,0.0,0.0,0.0,0.0,0.0,0.0,0.0,0.0,0.0,0.0,0.0,0.0,0.0,0.0,0.0,0.0,0.0,0.0,0.0,0.0,0.0,0.0,0.0,0.0,0.0,0.0,0.0,0.0,0.0,0.0,0.0,0.0,0.0,0.0,0.0,0.0,0.0,0.0,0.0,0.0,0.0,0.0,0.0,0.0,0.0,0.0,0.0,0.0,0.0,0.0,0.0,0.0,0.0,0.0,0.0,0.0,0.0,0.0,0.0,0.0,0.0,0.0,0.0,0.0,0.0,0.0,0.0,0.0,0.0,0.0,0.0,0.0,0.0,0.0,-1.0393,-1.1998,-1.3619,-1.4627,-1.4753,-1.4239,-1.3445,-1.2393,0.0,0.0,0.0,0.0,0.0,0.0,0.0,0.0,0.0,0.0,0.0,0.0,0.0,0.0,0.0,0.0,0.0,0.0,0.0,0.0,0.0,0.0,0.0,0.0,0.0,0.0,0.0,0.0,0.0,0.0,0.0,0.0,0.0,0.0,0.0,0.0,0.0,0.0,0.0,0.0,0.0,0.0,0.0,0.0,0.0,0.0,0.0,0.0,0.0,0.0,0.0,0.0,0.0,0.0,0.0,0.0,0.0,0.0,0.0,0.0,0.0,0.0,0.0,0.0,0.0,0.0,0.0,0.0,0.0,0.0,0.0,0.0,0.0,0.0,0.0,0.0,0.0,0.0,0.0,0.0,0.0,0.0,0.0,0.0,0.0,0.0,0.0,0.0,0.0,0.0,0.0,0.0,0.0,0.0,0.0,0.0,0.0,0.0,0.0,0.0,0.0,0.0,0.0,0.0,-1.0851,-1.2719,-1.3843,-1.4477,-1.4627,-1.3871,-1.3004,-1.2043,0.0,0.0,0.0,0.0,0.0,0.0,0.0,0.0,0.0,0.0,0.0,0.0,0.0,0.0,0.0,0.0,0.0,0.0,0.0,0.0,0.0,0.0,0.0,0.0,0.0,0.0,0.0,0.0,0.0,0.0,0.0,0.0,0.0,0.0,0.0,0.0,0.0,0.0,0.0,0.0,0.0,0.0,0.0,0.0,0.0,0.0,0.0,0.0,0.0,0.0,0.0,0.0,0.0,0.0,0.0,0.0,0.0,0.0,0.0,0.0,0.0,0.0,0.0,0.0,0.0,0.0,0.0,0.0,0.0,0.0,0.0,0.0,0.0,0.0,0.0,0.0,0.0,0.0,0.0,0.0,0.0,0.0,0.0,0.0,0.0,0.0,0.0,0.0,0.0,0.0,0.0,0.0,0.0,0.0,0.0,0.0,0.0,0.0,0.0,0.0,0.0,0.0,0.0,-1.0487,-1.1882,-1.3336,-1.3905,-1.4244,-1.4373,-1.3839,-1.3088,-1.2075,-1.0708,0.0,0.0,0.0,0.0,0.0,0.0,0.0,0.0,0.0,0.0,0.0,0.0,0.0,0.0,0.0,0.0,0.0,0.0,0.0,0.0,0.0,0.0,0.0,0.0,0.0,0.0,0.0,0.0,0.0,0.0,0.0,0.0,0.0,0.0,0.0,0.0,0.0,0.0,0.0,0.0,0.0,0.0,0.0,0.0,0.0,0.0,0.0,0.0,0.0,0.0,0.0,0.0,0.0,0.0,0.0,0.0,0.0,0.0,0.0,0.0,0.0,0.0,0.0,0.0,0.0,0.0,0.0,0.0,0.0,0.0,0.0,0.0,0.0,0.0,0.0,0.0,0.0,0.0,0.0,0.0,0.0,0.0,0.0,0.0,0.0,0.0,0.0,0.0,0.0,0.0,0.0,0.0,0.0,0.0,0.0,0.0,0.0,0.0,0.0,0.0,0.0,0.0,-1.1726,-1.2683,-1.3692,-1.3915,-1.4057,-1.4199,-1.3759,-1.3032,-1.1994,-1.0429,0.0,0.0,0.0,0.0,0.0,0.0,0.0,0.0,0.0,0.0,0.0,0.0,0.0,0.0,0.0,0.0,0.0,0.0,0.0,0.0,0.0,0.0,0.0,0.0,0.0,0.0,0.0,0.0,0.0,0.0,0.0,0.0,0.0,0.0,0.0,0.0,0.0,0.0,0.0,0.0,0.0,0.0,0.0,0.0,0.0,0.0,0.0,0.0,0.0,0.0,0.0,0.0,0.0,0.0,0.0,0.0,0.0,0.0,0.0,0.0,0.0,0.0,0.0,0.0,0.0,0.0,0.0,0.0,0.0,0.0,0.0,0.0,0.0,0.0,0.0,0.0,0.0,0.0,0.0,0.0,0.0,0.0,0.0,0.0,0.0,0.0,0.0,0.0,0.0,0.0,0.0,0.0,0.0,0.0,0.0,0.0,0.0,0.0,0.0,0.0,0.0,0.0,-1.1716,-1.2683,-1.3692,-1.3915,-1.4057,-1.4199,-1.3368,-1.2459,-1.1516,-0.9537,0.0,0.0,0.0,0.0,0.0,0.0,0.0,0.0,0.0,0.0,0.0,0.0,0.0,0.0,0.0,0.0,0.0,0.0,0.0,0.0,0.0,0.0,0.0,0.0,0.0,0.0,0.0,0.0,0.0,0.0,0.0,0.0,0.0,0.0,0.0,0.0,0.0,0.0,0.0,0.0,0.0,0.0,0.0,0.0,0.0,0.0,0.0,0.0,0.0,0.0,0.0,0.0,0.0,0.0,0.0,0.0,0.0,0.0,0.0,0.0,0.0,0.0,0.0,0.0,0.0,0.0,0.0,0.0,0.0,0.0,0.0,0.0,0.0,0.0,0.0,0.0,0.0,0.0,0.0,0.0,0.0,0.0,0.0,0.0,0.0,0.0,0.0,0.0,0.0,0.0,0.0,0.0,0.0,0.0,0.0,0.0,0.0,0.0,0.0,0.0,0.0,0.0,-1.1716,-1.2683,0.0,-1.3915,-1.4057,-1.4199,-1.3346,-1.2355,-1.1351,0.0,0.0,0.0,0.0,0.0,0.0,0.0,0.0,0.0,0.0,0.0,0.0,0.0,0.0,0.0,0.0,0.0,0.0,0.0,0.0,0.0,0.0,0.0,0.0,0.0,0.0,0.0,0.0,0.0,0.0,0.0,0.0,0.0,0.0,0.0,0.0,0.0,0.0,0.0,0.0,0.0,0.0,0.0,0.0,0.0,0.0,0.0,0.0,0.0,0.0,0.0,0.0,0.0,0.0,0.0,0.0,0.0,0.0,0.0,0.0,0.0,0.0,0.0,0.0,0.0,0.0,0.0,0.0,0.0,0.0,0.0,0.0,0.0,0.0,0.0,0.0,0.0,0.0,0.0,0.0,0.0,0.0,0.0,0.0,0.0,0.0,0.0,0.0,0.0,0.0,0.0,0.0,0.0,0.0,0.0,0.0,0.0,0.0,0.0,0.0,0.0,0.0,-1.0681,-1.1726,-1.2705,0.0,-1.3949,-1.4057,-1.4199,-1.328,-1.2253,-1.12,0.0,0.0,0.0,0.0,0.0,0.0,0.0,0.0,0.0,0.0,0.0,0.0,0.0,0.0,0.0,0.0,0.0,0.0,0.0,0.0,0.0,0.0,0.0,0.0,0.0,0.0,0.0,0.0,0.0,0.0,0.0,0.0,0.0,0.0,0.0,0.0,0.0,0.0,0.0,0.0,0.0,0.0,0.0,0.0,0.0,0.0,0.0,0.0,0.0,0.0,0.0,0.0,0.0,0.0,0.0,0.0,0.0,0.0,0.0,0.0,0.0,0.0,0.0,0.0,0.0,0.0,0.0,0.0,0.0,0.0,0.0,0.0,0.0,0.0,0.0,0.0,0.0,0.0,0.0,0.0,0.0,0.0,0.0,0.0,0.0,0.0,0.0,0.0,0.0,0.0,0.0,0.0,0.0,0.0,0.0,0.0,0.0,0.0,0.0,0.0,0.0,0.0,-1.0669,-1.1716,-1.2748,-1.3878,-1.3997,-1.4057,-1.4199,-1.3137,-1.2068,0.0,0.0,0.0,0.0,0.0,0.0,0.0,0.0,0.0,0.0,0.0,0.0,0.0,0.0,0.0,0.0,0.0,0.0,0.0,0.0,0.0,0.0,0.0,0.0,0.0,0.0,0.0,0.0,0.0,0.0,0.0,0.0,0.0,0.0,0.0,0.0,0.0,0.0,0.0,0.0,0.0,0.0,0.0,0.0,0.0,0.0,0.0,0.0,0.0,0.0,0.0,0.0,0.0,0.0,0.0,0.0,0.0,0.0,0.0,0.0,0.0,0.0,0.0,0.0,0.0,0.0,0.0,0.0,0.0,0.0,0.0,0.0,0.0,0.0,0.0,0.0,0.0,0.0,0.0,0.0,0.0,0.0,0.0,0.0,0.0,0.0,0.0,0.0,0.0,0.0,0.0,0.0,0.0,0.0,0.0,0.0,0.0,0.0,0.0,0.0,0.0,0.0,0.0,-1.0681,-1.1726,-1.2748,-1.3878,-1.3915,-1.3962,-1.4176,-1.3071,-1.1944,-1.1,0.0,0.0,0.0,0.0,0.0,0.0,0.0,0.0,0.0,0.0,0.0,0.0,0.0,0.0,0.0,0.0,0.0,0.0,0.0,0.0,0.0,0.0,0.0,0.0,0.0,0.0,0.0,0.0,0.0,0.0,0.0,0.0,0.0,0.0,0.0,0.0,0.0,0.0,0.0,0.0,0.0,0.0,0.0,0.0,0.0,0.0,0.0,0.0,0.0,0.0,0.0,0.0,0.0,0.0,0.0,0.0,0.0,0.0,0.0,0.0,0.0,0.0,0.0,0.0,0.0,0.0,0.0,0.0,0.0,0.0,0.0,0.0,0.0,0.0,0.0,0.0,0.0,0.0,0.0,0.0,0.0,0.0,0.0,0.0,0.0,0.0,0.0,0.0,0.0,0.0,0.0,0.0,0.0,0.0,0.0,0.0,0.0,0.0,0.0,0.0,0.0,0.0,-1.0673,-1.1726,-1.2748,-1.3878,-1.3868,-1.3892,-1.4093,-1.3106,-1.2087,-1.1122,0.0,0.0,0.0,0.0,0.0,0.0,0.0,0.0,0.0,0.0,0.0,0.0,0.0,0.0,0.0,0.0,0.0,0.0,0.0,0.0,0.0,0.0,0.0,0.0,0.0,0.0,0.0,0.0,0.0,0.0,0.0,0.0,0.0,0.0,0.0,0.0,0.0,0.0,0.0,0.0,0.0,0.0,0.0,0.0,0.0,0.0,0.0,0.0,0.0,0.0,0.0,0.0,0.0,0.0,0.0,0.0,0.0,0.0,0.0,0.0,0.0,0.0,0.0,0.0,0.0,0.0,0.0,0.0,0.0,0.0,0.0,0.0,0.0,0.0,0.0,0.0,0.0,0.0,0.0,0.0,0.0,0.0,0.0,0.0,0.0,0.0,0.0,0.0,0.0,0.0,0.0,0.0,0.0,0.0,0.0,0.0,0.0,0.0,0.0,0.0,0.0,0.0,-1.0735,-1.1768,-1.2768,-1.3867,-1.3868,-1.3844,-1.3939,-1.323,-1.2357,-1.1348,0.0,0.0,0.0,0.0,0.0,0.0,0.0,0.0,0.0,0.0,0.0,0.0,0.0,0.0,0.0,0.0,0.0,0.0,0.0,0.0,0.0,0.0,0.0,0.0,0.0,0.0,0.0,0.0,0.0,0.0,0.0,0.0,0.0,0.0,0.0,0.0,0.0,0.0,0.0,0.0,0.0,0.0,0.0,0.0,0.0,0.0,0.0,0.0,0.0,0.0,0.0,0.0,0.0,0.0,0.0,0.0,0.0,0.0,0.0,0.0,-0.6014,0.0,0.0,0.0,0.0,0.0,0.0,0.0,0.0,0.0,0.0,0.0,0.0,0.0,0.0,0.0,0.0,0.0,0.0,0.0,0.0,0.0,0.0,0.0,0.0,0.0,0.0,0.0,0.0,0.0,0.0,0.0,0.0,0.0,0.0,0.0,0.0,0.0,0.0,0.0,0.0,0.0,-1.127,-1.2223,-1.3045,-1.3758,-1.3716,-1.3644,-1.3692,-1.3035,-1.2214,-1.1204,-1.0095,0.0,0.0,0.0,0.0,0.0,0.0,0.0,0.0,0.0,0.0,0.0,0.0,0.0,0.0,0.0,0.0,0.0,0.0,0.0,0.0,0.0,0.0,0.0,0.0,0.0,0.0,0.0,0.0,0.0,0.0,0.0,0.0,0.0,0.0,0.0,0.0,0.0,0.0,0.0,0.0,0.0,0.0,0.0,0.0,0.0,0.0,0.0,0.0,0.0,0.0,0.0,0.0,0.0,0.0,0.0,0.0,0.0,0.0,0.0,0.0,-0.6709,0.0,0.0,0.0,0.0,0.0,0.0,0.0,0.0,0.0,0.0,0.0,0.0,0.0,0.0,0.0,0.0,0.0,0.0,0.0,0.0,0.0,0.0,0.0,0.0,0.0,0.0,0.0,0.0,0.0,0.0,0.0,0.0,0.0,0.0,0.0,0.0,0.0,0.0,0.0,0.0,-1.1446,-1.2565,-1.3468,-1.408,-1.4025,-1.3952,-1.3952,-1.328,-1.2571,-1.1768,-1.098,0.0,0.0,0.0,0.0,0.0,0.0,0.0,0.0,0.0,0.0,0.0,0.0,0.0,0.0,0.0,0.0,0.0,0.0,0.0,0.0,0.0,0.0,0.0,0.0,0.0,0.0,0.0,0.0,0.0,0.0,0.0,0.0,0.0,0.0,0.0,0.0,0.0,0.0,0.0,0.0,0.0,0.0,0.0,0.0,0.0,0.0,0.0,0.0,0.0,0.0,0.0,0.0,0.0,-0.9908,-0.99,-0.9958,-0.9945,-0.9945,-0.9892,-0.8846,-0.826,-0.7997,-0.7618,0.0,0.0,0.0,0.0,0.0,0.0,0.0,0.0,0.0,0.0,0.0,0.0,0.0,0.0,0.0,0.0,0.0,0.0,0.0,0.0,0.0,0.0,-0.9603,-1.0121,-1.1626,-1.2609,-1.1428,0.0,0.0,0.0,0.0,0.0,0.0,0.0,0.0,0.0,0.0,0.0,-1.182,-1.2989,-1.3945,-1.4487,-1.4453,-1.4346,-1.4214,-1.3634,-1.3022,-1.2398,-1.1942,-1.1154,0.0,0.0,0.0,0.0,0.0,0.0,0.0,0.0,0.0,0.0,0.0,0.0,0.0,0.0,0.0,0.0,0.0,0.0,0.0,0.0,0.0,0.0,0.0,0.0,0.0,0.0,0.0,0.0,0.0,0.0,0.0,0.0,-0.504,-0.5514,0.0,0.0,0.0,0.0,0.0,0.0,0.0,0.0,0.0,0.0,0.0,0.0,0.0,-1.0689,-1.1455,-1.1574,-1.1574,-1.1519,-1.1681,-1.1601,-1.1335,-1.1342,-1.1342,-1.1327,-1.1158,0.0,-0.9296,-0.8736,0.0,0.0,0.0,0.0,0.0,0.0,0.0,0.0,0.0,0.0,0.0,0.0,0.0,0.0,0.0,0.0,0.0,0.0,0.0,0.0,0.0,0.0,-1.0848,-1.1821,-1.3001,-1.3959,-1.417,-1.2861,-1.1652,-1.1726,-1.0336,-0.9156,0.0,0.0,0.0,0.0,0.0,0.0,-1.3176,-1.3859,-1.4346,-1.4722,-1.4737,-1.448,-1.3825,-1.3685,-1.3224,-1.2299,-1.2145,-1.1697,-1.0761,-0.9903,0.0,0.0,0.0,0.0,0.0,0.0,0.0,0.0,0.0,0.0,0.0,0.0,0.0,0.0,0.0,0.0,0.0,0.0,0.0,0.0,0.0,0.0,0.0,0.0,0.0,0.0,0.0,0.0,0.0,-0.5139,-0.5964,-0.6473,-0.6735,-0.687,0.0,0.0,0.0,0.0,0.0,0.0,0.0,0.0,0.0,-1.0943,-1.1491,-1.2117,-1.2865,-1.2854,-1.2783,-1.2632,-1.2658,-1.2468,-1.2102,-1.2102,-1.2102,-1.2102,-1.2102,-1.178,-1.1135,-1.017,-0.9753,-0.9665,0.0,0.0,0.0,0.0,-0.7824,-0.7983,-0.7909,-0.7986,-0.8084,-0.7958,0.0,0.0,0.0,0.0,0.0,0.0,0.0,-0.7969,-0.9029,-1.0689,-1.2333,-1.3259,-1.4544,-1.5596,-1.5743,-1.5077,-1.4245,-1.3487,-1.2098,-1.1045,-1.1074,0.0,0.0,0.0,0.0,-1.2937,-1.3514,-1.4358,-1.4983,-1.5124,-1.5073,-1.4868,-1.4463,-1.3971,-1.3475,-1.2969,-1.2725,-1.2314,-1.1658,-1.1055,-1.0205,0.0,0.0,0.0,0.0,0.0,0.0,0.0,0.0,0.0,0.0,0.0,0.0,0.0,0.0,0.0,0.0,0.0,0.0,0.0,0.0,0.0,0.0,0.0,0.0,0.0,0.0,0.0,0.0,-0.6125,-0.6925,-0.7618,-0.7938,-0.8121,0.0,0.0,0.0,0.0,0.0,0.0,-0.9776,-1.0659,-1.1443,-1.2162,-1.2712,-1.3316,-1.3966,-1.3933,-1.3825,-1.3723,-1.3584,-1.3339,-1.3023,-1.3023,-1.3023,-1.3023,-1.3023,-1.3023,-1.2914,-1.1531,-1.096,-1.088,-1.0117,-0.9816,-0.9779,-0.942,-0.9452,-0.9662,-0.9616,-0.9721,-0.9887,-0.9887,-0.9699,-0.9392,-0.9069,0.0,0.0,0.0,0.0,-0.9582,-1.0568,-1.2044,-1.3488,-1.4357,-1.5613,-1.658,-1.6606,-1.6597,-1.6226,-1.4899,-1.3665,-1.2805,-1.2805,0.0,0.0,0.0,0.0,-1.3879,-1.4117,-1.487,-1.5426,-1.552,-1.5411,-1.5231,-1.4972,-1.4235,-1.3726,-1.3516,-1.3115,-1.2734,-1.2389,-1.1973,-1.1252,-1.0127,0.0,0.0,0.0,0.0,0.0,0.0,0.0,0.0,0.0,0.0,0.0,0.0,0.0,0.0,0.0,0.0,0.0,0.0,0.0,0.0,0.0,0.0,0.0,0.0,0.0,0.0,0.0,0.0,0.0,-0.8987,-0.9112,0.0,0.0,0.0,0.0,-0.9695,-1.0329,-1.076,-1.091,-1.1981,-1.2695,-1.2933,-1.3707,-1.4311,-1.4732,-1.4851,-1.493,-1.4919,-1.4703,-1.4525,-1.4408,-1.4408,-1.4408,-1.4408,-1.4408,-1.4408,-1.4284,-1.2594,-1.193,-1.1894,-1.1613,-1.1474,-1.1474,-1.1452,-1.1459,-1.1467,-1.1474,-1.1481,-1.1465,-1.1465,-1.1276,-1.0916,-1.0587,-1.0455,0.0,0.0,-1.0694,-1.1544,-1.2072,-1.2975,-1.4024,-1.5094,-1.579,-1.6341,-1.6796,-1.7036,-1.686,-1.5832,-1.4852,-1.42,-1.42,0.0,-1.3662,-1.4107,-1.4221,-1.4593,-1.5473,-1.5482,-1.552,-1.5833,-1.5758,-1.5445,-1.4852,-1.4365,-1.3899,-1.3525,-1.3115,-1.2895,-1.2876,-1.2432,-1.1963,-1.1518,-1.0215,0.0,0.0,0.0,0.0,0.0,0.0,0.0,0.0,0.0,0.0,0.0,0.0,0.0,0.0,0.0,0.0,0.0,0.0,0.0,0.0,0.0,0.0,0.0,0.0,0.0,0.0,0.0,0.0,-0.9394,-0.9826,0.0,-1.055,-1.0565,-1.071,-1.1063,-1.1518,-1.1924,-1.2277,-1.307,-1.3672,-1.3965,-1.4433,-1.4763,-1.4924,-1.4972,-1.4942,-1.4808,-1.473,-1.4621,-1.4511,-1.4511,-1.4511,-1.4511,-1.4511,-1.4511,-1.446,-1.388,-1.3477,-1.3258,-1.2928,-1.2804,-1.2816,-1.257,-1.2497,-1.246,-1.2248,-1.2175,-1.2175,-1.2175,-1.2102,-1.1948,-1.1587,-1.1485,-1.1463,-1.1346,-1.1671,-1.2206,-1.279,-1.3555,-1.4404,-1.5257,-1.6061,-1.6697,-1.6908,-1.7206,-1.7296,-1.6759,-1.5957,-1.5263,-1.5038,-1.4645,-1.445,-1.4702,-1.4892,-1.5126,-1.5454,-1.5566,-1.5637,-1.5749,-1.5604,-1.5419,-1.5205,-1.4513,-1.4046,-1.389,-1.3262,-1.2905,-1.2905,-1.2734,-1.2441,-1.2002,-1.0977,-1.002,0.0,0.0,0.0,0.0,0.0,0.0,0.0,0.0,0.0,0.0,0.0,0.0,0.0,0.0,0.0,0.0,0.0,0.0,0.0,0.0,0.0,0.0,0.0,0.0,0.0,0.0,-0.9831,-1.0221,-1.0748,-1.1202,-1.1531,-1.1663,-1.188,-1.2191,-1.2621,-1.2996,-1.3324,-1.3856,-1.4261,-1.4486,-1.4793,-1.4965,-1.4965,-1.5183,-1.5222,-1.5116,-1.522,-1.5231,-1.5149,-1.5006,-1.5013,-1.5142,-1.4889,-1.4853,-1.4948,-1.4838,-1.467,-1.4428,-1.3989,-1.3821,-1.3799,-1.3579,-1.3499,-1.347,-1.325,-1.3177,-1.3177,-1.3177,-1.3177,-1.314,-1.2921,-1.2855,-1.2833,-1.2723,-1.2831,-1.305,-1.3379,-1.3983,-1.4601,-1.5182,-1.5982,-1.6688,-1.6837,-1.7226,-1.7484,-1.7214,-1.6706,-1.6266,-1.606,-1.5804,-1.5578,-1.5519,-1.566,-1.5725,-1.5583,-1.5666,-1.5701,-1.5701,-1.5507,-1.541,-1.541,-1.4601,-1.4104,-1.4104,-1.335,-1.2905,-1.2905,-1.2905,-1.2744,-1.2428,-1.1414,-1.0468,-0.9592,0.0,0.0,0.0,0.0,0.0,0.0,0.0,0.0,0.0,0.0,0.0,0.0,0.0,0.0,0.0,0.0,0.0,0.0,0.0,0.0,0.0,0.0,0.0,-0.8965,-0.9955,-1.0887,-1.1533,-1.1867,-1.2156,-1.2485,-1.2848,-1.3045,-1.3053,-1.3638,-1.4004,-1.4049,-1.435,-1.4533,-1.4555,-1.4816,-1.4936,-1.4944,-1.5571,-1.5928,-1.5935,-1.6228,-1.6411,-1.6404,-1.6067,-1.6089,-1.6382,-1.5723,-1.5635,-1.5906,-1.5592,-1.5411,-1.5338,-1.4743,-1.4533,-1.4533,-1.4526,-1.4518,-1.4511,-1.4511,-1.4511,-1.4511,-1.4511,-1.4511,-1.4511,-1.4511,-1.4511,-1.4445,-1.4122,-1.4155,-1.4231,-1.391,-1.4212,-1.4673,-1.4872,-1.5505,-1.6184,-1.6525,-1.7047,-1.7415,-1.7163,-1.717,-1.7199,-1.721,-1.72,-1.705,-1.6588,-1.6528,0.0,-1.5975,-1.5789,-1.5692,-1.5692,-1.5517,-1.541,-1.541,-1.4611,-1.4124,-1.4104,-1.3359,-1.2915,-1.2905,-1.2905,-1.2895,-1.2886,-1.1602,-1.0507,-0.9631,0.0,0.0,0.0,0.0,0.0,0.0,0.0,0.0,0.0,0.0,0.0,0.0,0.0,0.0,0.0,0.0,0.0,0.0,0.0,0.0,0.0,-0.8644,-0.9602,-0.971,-1.0653,-1.1474,-1.186,-1.2368,-1.287,-1.3192,-1.3521,-1.3814,-1.4048,-1.4269,-1.4435,-1.4623,-1.4725,-1.5028,-1.5504,-1.5599,-1.5752,-1.5972,-1.6155,-1.6243,-1.6243,-1.6375,-1.6411,-1.6411,-1.6279,-1.6287,-1.6404,-1.6228,-1.6162,-1.6279,-1.6148,-1.5979,-1.5695,-1.5328,-1.5167,-1.5138,-1.4863,-1.467,-1.4511,-1.4511,-1.4511,-1.4511,-1.4511,-1.4511,-1.4511,-1.4511,-1.4511,-1.4489,-1.4401,-1.4418,-1.4434,-1.4338,-1.4615,-1.5025,-1.5215,-1.5539,-1.5965,-1.648,-1.6714,-1.6966,-1.7309,-1.749,-1.7441,-1.7111,-1.7034,-1.7025,-1.7009,-1.6917,0.0,-1.6726,-1.6276,-1.5979,-1.5979,-1.5635,-1.541,-1.541,-1.4912,-1.4473,-1.4124,-1.3633,-1.3203,-1.2915,-1.2905,-1.2734,-1.2389,-1.2028,-1.1414,0.0,0.0,0.0,0.0,0.0,0.0,0.0,0.0,0.0,0.0,0.0,0.0,0.0,0.0,0.0,0.0,0.0,0.0,0.0,0.0,0.0,0.0,-1.0126,-1.1126,-1.143,-1.1981,-1.2438,-1.2621,-1.3221,-1.3697,-1.3887,-1.4194,-1.4465,-1.4655,-1.4918,-1.5153,-1.5301,-1.5467,-1.5709,-1.6096,-1.6104,-1.6191,-1.6411,-1.6551,-1.6617,-1.6617,-1.6704,-1.6769,-1.6762,-1.6675,-1.669,-1.6755,-1.6529,-1.6492,-1.6609,-1.647,-1.6309,-1.6074,0.0,0.0,0.0,0.0,-1.4988,-1.4874,-1.4874,-1.4874,-1.4874,-1.4874,-1.4874,-1.4874,-1.4874,-1.4874,-1.4845,-1.4706,-1.467,-1.464,-1.454,-1.4738,-1.4963,-1.508,-1.5386,-1.5793,-1.6204,-1.6458,-1.6758,-1.7226,-1.7426,0.0,-1.7334,-1.7354,-1.7402,-1.7288,-1.7226,-1.7093,-1.6906,-1.6566,-1.63,-1.6114,-1.587,-1.5615,-1.543,-1.5029,0.0,0.0,0.0,-1.332,-1.2925,-1.2905,0.0,0.0,0.0,0.0,0.0,0.0,0.0,0.0,-0.9863,-1.0264,0.0,0.0,0.0,0.0,0.0,0.0,0.0,0.0,0.0,0.0,0.0,0.0,0.0,0.0,0.0,0.0,-1.1565,-1.2674,-1.3462,-1.3609,-1.3645,-1.3609,-1.415,-1.4562,-1.4562,-1.4845,-1.5009,-1.5009,-1.5621,-1.5965,-1.5965,0.0,0.0,0.0,0.0,-1.6485,-1.6521,-1.6807,-1.6954,-1.6954,-1.7194,-1.7279,-1.7271,-1.7033,-1.7062,-1.725,-1.6726,-1.669,-1.6932,-1.6639,-1.6499,-1.6433,-1.6089,-1.5789,-1.5491,-1.5491,-1.5469,-1.5447,-1.5447,0.0,0.0,-1.5389,-1.5389,-1.5389,-1.5389,-1.5389,-1.533,-1.5039,-1.4958,-1.4893,-1.4655,-1.4692,-1.4803,-1.4803,-1.5203,-1.5676,-1.5891,-1.625,-1.6616,-1.6963,-1.7096,-1.7257,-1.7545,-1.7794,-1.7847,-1.751,-1.7484,-1.7314,-1.6892,-1.6804,-1.665,-1.629,0.0,0.0,-1.5518,-1.5098,-1.4834,-1.4785,-1.4023,-1.3408,-1.3037,-1.3052,-1.3052,-1.3052,-1.2623,-1.2418,-1.2418,-1.2074,-1.2074,-1.2398,-1.1521,-1.155,0.0,0.0,0.0,0.0,0.0,0.0,0.0,0.0,0.0,0.0,0.0,0.0,0.0,0.0,0.0,-1.1488,-1.2465,-1.3222,-1.3836,-1.4333,-1.4567,-1.435,-1.4618,-1.4812,-1.4812,-1.5338,-1.5731,-1.5731,-1.6074,-1.6279,-1.6279,-1.6382,-1.6536,-1.68,-1.6807,-1.6932,-1.7143,-1.7208,-1.7238,-1.7238,0.0,0.0,-1.7279,-1.7267,-1.7267,-1.7271,-1.7194,-1.7179,-1.723,-1.7165,-1.6989,-1.6778,-1.6448,-1.6243,-1.6191,-1.6191,-1.603,-1.5783,-1.5783,-1.565,-1.5389,-1.5389,-1.5389,-1.5389,-1.5389,-1.5389,0.0,-1.5309,-1.5294,-1.5279,-1.5221,-1.5356,-1.5513,-1.5513,-1.5554,-1.5683,-1.6063,-1.6095,-1.6133,-1.6388,-1.6739,-1.6991,-1.7024,-1.7442,-1.7789,-1.7867,-1.7891,-1.7861,-1.7773,-1.7471,-1.7227,-1.7171,-1.6515,-1.6056,-1.5977,-1.5537,-1.5146,-1.4805,-1.4297,-1.3948,-1.387,-1.386,-1.386,-1.386,-1.3782,-1.3734,-1.3734,-1.3656,-1.3656,-1.3724,-1.29,-1.2773,0.0,0.0,0.0,0.0,0.0,0.0,0.0,0.0,0.0,0.0,0.0,-0.7681,-0.9048,0.0,-1.1319,-1.2466,-1.343,-1.4159,-1.4397,-1.4842,-1.5024,-1.4743,-1.4992,-1.5206,-1.5374,-1.5681,-1.5979,-1.6133,-1.6477,-1.6653,-1.6653,-1.6762,-1.6923,-1.7084,-1.7006,-1.6993,-1.7153,-1.7005,-1.6958,-1.6958,-1.6958,-1.6958,-1.6958,-1.6958,-1.6958,-1.6958,-1.6958,-1.6958,-1.6958,-1.7106,-1.7152,-1.7077,-1.6916,-1.6652,-1.6411,-1.6411,-1.6272,-1.614,-1.614,-1.6038,-1.5877,-1.5681,-1.563,-1.56,-1.5433,-1.5389,-1.5389,-1.5389,-1.5389,-1.5389,-1.5389,-1.5465,-1.5541,-1.5541,-1.558,-1.5698,-1.5894,-1.5912,-1.5927,-1.6166,-1.625,-1.6422,-1.6795,-1.7088,-1.7407,-1.7784,-1.794,-1.8008,-1.8008,-1.7822,-1.7617,-1.7402,-1.7024,-1.6672,-1.6416,-1.5986,-1.5469,-1.4852,-1.458,-1.4328,-1.4114,-1.4104,-1.4104,-1.4104,-1.4104,-1.4104,-1.4104,-1.4104,-1.4221,-1.4453,-1.4023,-1.3945,0.0,0.0,0.0,0.0,0.0,0.0,0.0,0.0,-0.6247,-0.6749,-0.7822,-0.9044,-1.0159,-1.1419,-1.2528,-1.3221,-1.4194,-1.4841,-1.4858,-1.5139,-1.5204,-1.4902,-1.5197,-1.5544,-1.5806,-1.5893,-1.6067,-1.6314,-1.6626,-1.6854,-1.6854,-1.7054,-1.7145,-1.7145,-1.7012,-1.6932,-1.6932,-1.673,-1.6588,-1.6588,-1.6588,-1.6588,-1.6588,-1.6588,-1.6588,-1.6588,-1.6588,-1.6588,-1.6636,-1.6831,-1.7066,-1.7239,-1.7239,-1.6965,-1.6557,-1.6557,-1.6558,-1.6507,-1.6507,-1.6463,-1.6375,-1.6082,-1.6001,-1.5943,-1.5621,-1.5484,-1.5469,-1.5403,-1.5389,-1.5389,-1.5389,-1.5389,-1.5389,-1.5389,-1.5499,-1.5658,-1.5692,-1.5736,-1.5805,-1.5967,-1.5843,-1.5869,-1.6473,-1.6697,-1.7003,-1.7604,-1.7862,-1.8008,-1.8008,-1.8008,-1.7881,-1.7539,-1.7432,-1.7207,-1.6736,-1.6406,-1.5889,-1.5107,-1.5058,-1.4834,-1.4377,-1.4358,-1.4358,-1.4358,-1.4358,-1.4358,-1.4358,-1.4358,-1.4561,-1.4902,-1.4902,-1.4902,-0.3854,-0.4207,-0.4613,-0.482,-0.5139,-0.538,0.0,0.0,-0.6609,-0.7208,-0.8251,-0.9429,-1.0761,-1.1771,-1.2685,-1.366,-1.4296,-1.4669,-1.4726,-1.4977,-1.5033,-1.4775,-1.5177,-1.5512,-1.5548,-1.5878,-1.6074,-1.6109,-1.645,-1.6626,-1.6626,-1.6662,-1.6683,-1.6683,-1.6683,-1.6636,-1.6636,-1.6636,-1.6588,-1.6588,-1.6588,-1.6588,-1.6588,-1.6588,-1.6588,-1.6588,-1.6588,-1.6588,-1.6588,-1.6636,-1.6777,-1.7026,-1.7026,-1.7109,-1.7223,-1.7223,-1.704,-1.6844,-1.6844,-1.6653,-1.6404,-1.6375,-1.6316,-1.6265,-1.5957,-1.5819,-1.5761,-1.5469,-1.5389,-1.5389,-1.5389,-1.5389,-1.5389,-1.5389,-1.5431,-1.5465,-1.5658,-1.5711,-1.5722,-1.5677,-1.5631,-1.5645,-1.5799,-1.6135,-1.6682,-1.7569,-1.7862,-1.8008,-1.8008,-1.8008,-1.7988,-1.7949,-1.7607,-1.7207,-1.6736,-1.6658,-1.6445,-1.5977,-1.5948,-1.5752,-1.5283,-1.5235,-1.5235,-1.5235,-1.5235,-1.5235,-1.5235,-1.5235,-1.5264,-1.5342,-1.5342,-1.5342,-0.4605,-0.4852,0.0,0.0,-0.5876,-0.6209,-0.6287,-0.6772,-0.742,-0.819,-0.8908,-0.9797,-1.1093,-1.1879,-1.2584,0.0,-1.3816,-1.4143,-1.4314,-1.4447,-1.4482,-1.4349,-1.4672,-1.5106,-1.5586,-1.5913,-1.6197,-1.6378,-1.6511,-1.6588,-1.6588,-1.6588,-1.6588,-1.6588,-1.6454,-1.6359,-1.6359,-1.6211,-1.6109,-1.6109,-1.6109,-1.6109,-1.6109,-1.6109,-1.6109,-1.6109,-1.6109,-1.6211,-1.6359,-1.6359,-1.6548,-1.6777,-1.6932,-1.7073,-1.716,-1.7239,-1.7245,-1.7128,-1.7128,-1.704,-1.6894,-1.6756,-1.6697,-1.6639,-1.6279,-1.6052,-1.5884,-1.5752,-1.5535,-1.5389,-1.5389,-1.5389,-1.5389,-1.5389,-1.5389,-1.5423,-1.5506,-1.5541,-1.5504,-1.5494,-1.5566,-1.5615,-1.5645,-1.5905,-1.6261,-1.6709,-1.7314,-1.7735,-1.7828,-1.7828,-1.7862,-1.7974,-1.7852,-1.7578,-1.7148,-1.7109,-1.6924,-1.6484,-1.6455,-1.6367,-1.6151,-1.6151,-1.6151,-1.6151,-1.6151,-1.6151,-1.6151,-1.6151,-1.6151,-1.6151,-1.6151,-1.6151,-0.519,0.0,0.0,-0.5969,-0.6427,-0.6814,-0.6968,-0.7287,-0.7761,-0.8515,-0.9018,-0.964,-1.0712,-1.1431,-1.204,-1.2611,-1.3153,-1.3555,-1.3598,-1.3713,-1.3792,-1.3713,-1.4059,-1.4584,-1.5243,-1.5665,-1.6021,-1.6372,-1.6393,-1.6393,-1.6393,-1.6393,-1.6393,-1.6393,-1.617,-1.6076,-1.6076,-1.5879,-1.5784,-1.5784,-1.5784,-1.5784,-1.5784,-1.5784,-1.5784,-1.5784,-1.5784,-1.5927,-1.6076,-1.6076,-1.6265,-1.6494,-1.669,-1.6885,-1.7026,-1.7153,-1.7239,-1.7279,-1.7279,-1.7279,-1.7289,-1.7062,-1.7027,-1.6969,-1.6646,-1.6287,-1.6023,-1.5943,-1.5679,-1.5389,-1.5389,-1.5389,-1.5389,-1.5389,-1.5389,-1.5389,-1.5389,-1.5389,-1.5389,-1.5389,-1.5446,-1.5499,-1.5568,-1.5678,-1.5796,-1.5897,-1.6518,-1.7072,-1.7442,-1.7604,-1.7784,-1.7974,-1.8008,-1.7881,-1.7578,-1.7559,-1.7373,-1.6911,-1.6882,-1.6824,-1.6707,-1.6697,-1.6697,-1.6697,-1.6697,-1.6697,-1.6697,-1.6697,-1.6697,-1.6697,-1.6697,-1.6765,0.0,0.0,-0.6355,-0.6367,-0.6706,-0.702,-0.7167,-0.7212,-0.7343,-0.7761,-0.8216,-0.8714,-0.933,-1.0151,-1.0868,-1.1278,-1.2345,-1.2953,-1.2436,-1.2777,-1.3047,-1.2751,-1.346,-1.4032,0.0,-1.4989,-1.5511,-1.5805,-1.5825,-1.5825,-1.5825,-1.5825,-1.5825,-1.5825,-1.5825,-1.5832,-1.5832,-1.5784,-1.5784,-1.5784,-1.5784,-1.5784,-1.5784,-1.5784,-1.5784,-1.5784,-1.5784,-1.5784,-1.5832,-1.5832,-1.5981,-1.6224,-1.6224,-1.6555,-1.6979,-1.7026,-1.7106,-1.7279,-1.7279,-1.7279,-1.7279,-1.7271,-1.7311,-1.7252,-1.6983,-1.6653,-1.6338,-1.6001,-1.5679,-1.5389,-1.5389,-1.5389,-1.5389,-1.5389,-1.5389,-1.5389,-1.5389,-1.5389,-1.5389,-1.5389,-1.5316,-1.528,-1.5473,-1.5273,-1.5194,-1.5393,-1.5499,-1.5885,-1.6795,-1.7373,-1.7784,-1.7974,-1.8008,-1.8008,-1.7988,-1.7988,-1.7812,-1.7393,-1.7363,-1.7178,-1.6716,-1.6697,-1.6697,-1.6697,-1.6697,-1.6697,-1.6697,-1.6697,-1.6697,-1.6697,-1.6697,-1.6921,0.0,0.0,-0.6472,-0.6827,-0.7045,-0.7179,-0.7358,-0.7399,-0.7524,-0.7904,-0.8107,-0.8449,-0.9091,-0.9425,-0.9871,-1.0599,-1.1171,-1.1592,-1.1799,-1.2137,-1.2327,-1.2242,-1.2904,0.0,0.0,0.0,0.0,-1.5771,-1.5683,-1.5588,-1.5588,-1.5404,-1.5315,-1.5315,-1.5499,-1.5588,-1.5588,-1.573,-1.5784,-1.5784,-1.5784,-1.5784,-1.5784,-1.5784,-1.5784,-1.5784,-1.5784,-1.5784,-1.5784,-1.5784,-1.5832,-1.5927,-1.613,-1.6319,-1.6508,-1.669,-1.6777,-1.6864,-1.7192,-1.7279,-1.7279,-1.7279,-1.7279,-1.7264,-1.7201,-1.6945,-1.6668,-1.6353,-1.5994,-1.5701,-1.5447,-1.5389,-1.5389,-1.5389,-1.5389,-1.5389,-1.5389,-1.5389,-1.5389,-1.5389,-1.5486,-1.5494,-1.5318,-1.5377,-1.532,-1.5034,-1.5472,-1.6053,-1.6647,-1.721,-1.7623,-1.7784,-1.794,-1.8008,-1.8008,-1.8008,-1.7949,-1.7812,-1.7803,-1.7734,-1.7588,-1.7545,-1.7545,-1.7545,-1.7545,-1.7545,-1.7545,-1.7545,-1.7545,-1.7545,-1.7545,-1.7656,0.0,-0.6524,-0.6755,-0.7102,-0.7236,-0.7346,-0.7456,-0.7484,-0.7539,-0.7747,-0.7798,-0.7914,-0.8348,-0.8542,-0.8882,-0.9571,-1.0129,-1.0573,-1.093,-1.1242,-1.1476,-1.1564,-1.2167,-1.2783,0.0,0.0,0.0,-1.5404,-1.5302,-1.5112,-1.4914,-1.4777,-1.4688,-1.4688,-1.4825,-1.5016,-1.5213,-1.5452,-1.5642,-1.5784,-1.5784,-1.5784,-1.5784,-1.5784,-1.5784,-1.5784,-1.5784,-1.5784,-1.5784,-1.5784,-1.5784,-1.5832,-1.5981,-1.6123,-1.6224,-1.64,-1.6541,-1.6629,-1.6958,-1.7052,-1.7052,-1.7052,-1.7052,-1.7052,-1.7052,-1.6928,-1.6723,-1.6519,-1.6279,-1.6001,-1.5687,-1.5564,-1.5535,-1.5418,-1.5389,-1.5389,-1.5389,-1.5389,-1.5389,-1.5389,-1.5499,-1.5508,-1.5301,-1.5337,-1.5234,-1.4836,-1.5335,-1.5927,-1.6325,-1.6899,-1.7392,-1.7672,-1.7896,-1.8008,-1.8008,-1.8008,-1.8008,-1.8008,-1.8008,-1.8008,-1.8008,-1.8008,-1.8008,-1.8008,-1.8008,-1.8008,-1.8008,-1.8008,-1.8008,-1.8008,-1.8008,-1.8008,-0.6382,-0.6799,-0.7191,-0.7199,-0.7362,-0.748,-0.7472,-0.7472,-0.7419,-0.7199,-0.7163,-0.7163,0.0,0.0,-0.7884,-0.8322,-0.9281,-0.9913,-0.9802,-1.0202,-1.0576,0.0,0.0,0.0,0.0,0.0,0.0,-1.4544,0.0,-1.4394,-1.3854,-1.3806,-1.3811,-1.3811,-1.3806,-1.41,-1.464,-1.4933,-1.5315,-1.573,-1.5784,-1.5784,-1.5778,-1.5784,-1.5784,-1.5784,-1.5784,-1.5784,-1.5784,-1.5784,-1.5784,-1.5784,-1.5784,-1.5974,-1.6177,-1.6177,-1.6359,-1.6541,-1.6541,-1.6588,-1.6588,-1.6588,-1.6588,-1.6588,-1.6588,-1.6572,-1.6475,-1.6461,-1.6458,-1.6323,-1.5973,-1.5885,-1.584,-1.5484,-1.5396,-1.5389,-1.5389,-1.5389,-1.5389,-1.5389,-1.5389,-1.5389,-1.5389,-1.5133,-1.49,-1.4734,-1.511,-1.5543,-1.5926,-1.6508,-1.7091,-1.7569,-1.7828,-1.794,-1.7974,-1.7974,-1.7974,-1.7974,-1.7974,-1.8008,-1.8008,-1.8008,-1.8008,-1.8008,-1.8008,-1.8008,-1.8008,-1.8008,-1.8008,-1.8008,-1.8008,-1.8008,-0.6549,-0.6855,-0.7062,-0.7345,-0.7452,-0.7447,-0.7322,-0.7293,-0.7204,-0.6895,-0.683,-0.6826,-0.6818,0.0,0.0,-0.8062,-0.8785,0.0,-0.9743,-1.0175,0.0,-1.0485,0.0,-1.1696,-1.1889,-1.2624,0.0,0.0,-1.3372,-1.3559,-1.3022,-1.2845,-1.2802,-1.2802,-1.2937,-1.327,-1.3806,-1.4496,-1.4885,-1.4975,-1.5404,-1.5588,-1.5588,-1.573,-1.5784,-1.5784,-1.5784,-1.5784,-1.5784,-1.5784,-1.5784,-1.5784,-1.5784,-1.5832,-1.5879,-1.5879,-1.5974,-1.6015,-1.6015,-1.6258,-1.6588,-1.6588,-1.6588,-1.6588,-1.6588,-1.6579,-1.6514,-1.6281,-1.6344,-1.6397,-1.608,-1.5959,-1.5899,-1.5811,-1.5564,-1.5389,-1.5389,-1.5389,-1.5389,-1.5389,-1.5389,-1.5389,-1.5389,-1.5316,-1.5196,-1.4907,-1.5255,-1.5592,-1.5773,-1.6308,-1.6732,-1.6883,-1.7072,-1.7245,-1.7382,-1.7529,-1.7666,-1.7784,-1.794,-1.8008,-1.8008,-1.8008,-1.8008,-1.8008,-1.8008,-1.8008,-1.8008,-1.8008,-1.8008,-1.8008,-1.8008,-1.8008,-0.6503,-0.6831,-0.7025,-0.7364,-0.745,-0.7425,-0.7248,-0.7163,-0.7005,-0.6647,-0.6509,0.0,-0.638,0.0,0.0,0.0,0.0,0.0,-0.9402,-0.9834,-1.0068,0.0,-1.0605,0.0,-1.1243,-1.1639,-1.1785,0.0,-1.2311,-1.2549,-1.1912,-1.1775,-1.1688,-1.1688,-1.1819,-1.2252,-1.299,-1.3667,-1.41,-1.4346,-1.4627,-1.4921,-1.5166,-1.5404,-1.5547,-1.5683,-1.5778,-1.5784,-1.5784,-1.5784,-1.5784,-1.5784,-1.5784,-1.5784,-1.5784,-1.5784,-1.5784,-1.5784,-1.5784,-1.6021,-1.6251,-1.6251,-1.6251,-1.6251,-1.6251,-1.6353,-1.6365,-1.6192,-1.633,-1.6497,-1.6276,-1.6195,-1.6162,-1.6148,-1.587,-1.56,-1.56,-1.5442,-1.5215,-1.5124,-1.5082,-1.5124,-1.5257,-1.5257,-1.524,-1.5141,-1.5431,-1.5639,-1.5605,-1.6154,-1.6586,-1.6599,-1.6767,-1.6872,-1.6934,-1.7038,-1.721,-1.7467,-1.7588,-1.7691,-1.7769,-1.7837,-1.7862,-1.7862,-1.7974,-1.8008,-1.8008,-1.8008,-1.8008,-1.8008,-1.8008,-1.8008,-0.6155,-0.6561,-0.6908,-0.7199,-0.7266,-0.7234,-0.7092,-0.6977,-0.6773,-0.6359,0.0,-0.6061,-0.588,-0.6144,-0.6558,-0.7102,0.0,-0.8434,-0.8954,-0.9352,-0.9641,-0.9887,-0.9957,-1.0167,-1.0659,-1.0708,-1.0708,-1.0708,-1.134,-1.1438,-1.0708,-1.0708,-1.0708,-1.0708,-1.0752,-1.1243,-1.2175,-1.2646,-1.3173,-1.3667,-1.3709,-1.4004,-1.4544,-1.4838,-1.5124,-1.5397,-1.5594,-1.5689,-1.5689,-1.5737,-1.5778,-1.5778,-1.5778,-1.5784,-1.5784,-1.5784,-1.5784,-1.5784,-1.5784,-1.5784,-1.5784,-1.5784,-1.5784,-1.5784,-1.5784,-1.5974,-1.617,-1.617,-1.6359,-1.6525,-1.6497,-1.6444,-1.6428,-1.6365,-1.6111,-1.5835,-1.5792,-1.5396,-1.4999,-1.4741,-1.4692,-1.4783,-1.4999,-1.5041,-1.5131,-1.5257,-1.5499,-1.5595,-1.5473,-1.5999,-1.6409,-1.6465,-1.6536,-1.6543,-1.6501,-1.6465,-1.6638,-1.7028,-1.7063,-1.7166,-1.7358,-1.7476,-1.7569,-1.7638,-1.7828,-1.794,-1.7974,-1.7974,-1.8008,-1.8008,-1.8008,-1.8008,-0.5206,-0.5705,-0.6163,-0.6508,-0.6616,-0.6603,-0.6407,-0.6367,0.0,0.0,0.0,-0.5693,-0.5665,-0.5984,0.0,-0.6947,0.0,0.0,0.0,0.0,-0.9449,0.0,0.0,0.0,0.0,0.0,0.0,0.0,0.0,-1.0314,-1.0167,-1.0117,-1.0117,-1.0117,-1.056,-1.0904,-1.1096,-1.1585,-1.2019,-1.2316,-1.2737,-1.3173,-1.3709,-1.4004,-1.4394,-1.4831,-1.4879,0.0,-1.5226,-1.5452,-1.554,-1.5588,-1.573,-1.5784,-1.5784,-1.5784,-1.5784,-1.5784,-1.5784,-1.5784,-1.5784,-1.5784,-1.5784,-1.5784,-1.5784,-1.5832,-1.5879,-1.5879,-1.6076,-1.6258,-1.625,-1.623,-1.6151,-1.6141,-1.5894,-1.5599,-1.5389,-1.5043,-1.4741,-1.4692,-1.4692,-1.4692,-1.4776,-1.4783,-1.4783,-1.4824,-1.5041,-1.5193,-1.5177,-1.5617,-1.5866,-1.5795,-1.5565,-1.5503,-1.5841,-1.5736,-1.585,-1.6272,-1.6385,-1.6559,-1.6751,-1.6777,-1.695,-1.727,-1.7495,-1.7632,-1.774,-1.794,-1.8008,-1.8008,-1.8008,-1.8008,-0.4608,-0.4989,-0.5376,-0.5738,-0.5833,-0.5803,-0.574,0.0,0.0,0.0,0.0,-0.5245,-0.5333,0.0,0.0,0.0,0.0,0.0,0.0,0.0,0.0,0.0,0.0,0.0,0.0,0.0,0.0,0.0,0.0,-0.9772,-0.9772,-0.9772,-0.9772,-0.9772,-1.0167,-1.0359,-1.0359,-1.0806,-1.1096,-1.1389,-1.1575,-1.2063,-1.2748,-1.299,-1.3377,-1.3859,-1.4004,-1.425,-1.449,-1.4627,-1.4825,-1.5118,-1.5356,-1.5499,-1.5642,-1.5778,-1.5784,-1.5784,-1.5784,-1.5784,-1.5784,-1.5784,-1.5784,-1.5784,-1.5784,-1.5784,-1.5784,-1.5784,-1.5879,-1.6028,-1.6177,-1.6162,-1.6185,-1.6318,-1.612,-1.5725,-1.514,-1.4926,-1.4731,-1.4446,-1.437,-1.4405,-1.4524,-1.4524,-1.4566,-1.4692,-1.4824,-1.4908,-1.4908,-1.5105,-1.5253,-1.5362,-1.5381,-1.5412,-1.5481,-1.5258,-1.5312,-1.5702,-1.5644,-1.5719,-1.6017,-1.6123,-1.6359,-1.6716,-1.6934,-1.7166,-1.7442,-1.7545,-1.7691,-1.7852,-1.7852,-1.7896,-0.3936,-0.4276,-0.4623,-0.4955,-0.4969,-0.4943,-0.4965,-0.4805,0.0,0.0,0.0,-0.4763,-0.4932,0.0,0.0,0.0,0.0,0.0,0.0,0.0,0.0,0.0,0.0,0.0,0.0,0.0,0.0,0.0,0.0,-0.9579,-0.9579,-0.9579,-0.9579,-0.9579,-0.9826,-0.992,-0.992,-1.0117,-1.0364,-1.0605,-1.0605,-1.1002,-1.1731,-1.198,-1.2311,-1.2786,-1.298,-1.3275,-1.3565,-1.3613,-1.3956,-1.4496,-1.4742,-1.5022,-1.5356,-1.5499,-1.5642,-1.573,-1.573,-1.5778,-1.5784,-1.5784,-1.5784,-1.5784,-1.5784,-1.5784,-1.5784,-1.5784,-1.5784,-1.5832,-1.6076,-1.6123,-1.617,-1.64,-1.6162,-1.5669,-1.5075,-1.4834,-1.4584,-1.4177,-1.4088,-1.4166,-1.4321,-1.4356,-1.4398,-1.4531,-1.4573,-1.4573,-1.4573,-1.4608,-1.4726,-1.5002,-1.5212,-1.527,-1.5155,-1.4866,-1.4825,-1.512,-1.496,-1.4956,-1.5256,-1.5417,-1.57,-1.6061,-1.6263,-1.6577,-1.6959,-1.7028,-1.7192,-1.7467,-1.7535,-1.7729,-0.2828,-0.3423,-0.3984,-0.4093,-0.4097,-0.4094,-0.3971,0.0,0.0,0.0,-0.3916,-0.4187,-0.4491,-0.4925,0.0,0.0,0.0,0.0,0.0,0.0,0.0,0.0,0.0,0.0,0.0,0.0,0.0,0.0,-0.9579,-0.9579,-0.9579,-0.9579,-0.9579,-0.9579,-0.9628,-0.9628,-0.9628,-0.9677,-0.9826,-1.0068,-1.0068,-1.0364,-1.09,-1.0953,-1.1243,-1.1731,-1.178,-1.2073,0.0,-1.2737,-1.3119,-1.3661,-1.3908,-1.4346,-1.4783,-1.4783,-1.5118,-1.554,-1.554,-1.5635,-1.5784,-1.5784,-1.5784,-1.5784,-1.5784,-1.5784,-1.5784,-1.5784,-1.5784,-1.5832,-1.5832,-1.5832,-1.5832,-1.5879,-1.5497,-1.508,-1.5026,-1.4546,-1.4164,-1.4095,-1.4088,-1.413,-1.4124,-1.4124,-1.4124,-1.4166,-1.4166,-1.4166,-1.4166,-1.4321,-1.4426,-1.4483,-1.4447,-1.4474,-1.4655,-1.4518,-1.4397,-1.4336,-1.4501,-1.4599,-1.4513,-1.4533,-1.4784,-1.5275,-1.5497,-1.5815,-1.6202,-1.6508,-1.6673,-1.6707,-1.7097,-1.7441,-0.2202,-0.253,-0.2838,-0.2938,-0.2899,-0.2886,-0.2947,0.0,-0.2841,-0.303,-0.3267,-0.3574,-0.399,-0.4455,-0.4887,-0.5217,-0.5732,-0.6287,0.0,0.0,0.0,0.0,0.0,0.0,0.0,0.0,0.0,0.0,-0.9579,-0.9579,-0.9579,-0.9579,-0.9579,-0.9579,-0.9579,-0.9579,-0.9579,-0.9579,-0.9677,-0.9776,-0.9776,-0.9969,-1.0314,-1.0314,-1.0511,-1.09,-1.09,-1.1096,0.0,-1.1526,-1.1965,-1.2603,-1.2899,-1.3281,-1.3757,-1.41,-1.434,-1.458,-1.4921,-1.507,-1.5166,-1.5315,-1.5363,-1.541,-1.5689,-1.5784,-1.5784,-1.5784,-1.5784,-1.5784,-1.5784,-1.5784,-1.5784,-1.5784,-1.5651,-1.5391,-1.5082,-1.4827,-1.4509,-1.4155,-1.4088,-1.4088,-1.4088,-1.4088,-1.4088,-1.4088,-1.4088,-1.4088,-1.4088,-1.4166,-1.4201,-1.4201,-1.4421,-1.4552,-1.4634,-1.4481,-1.4327,-1.4245,-1.4168,-1.4156,-1.4221,-1.4335,-1.4592,-1.5073,-1.5091,-1.5272,-1.5671,-1.5616,-1.5754,-1.6114,-1.6289,-1.6678,-0.1792,-0.1901,-0.2073,-0.2159,-0.2073,-0.1997,0.0,0.0,-0.2037,-0.232,-0.2599,-0.2907,-0.3325,-0.3852,-0.434,-0.4714,-0.52,-0.5775,-0.6421,0.0,0.0,0.0,0.0,0.0,0.0,0.0,0.0,0.0,-0.9579,-0.9579,-0.9579,-0.9579,-0.9579,-0.9579,-0.9579,-0.9579,-0.9579,-0.9579,-0.9579,-0.9579,-0.9579,-0.9677,-0.9871,-0.9871,-0.9969,-1.0167,-1.0167,-1.0314,0.0,-1.056,-1.0998,-1.1683,-1.1834,-1.2214,-1.2689,-1.3178,-1.342,-1.3607,-1.4052,-1.4298,-1.4394,-1.4592,-1.464,-1.4688,-1.501,-1.535,-1.5594,-1.5594,-1.5594,-1.5594,-1.5689,-1.573,-1.573,-1.5778,-1.5698,-1.5464,-1.5095,-1.4874,-1.4626,-1.4168,-1.4088,-1.4088,-1.4088,-1.4088,-1.4088,-1.4088,-1.4088,-1.4088,-1.4088,-1.4088,-1.4088,-1.4088,-1.437,-1.4531,-1.4531,-1.4414,-1.4295,-1.4171,-1.4036,-1.3954,-1.402,-1.4137,-1.4365,-1.4715,-1.4637,-1.4744,-1.5113,-1.4906,-1.5037,-1.5445,-1.5582,-1.5956,-0.1475,-0.1711,-0.1896,-0.1896,-0.1788,-0.1695,0.0,-0.151,-0.1461,-0.1583,-0.1822,-0.2127,-0.2465,-0.3102,-0.375,-0.4134,-0.4779,-0.5415,-0.6003,0.0,0.0,0.0,0.0,0.0,0.0,0.0,0.0,-0.9579,-0.9579,0.0,-0.9579,-0.9579,-0.9579,-0.9579,-0.9579,-0.9579,-0.9579,-0.9579,-0.9579,-0.9579,-0.9579,-0.9579,-0.9628,-0.9628,-0.9628,-0.9628,-0.9628,-0.9776,0.0,-1.0019,-1.0314,-1.0806,-1.0806,-1.1145,-1.1639,-1.1932,-1.2306,-1.2732,-1.3022,-1.327,-1.3511,-1.3516,-1.3516,-1.3516,-1.3511,-1.425,-1.5131,-1.5131,-1.5131,-1.5178,-1.5445,-1.5493,-1.554,-1.5737,-1.5391,-1.5015,-1.5008,-1.4553,-1.4095,-1.4088,-1.4088,-1.4088,-1.4088,-1.4088,-1.4088,-1.4088,-1.4088,-1.4088,-1.4088,-1.4088,-1.4088,-1.4088,-1.4088,-1.413,-1.413,-1.4279,-1.4275,-1.3947,-1.4164,-1.4139,-1.3831,-1.3817,-1.3895,-1.4098,-1.4091,-1.4209,-1.4411,-1.4521,-1.4599,-1.463,-1.5011,-1.5537,-0.1184,-0.1303,-0.1365,-0.1365,-0.133,-0.1276,-0.1206,-0.1123,-0.111,-0.1243,-0.1402,-0.1653,-0.2073,-0.2547,-0.3053,-0.3621,-0.429,0.0,0.0,0.0,0.0,0.0,0.0,0.0,0.0,0.0,0.0,-0.9027,-0.9076,-0.913,-0.9331,-0.9335,-0.943,-0.9579,-0.9579,-0.9579,-0.9579,-0.9579,-0.9579,-0.9579,-0.9579,-0.9579,-0.9579,-0.9579,-0.9579,-0.9579,-0.9579,-0.9628,-0.9727,-0.9727,-0.992,-1.0265,-1.0265,-1.0462,-1.0806,-1.1096,-1.1287,-1.1477,-1.1922,-1.2116,-1.2214,-1.2408,-1.2457,-1.2457,-1.2457,-1.3184,-1.4004,-1.4004,-1.4148,-1.4298,-1.4388,-1.4682,-1.4975,-1.5022,-1.5085,-1.4941,-1.4534,-1.4448,-1.4338,-1.39,-1.3955,-1.4088,-1.4088,-1.4088,-1.4088,-1.4088,-1.4088,-1.4088,-1.4088,-1.4088,-1.4088,-1.4088,-1.4088,-1.4088,-1.4088,-1.4166,-1.4168,-1.4038,-1.4115,-1.4109,-1.4014,-1.4118,-1.4234,-1.4316,-1.4244,-1.4259,-1.4339,-1.4159,-1.413,-1.4262,-1.4756,-1.5118,0.0,-0.1031,-0.1024,-0.1068,-0.1048,-0.1016,-0.098,-0.0918,-0.092,-0.1014,-0.1122,-0.1318,-0.1597,-0.2038,-0.2537,-0.3125,-0.3838,0.0,0.0,0.0,0.0,0.0,0.0,0.0,0.0,0.0,-0.8676,-0.8775,-0.8825,-0.8874,-0.9031,-0.9031,-0.913,-0.9278,-0.9476,-0.9579,-0.9579,-0.9579,-0.9579,-0.9579,-0.9579,-0.9579,-0.9579,-0.9579,-0.9579,-0.9579,-0.9579,-0.9579,0.0,-0.9579,-0.9677,-0.9875,-0.9875,-0.9969,-1.0117,-1.0413,-1.0511,-1.056,-1.0998,-1.1145,-1.1145,-1.134,-1.1389,-1.1389,-1.1389,-1.2116,-1.2937,-1.2937,-1.3136,-1.3329,-1.342,-1.3757,-1.41,-1.4202,-1.4369,-1.4368,-1.3865,-1.3924,-1.3894,-1.3438,-1.3525,-1.3743,-1.3828,-1.3913,-1.3997,-1.4088,-1.4088,-1.4088,-1.4088,-1.4088,-1.4088,-1.4088,-1.4088,-1.4088,-1.4088,-1.4088,-1.4088,-1.4088,-1.4088,-1.4088,-1.4088,-1.4201,-1.4279,-1.4279,-1.4269,-1.4214,-1.4214,-1.4021,-1.3972,-1.41,-1.4458,-1.4591,0.0,-0.0885,-0.0917,-0.0975,-0.0932,-0.0913,-0.0911,-0.0889,0.0,-0.0898,-0.101,-0.1094,-0.1094,-0.1612,-0.2199,-0.2694,0.0,0.0,0.0,0.0,0.0,0.0,0.0,0.0,0.0,0.0,-0.8482,-0.8726,-0.8726,-0.8775,-0.8775,-0.8775,-0.8775,-0.8775,-0.9278,-0.9529,-0.9579,-0.9579,-0.9579,-0.9579,-0.9579,-0.9579,-0.9579,-0.9579,-0.9579,0.0,-0.9579,-0.9579,-0.9579,-0.9579,-0.9579,-0.9579,-0.9579,-0.9579,-0.9628,-0.9871,-0.9969,-1.0019,-1.0265,-1.0364,-1.0364,-1.0364,-1.0364,-1.0364,-1.0364,-1.1047,-1.1883,-1.1883,-1.2078,-1.2316,-1.2543,-1.278,-1.3076,-1.3318,-1.3387,-1.3339,-1.3089,-1.303,-1.3009,-1.2727,-1.2894,-1.315,-1.3302,-1.3508,-1.3763,-1.4004,-1.4039,-1.4088,-1.4088,-1.4088,-1.4088,-1.4088,-1.4088,-1.4088,-1.4088,-1.4088,-1.4088,-1.4088,-1.4088,-1.4088,-1.4088,-1.4088,-1.4088,-1.4088,-1.4088,-1.4088,-1.4088,-1.4088,-1.4088,-1.4088,-1.4088,-1.4088,-0.0784,0.0,-0.091,-0.0917,-0.0902,-0.0907,0.0,-0.0902,-0.0898,0.0,0.0,0.0,0.0,0.0,0.0,0.0,0.0,0.0,0.0,0.0,0.0,0.0,0.0,0.0,0.0,0.0,-0.8137,-0.8184,-0.8187,-0.8283,-0.8482,-0.8482,-0.8577,-0.8775,-0.8924,-0.908,-0.9286,-0.948,-0.9579,-0.9579,-0.9579,-0.9579,-0.9579,-0.9579,-0.9579,-0.9579,-0.9579,-0.9579,-0.9579,-0.9579,-0.9579,-0.9579,-0.9579,-0.9579,-0.9628,-0.9677,-0.9677,-0.9723,-0.9776,-0.9772,-0.9772,-0.9772,-0.9772,-0.9772,-0.9772,-1.0265,-1.0806,-1.0806,-1.0949,-1.1194,-1.1238,-1.158,-1.197,-1.2019,-1.2372,-1.2608,-1.2314,-1.2543,-1.2704,-1.2457,-1.2726,-1.2981,-1.2879,-1.3187,-1.346,-1.3345,-1.361,-1.3779,-1.3779,-1.3955,-1.4088,-1.4088,-1.4088,-1.4088,-1.4088,-1.4088,-1.4088,-1.4088,-1.4088,-1.4088,-1.4088,-1.4088,-1.4088,-1.4088,-1.4088,-1.4088,-1.4088,-1.4088,-1.4088,-1.4088,-1.4088,-1.4088,-0.0543,-0.0733,-0.0859,-0.09,-0.09,-0.0889,-0.0901,0.0,0.0,0.0,0.0,0.0,0.0,0.0,0.0,0.0,0.0,0.0,0.0,0.0,0.0,0.0,0.0,0.0,0.0,-0.7693,-0.7793,-0.7793,-0.7942,-0.8088,-0.8187,-0.8237,-0.8283,-0.8432,-0.8528,-0.873,-0.9031,-0.9175,-0.9229,-0.9229,-0.9229,-0.9278,-0.943,-0.943,-0.948,-0.9579,-0.9579,-0.9579,-0.9579,-0.9579,-0.9579,-0.9579,-0.9579,-0.9579,-0.9579,-0.9579,-0.9579,-0.9579,-0.9579,-0.9579,-0.9579,-0.9579,-0.9579,-0.9579,-0.9579,-0.9826,-1.0019,-1.0019,-1.0216,-1.0413,-1.0413,-1.0757,-1.1047,-1.1047,-1.1389,-1.1575,-1.1306,-1.1542,-1.1759,-1.1528,-1.1849,-1.2177,-1.2186,-1.2516,-1.2791,-1.2916,-1.3004,-1.3179,-1.3398,-1.361,-1.3828,-1.3913,-1.4046,-1.4088,-1.4088,-1.4088,-1.4088,-1.4088,-1.4088,-1.4088,-1.4088,-1.4088,-1.4088,-1.4088,-1.4088,-1.4088,-1.4088,-1.4088,-1.4088,-1.4088,-1.4088,-1.4088,-0.026,-0.0539,-0.0764,-0.0877,-0.0906,-0.0898,-0.0903,0.0,0.0,0.0,0.0,0.0,0.0,0.0,0.0,0.0,0.0,0.0,0.0,0.0,0.0,0.0,0.0,0.0,-0.6695,-0.7095,-0.7397,-0.7497,-0.7743,-0.7889,-0.7942,-0.7992,-0.7988,-0.7988,-0.8233,-0.8432,-0.8676,-0.8775,-0.8825,-0.8825,-0.8825,-0.8928,-0.9133,-0.9133,-0.9282,-0.948,-0.948,0.0,-0.9529,-0.9529,-0.9579,-0.9579,-0.9579,-0.9579,-0.9579,-0.9579,-0.9579,-0.9579,-0.9579,-0.9579,-0.9579,-0.9579,-0.9579,-0.9579,-0.9579,-0.9579,-0.9579,-0.9579,-0.9776,-0.9924,-0.9924,-1.0117,-1.0265,-1.0265,-1.0462,-1.0609,-1.0399,-1.0555,-1.0691,-1.0515,-1.0846,-1.1208,-1.1359,-1.1657,-1.2003,-1.2376,-1.2351,-1.2453,-1.2887,-1.3137,-1.3355,-1.3568,-1.3828,-1.4004,-1.4046,-1.4088,-1.4088,-1.4088,-1.4088,-1.4088,-1.4088,-1.4088,-1.4088,-1.4088,-1.4088,-1.4088,-1.4088,-1.4088,-1.4088,-1.4088,-1.4088,-1.4088,0.0024,-0.0269,-0.0538,-0.0822,-0.0894,-0.0904,-0.0901,0.0,0.0,0.0,0.0,0.0,0.0,0.0,0.0,0.0,0.0,0.0,0.0,0.0,0.0,0.0,0.0,-0.5641,-0.6092,-0.6192,-0.6445,-0.6895,-0.7188,-0.7437,-0.7643,-0.7892,-0.7988,-0.7988,-0.8038,-0.8088,-0.8137,-0.8581,-0.8825,-0.8825,-0.8825,-0.8825,-0.8874,-0.8874,-0.8874,-0.8924,0.0,-0.9027,-0.9282,-0.9282,-0.9381,-0.9579,-0.9579,-0.9579,-0.9579,-0.9579,-0.9579,-0.9579,-0.9579,-0.9579,-0.9579,-0.9579,-0.9579,-0.9579,-0.9579,-0.9579,-0.9579,-0.9579,-0.9628,-0.9677,-0.9677,-0.9677,-0.9727,-0.9727,-0.992,-1.0109,-1.0079,-1.0271,-1.0458,-1.0422,-1.0662,-1.0801,-1.0634,-1.1005,-1.128,-1.117,-1.1483,-1.1822,-1.2129,-1.2406,-1.2711,-1.3137,-1.3398,-1.3568,-1.3737,-1.3955,-1.4088,-1.4088,-1.4088,-1.4088,-1.4088,-1.4088,-1.4088,-1.4088,-1.4088,-1.4088,-1.4088,-1.4088,-1.4088,-1.4088,-1.4088,-1.4088,0.0507,0.0174,-0.013,-0.0577,-0.0788,-0.0901,-0.096,0.0,0.0,0.0,0.0,0.0,0.0,0.0,0.0,0.0,0.0,0.0,0.0,0.0,0.0,0.0,0.0,-0.4483,-0.4887,-0.5188,-0.5589,-0.6089,-0.6389,-0.6742,-0.7144,-0.7291,-0.7494,-0.7793,-0.7793,-0.7842,-0.7988,-0.8237,-0.8382,-0.8382,-0.8382,-0.8432,-0.8577,-0.8577,-0.8676,-0.8825,0.0,-0.8874,-0.8981,-0.8981,-0.9076,-0.9175,-0.9331,-0.9381,-0.9381,-0.9381,-0.9381,-0.9381,-0.9225,-0.9175,-0.9175,-0.9175,-0.9278,-0.9381,-0.9381,-0.948,-0.9579,-0.9579,-0.9579,-0.9579,-0.9579,-0.9579,-0.9579,-0.9579,-0.9677,-0.9772,-0.9772,-0.9871,-0.9969,-0.9969,-1.0167,-1.0333,-1.0201,-1.0438,-1.0588,-1.0631,-1.0637,-1.0855,-1.1361,-1.1538,-1.1843,-1.2448,-1.2705,-1.3009,-1.3355,-1.3483,-1.3701,-1.4088,-1.4088,-1.4088,-1.4088,-1.4088,-1.4088,-1.4088,-1.4088,-1.4088,-1.4088,-1.4088,-1.4088,-1.4088,-1.4088,-1.4088,0.1038,0.0655,0.0287,-0.0209,-0.0603,-0.0895,-0.0999,0.0,0.0,0.0,0.0,0.0,0.0,0.0,0.0,0.0,0.0,0.0,0.0,0.0,0.0,-0.2624,-0.3025,-0.3428,-0.3681,-0.4083,-0.4583,-0.5186,-0.5486,-0.5839,-0.6392,-0.6542,-0.6842,-0.7294,-0.7444,-0.7643,-0.7892,-0.7992,-0.7988,-0.7988,-0.7988,-0.8088,-0.8283,-0.8283,-0.8432,-0.8627,-0.8627,-0.8627,-0.8726,-0.8726,-0.8726,-0.8825,-0.9031,-0.9084,-0.9084,-0.9084,-0.9084,-0.908,-0.8874,-0.8825,-0.8825,-0.8825,-0.8928,-0.9084,-0.9084,-0.9282,-0.9529,-0.9529,-0.9529,-0.9579,-0.9579,-0.9579,-0.9579,-0.9579,-0.9579,-0.9579,-0.9579,-0.9579,-0.9579,-0.9579,-0.9776,-0.992,-0.992,-0.9953,-1.004,-1.0227,-0.9977,-1.0008,-1.0586,-1.0646,-1.0939,-1.1585,-1.1929,-1.2277,-1.279,-1.2881,-1.3137,-1.3659,-1.387,-1.4046,-1.4088,-1.4088,-1.4088,-1.4088,-1.4088,-1.4088,-1.4088,-1.4088,-1.4088,-1.4088,-1.4088,-1.4088,0.1532,0.1059,0.0575,0.0239,-0.0271,0.0,-0.105,-0.1103,0.0,0.0,0.0,0.0,0.0,0.0,0.0,0.0,0.0,0.0,0.0,0.0,-0.2372,-0.2071,-0.2322,-0.2573,-0.2875,-0.2927,-0.3278,-0.4033,-0.4381,-0.4732,-0.529,-0.5792,-0.6189,-0.6487,-0.6986,-0.7341,-0.7646,-0.7892,-0.7988,-0.7988,-0.7988,-0.7988,-0.8038,-0.8038,-0.8038,-0.8038,-0.8038,-0.8187,-0.8432,-0.8432,-0.8581,-0.8825,-0.8825,-0.8825,-0.8825,-0.8825,-0.8825,-0.8825,-0.8825,-0.8825,-0.8825,-0.8825,-0.8825,-0.8825,-0.8825,-0.9031,-0.9236,-0.9236,-0.943,-0.9579,-0.9579,-0.9579,-0.9579,-0.9579,-0.9579,-0.9579,-0.9579,-0.9579,-0.9579,-0.9579,-0.9628,-0.9628,-0.9628,-0.9616,-0.9649,-0.9757,-0.9566,-0.9565,-0.9935,-0.9818,-0.9946,-1.0636,-1.0939,-1.137,-1.2015,-1.232,-1.2448,-1.2534,-1.3264,-1.3822,-1.4088,-1.4088,-1.4088,-1.4088,-1.4088,-1.4088,-1.4088,-1.4088,-1.4088,-1.4088,-1.4088,-1.4088,0.1999,0.1512,0.0967,0.0539,0.0,0.0,0.0,0.0,0.0,0.0,0.0,0.0,0.0,0.0,0.0,0.0,0.0,0.0,0.0,-0.1818,-0.1869,-0.1768,-0.1818,-0.202,-0.2272,-0.2323,-0.2575,-0.3229,-0.3328,-0.3629,-0.4182,-0.4535,-0.4935,-0.5386,-0.6089,-0.6639,-0.7086,-0.754,-0.7842,-0.7988,-0.7988,-0.7988,-0.7988,-0.7988,-0.7988,-0.7988,-0.7988,-0.8038,-0.8137,-0.8137,-0.8187,-0.8333,-0.8482,-0.8676,-0.8775,-0.8627,-0.8528,-0.8531,-0.8382,-0.8283,-0.8283,-0.8283,-0.8432,-0.8528,-0.8528,-0.873,-0.8928,-0.8928,-0.9027,-0.9175,-0.9525,-0.9579,-0.9579,-0.9579,-0.9579,-0.9579,-0.9579,-0.9579,-0.9579,-0.9579,-0.9579,-0.9579,-0.9579,-0.9579,-0.9604,-0.9628,-0.9512,-0.9425,-0.9569,-0.9466,-0.9518,-0.9917,-1.0337,-1.0679,-1.0939,-1.1284,-1.1585,-1.1714,-1.2747,-1.3355,-1.3483,-1.361,-1.3652,-1.3652,-1.3652,-1.3652,-1.3652,-1.3779,-1.3864,-1.387,-1.3997,-1.4088,0.2368,0.188,0.1302,0.0,0.0,0.0,0.0,0.0,0.0,0.0,0.0,0.0,0.0,0.0,0.0,0.0,0.0,0.0,-0.1617,-0.1617,-0.1617,-0.1617,-0.1617,-0.1667,-0.1869,-0.187,-0.2071,-0.2524,-0.2524,-0.2725,-0.3176,-0.3479,-0.3882,-0.4381,-0.5135,-0.5787,-0.6431,-0.6939,-0.7391,-0.7739,-0.7839,-0.7942,-0.7988,-0.7988,-0.7988,-0.7988,-0.7988,-0.7988,-0.7988,-0.7988,-0.7988,-0.8041,-0.8187,-0.8382,-0.8531,-0.8333,-0.8283,-0.8237,-0.8088,-0.7988,-0.7988,-0.7988,-0.8137,-0.8283,-0.8283,-0.8482,-0.8676,-0.8676,-0.8726,-0.8874,-0.9274,-0.9327,-0.9377,-0.943,-0.948,-0.948,-0.9579,-0.9579,-0.9579,-0.9579,-0.9579,-0.9579,-0.9579,-0.9579,-0.9579,-0.9579,-0.9474,-0.9386,-0.9303,-0.9163,-0.9155,-0.9362,-0.9733,-0.999,-0.999,-1.0337,-1.0641,-1.0766,-1.1671,-1.2363,-1.2753,-1.2875,-1.2966,-1.2966,-1.2966,-1.3009,-1.3094,-1.3222,-1.3349,-1.3525,-1.3737,-1.3913,0.2592,0.2125,0.0,0.0,0.0,0.0,0.0,0.0,0.0,0.0,0.0,0.0,0.0,0.0,0.0,-0.162,-0.1597,-0.1617,-0.1617,-0.1617,-0.1617,-0.1617,-0.1617,-0.1617,-0.1617,-0.1617,-0.1718,-0.1971,-0.1971,-0.2121,-0.2371,-0.2623,-0.3026,-0.3577,-0.413,-0.478,-0.5584,-0.6134,-0.6637,-0.7188,-0.7444,-0.7746,-0.7988,-0.7988,-0.7988,-0.7988,-0.7988,-0.7988,-0.7988,-0.7988,-0.7988,-0.7988,-0.7988,-0.7988,-0.7988,-0.7988,-0.7988,-0.7988,-0.7988,-0.7988,-0.7988,-0.7988,-0.7988,-0.7988,-0.7988,-0.8187,-0.8382,-0.8382,-0.8577,-0.8775,-0.8775,-0.8775,-0.8874,-0.9133,-0.9187,-0.9282,-0.9529,-0.9579,-0.9579,-0.9579,-0.9579,-0.9579,-0.9579,-0.9579,-0.9579,-0.9579,-0.9474,-0.9343,-0.912,-0.8934,-0.8845,-0.8884,-0.913,-0.9305,-0.9305,-0.9476,-0.9602,-0.9602,-1.0033,-1.0809,-1.1929,-1.1972,-1.1972,-1.1972,-1.1972,-1.21,-1.2406,-1.2406,-1.2619,-1.3094,-1.3307,-1.3483,0.2711,0.2321,0.0,0.0,0.0,0.0,0.0,0.0,0.0,0.0,0.0,0.0,0.0,0.0,0.0,-0.162,-0.1597,-0.1617,-0.1617,-0.1617,-0.1617,-0.1617,-0.1617,-0.1617,-0.1617,-0.1617,-0.1617,-0.1718,-0.1718,-0.1768,-0.1818,-0.207,-0.2323,-0.2474,-0.3377,-0.4029,-0.4483,-0.5386,-0.5987,-0.6339,-0.6842,-0.7394,-0.7988,-0.7988,-0.7988,-0.7988,-0.7988,-0.7988,-0.7988,-0.7988,-0.7988,-0.7988,-0.7793,-0.7693,-0.7693,-0.7693,-0.7693,-0.7743,-0.7942,-0.7988,-0.7988,-0.7988,-0.7988,-0.7988,-0.7988,-0.8038,-0.8137,-0.8137,-0.8187,-0.8233,-0.8233,-0.8233,-0.8336,-0.8829,-0.8928,-0.8928,-0.9023,-0.9027,-0.9076,-0.9282,-0.9331,-0.9385,-0.9579,-0.9579,-0.9579,-0.9579,-0.9579,-0.9437,-0.9137,-0.8934,-0.8755,-0.8717,-0.874,-0.8828,-0.8828,-0.8999,-0.9126,-0.9126,-0.9432,-0.9951,-1.0766,-1.0939,-1.1025,-1.1025,-1.1025,-1.1154,-1.1413,-1.1542,-1.1886,-1.2314,-1.2577,-1.2924,0.2821,0.0,0.0,0.0,0.0,0.0,0.0,0.0,0.0,0.0,0.0,0.0,0.0,-0.1577,0.0,-0.159,-0.1605,-0.1617,-0.1617,-0.1617,-0.1617,-0.1617,-0.1617,-0.1617,-0.1617,-0.1617,-0.1617,-0.1617,-0.1617,-0.1617,-0.1617,-0.1768,-0.187,-0.2022,-0.2624,-0.3127,-0.353,-0.4381,-0.4985,-0.5386,-0.5889,-0.6489,-0.7039,-0.7487,-0.769,-0.769,-0.769,-0.769,-0.769,-0.769,-0.764,-0.749,-0.7344,-0.7194,-0.7141,-0.7141,-0.7194,-0.7294,-0.749,-0.759,-0.769,-0.769,-0.769,-0.769,-0.769,-0.769,-0.769,-0.7793,-0.7842,-0.7842,-0.7992,-0.7988,-0.8088,-0.8531,-0.8627,-0.8676,-0.8775,-0.8825,-0.8825,-0.9031,-0.9031,-0.908,-0.9278,-0.9278,-0.9327,-0.943,-0.9469,-0.9441,-0.9226,-0.9043,-0.8893,-0.8787,-0.871,-0.867,-0.867,-0.8737,-0.8784,-0.8784,-0.8911,-0.9218,-0.9602,-0.9907,-1.0077,-1.0077,-1.0077,-1.0207,-1.0424,-1.0549,-1.0895,-1.1456,-1.1714,-1.2149,0.0,0.0,0.0,0.0,0.0,0.0,0.0,0.0,0.0,0.0,0.0,0.0,0.0,-0.1617,-0.1617,-0.1617,-0.1617,-0.1617,-0.1617,-0.1617,-0.1617,-0.1617,-0.1617,-0.1617,-0.1617,-0.1617,-0.1617,-0.1617,-0.1617,-0.1617,-0.1617,-0.1617,-0.1718,-0.1971,-0.1971,-0.2223,-0.2725,-0.3277,-0.3778,-0.4279,-0.4784,-0.5188,-0.5434,-0.6537,-0.7039,-0.7039,-0.7039,-0.7039,-0.7039,-0.7039,-0.6889,-0.6692,-0.6645,-0.6492,-0.6287,-0.6287,-0.6439,-0.6645,-0.6692,-0.6842,-0.7039,-0.7039,-0.7039,-0.7039,-0.7039,-0.7089,-0.7138,-0.7394,-0.7497,-0.7596,-0.7839,-0.7889,-0.7988,-0.8283,-0.8333,-0.8432,-0.8676,-0.8726,-0.8726,-0.8775,-0.8775,-0.8775,-0.8775,-0.8825,-0.8878,-0.9133,-0.9291,-0.9324,-0.9308,-0.9171,-0.9066,-0.9049,-0.89,-0.8799,-0.8844,-0.869,-0.8637,-0.8637,-0.862,-0.8612,-0.8612,-0.8999,-0.9218,-0.9218,-0.9218,-0.9349,-0.9515,-0.9515,-0.9859,-1.0506,-1.0766,-1.1241,0.0,0.0,0.0,0.0,0.0,0.0,0.0,0.0,0.0,0.0,0.0,0.0,0.0,-0.1617,-0.1617,-0.1617,-0.1617,-0.1617,-0.1617,-0.1617,-0.1617,-0.1617,-0.1617,-0.1617,-0.1617,-0.1617,-0.1617,-0.1617,-0.1617,-0.1617,-0.1617,-0.1617,-0.1617,-0.1667,-0.187,-0.2071,-0.2172,-0.2725,-0.3026,-0.3127,-0.3679,-0.3981,-0.4079,-0.5384,-0.5937,-0.5937,-0.5937,-0.5937,-0.5937,-0.5937,-0.5887,-0.5837,-0.5641,-0.5491,-0.5441,-0.5441,-0.5491,-0.5591,-0.5789,-0.5887,-0.5937,-0.5937,-0.5937,-0.5937,-0.5937,-0.6089,-0.6292,-0.6342,-0.6645,-0.6995,-0.7045,-0.7191,-0.7437,-0.7693,-0.7942,-0.8088,-0.8137,-0.8187,-0.8233,-0.8432,-0.8482,-0.8528,-0.8775,-0.8825,-0.8825,-0.8874,-0.8894,-0.8875,-0.8798,-0.8752,-0.8728,-0.8773,-0.8769,-0.8795,-0.9035,-0.8869,-0.8767,-0.8767,-0.8641,-0.8612,-0.8612,-0.8696,-0.874,-0.874,-0.874,-0.8872,-0.9043,-0.9043,-0.9301,-0.982,-0.9859,-1.025,0.0,0.0,0.0,0.0,0.0,0.0,0.0,0.0,0.0,0.0,0.0,0.0,-0.1415,-0.1516,-0.1617,-0.1617,-0.1617,-0.1617,-0.1617,-0.1617,-0.1617,-0.1617,-0.1617,-0.1617,-0.1617,-0.1617,-0.1617,-0.1617,-0.1617,-0.1617,-0.1617,-0.1617,-0.1617,-0.1617,-0.1718,-0.1819,-0.1819,-0.2223,-0.2424,-0.2424,-0.2825,-0.3025,-0.3075,-0.428,-0.4834,-0.4834,-0.4834,-0.4834,-0.4834,-0.4834,-0.4734,-0.4632,-0.4483,-0.4334,-0.4236,-0.4236,-0.4336,-0.4433,-0.4582,-0.4734,-0.4834,-0.4834,-0.4834,-0.4834,-0.4834,-0.5035,-0.5286,-0.5388,-0.5739,-0.6042,-0.6189,-0.6439,-0.6642,-0.6795,-0.7344,-0.7842,-0.7992,-0.7988,-0.8038,-0.8184,-0.8187,-0.8237,-0.8382,-0.8531,-0.8627,-0.8627,-0.8726,-0.8795,-0.8713,-0.8702,-0.8717,-0.8723,-0.8691,-0.8744,-0.9033,-0.8866,-0.8726,-0.8647,-0.8604,-0.852,-0.8432,-0.8428,-0.8472,-0.8612,-0.8612,-0.8652,-0.874,-0.874,-0.8911,-0.9257,-0.9257,-0.9559,0.0,0.0,0.0,0.0,0.0,0.0,0.0,0.0,0.0,0.0,0.0,0.0,-0.1111,-0.1314,-0.1465,-0.1465,-0.1465,-0.1465,-0.1465,-0.1465,-0.1465,-0.1465,-0.1516,-0.1516,-0.1516,-0.1566,-0.1617,-0.1617,-0.1617,-0.1617,-0.1617,-0.1617,-0.1617,-0.1617,-0.1617,-0.1617,-0.1617,-0.1819,-0.1921,-0.1921,-0.217,-0.227,-0.227,-0.3177,-0.363,-0.3731,-0.3731,-0.3731,-0.3731,-0.3731,-0.3578,-0.3377,-0.3377,-0.3278,-0.3079,-0.3079,-0.3177,-0.3377,-0.3377,-0.3528,-0.3731,-0.3731,-0.3731,-0.3731,-0.3731,-0.393,-0.4178,-0.4381,-0.4686,-0.4987,-0.5186,-0.5486,-0.5739,-0.5792,-0.6542,-0.7344,-0.7789,-0.7889,-0.7939,-0.7988,-0.7988,-0.7988,-0.7988,-0.8187,-0.8333,-0.8333,-0.8531,-0.8676,-0.8676,-0.8676,-0.8676,-0.8726,-0.8612,-0.868,-0.8918,-0.8807,-0.8652,-0.8517,-0.8455,-0.8354,-0.8207,-0.8172,-0.8248,-0.852,-0.8568,-0.8612,-0.8612,-0.8612,-0.8696,-0.8872,-0.8872,-0.9087,0.0,0.0,0.0,0.0,0.0,0.0,0.0,0.0,0.0,0.0,0.0,-0.0842,-0.0856,-0.0859,-0.0909,-0.0909,-0.0909,-0.0909,-0.0909,-0.0909,-0.0909,-0.0909,-0.1111,-0.1263,-0.1263,-0.1465,-0.1617,-0.1617,-0.1617,-0.1617,-0.1617,-0.1617,-0.1617,-0.1617,-0.1617,-0.1617,-0.1617,-0.1617,-0.1667,-0.1667,-0.1667,-0.1718,-0.1718,-0.1869,-0.217,-0.2623,-0.2623,-0.2623,-0.2623,-0.2623,-0.2573,-0.2573,-0.2573,-0.2521,-0.2522,-0.2522,-0.2521,-0.2573,-0.2573,-0.2573,-0.2623,-0.2623,-0.2623,-0.2623,-0.2623,-0.2825,-0.3026,-0.3077,-0.3428,-0.3828,-0.388,-0.423,-0.4682,-0.4885,-0.5436,-0.6137,-0.7086,-0.7494,-0.7743,-0.7939,-0.7988,-0.7988,-0.7988,-0.8038,-0.8038,-0.8038,-0.8088,-0.8088,-0.8088,-0.8088,-0.8187,-0.8432,-0.8414,-0.8548,-0.8791,-0.8695,-0.8597,-0.8575,-0.8309,-0.814,-0.8117,-0.8019,-0.8028,-0.8245,-0.8476,-0.8612,-0.8612,-0.8612,-0.8612,-0.8656,-0.8656,-0.8784,0.0,0.0,0.0,0.0,0.0,0.0,0.0,0.0,0.0,0.0,0.0,-0.024,-0.0544,-0.0696,-0.0798,-0.0807,-0.0808,-0.0808,-0.0808,-0.0808,-0.0808,-0.0808,-0.0909,-0.096,-0.096,-0.1061,-0.1162,-0.1162,-0.1313,-0.1364,-0.1364,-0.1516,-0.1617,-0.1617,-0.1617,-0.1617,-0.1617,-0.1617,-0.1617,-0.1617,-0.1617,-0.1617,-0.1617,-0.1617,-0.1717,-0.1969,-0.1969,-0.1969,-0.1969,-0.1969,-0.1969,-0.1969,-0.1969,-0.1969,-0.1969,-0.1969,-0.1969,-0.1969,-0.1969,-0.1969,-0.1969,-0.1969,-0.1969,-0.1969,-0.1969,-0.2121,-0.2374,-0.2374,-0.2624,-0.2924,-0.2924,-0.3226,-0.3528,-0.3629,-0.4182,-0.4885,-0.5482,-0.6437,-0.7244,-0.749,-0.7693,-0.7793,-0.7793,-0.7892,-0.7988,-0.7988,-0.7988,-0.7988,-0.7988,-0.7988,-0.8038,-0.8187,-0.8187,-0.8283,-0.8528,-0.8516,-0.8443,-0.8356,-0.8182,-0.8015,-0.7874,-0.7763,-0.7768,-0.8028,-0.8248,-0.8428,-0.8612,-0.8612,-0.8612,-0.8612,-0.8612,-0.8652,0.0,0.0,0.0,0.0,0.0,0.0,0.0,0.0,0.0,0.0,0.0,0.0418,-0.0048,-0.0389,-0.0589,-0.06,-0.0602,-0.0603,-0.0606,-0.0606,-0.0606,-0.0606,-0.0657,-0.0707,-0.0707,-0.0758,-0.0808,-0.0808,-0.101,-0.1111,-0.1111,-0.1364,-0.1516,-0.1516,-0.1566,-0.1617,-0.1617,-0.1617,-0.1617,-0.1617,-0.1617,-0.1617,-0.1617,-0.1617,-0.1617,-0.1617,-0.1617,-0.1617,-0.1617,-0.1617,-0.1617,-0.1617,-0.1617,-0.1617,-0.1617,-0.1617,-0.1617,-0.1617,-0.1617,-0.1617,-0.1617,-0.1617,-0.1617,-0.1617,-0.1617,-0.1718,-0.1921,-0.1921,-0.202,-0.2221,-0.2221,-0.2372,-0.2575,-0.2575,-0.3177,-0.3882,-0.4481,-0.5586,-0.6592,-0.6839,-0.7092,-0.7344,-0.7494,-0.7743,-0.7942,-0.7988,-0.7988,-0.7988,-0.7988,-0.7988,-0.7988,-0.7988,-0.7988,-0.8088,-0.8283,-0.8287,-0.822,-0.8118,-0.7963,-0.7805,-0.7647,-0.7496,-0.7503,-0.7812,-0.794,-0.816,-0.8432,-0.8432,-0.8432,-0.8432,-0.8432,-0.8432,0.0,0.0,0.0,0.0,0.0,0.0,0.0,0.0,0.0,0.0,0.1572,0.0995,0.0693,0.0283,-0.0048,-0.0049,-0.0049,-0.0049,-0.005,-0.0051,-0.0051,-0.0051,-0.0253,-0.0404,-0.0404,-0.0657,-0.0808,-0.0808,-0.0808,-0.0808,-0.0808,-0.1061,-0.1212,-0.1212,-0.1465,-0.1617,-0.1617,-0.1617,-0.1617,-0.1617,-0.1617,-0.1617,-0.1617,-0.1617,-0.1617,-0.1617,-0.1617,-0.1617,-0.1617,-0.1617,-0.1617,-0.1617,-0.1617,-0.1617,-0.1617,-0.1617,-0.1617,-0.1617,-0.1617,-0.1617,-0.1617,-0.1617,-0.1617,-0.1617,-0.1617,-0.1617,-0.1617,-0.1617,-0.1617,-0.1667,-0.1667,-0.1819,-0.2021,-0.2021,-0.2474,-0.3278,-0.4839,-0.5436,-0.5737,-0.5992,-0.6289,-0.6637,-0.7138,-0.7444,-0.7693,-0.7942,-0.7988,-0.7988,-0.7988,-0.7988,-0.7988,-0.7988,-0.7988,-0.7988,-0.8041,-0.8038,-0.7974,-0.7821,-0.7678,-0.7576,-0.7422,-0.7224,-0.7234,-0.7507,-0.7551,-0.768,-0.7944,-0.7944,-0.7944,-0.7944,-0.7944,-0.7944,0.0,0.0,0.0,0.0,0.0,0.0,0.0,0.0,0.0,0.0,0.2197,0.1814,0.1491,0.0784,0.0235,0.024,0.0096,0.0,0.0,0.0,0.0,0.0,-0.01,-0.0152,-0.0152,-0.0253,-0.0303,-0.0303,-0.0455,-0.0556,-0.0556,-0.0808,-0.096,-0.096,-0.1212,-0.1415,-0.1617,-0.1617,-0.1617,-0.1617,-0.1617,-0.1617,-0.1617,-0.1617,-0.1617,-0.1617,-0.1617,-0.1617,-0.1617,-0.1617,-0.1617,-0.1617,-0.1617,-0.1617,-0.1617,-0.1617,-0.1617,-0.1617,-0.1617,-0.1617,-0.1617,-0.1617,-0.1617,-0.1617,-0.1617,-0.1617,-0.1617,-0.1617,-0.1617,-0.1617,-0.1617,-0.1667,-0.1768,-0.1971,-0.2122,-0.2474,-0.3228,-0.388,-0.4431,-0.4883,-0.5331,-0.5784,-0.6339,-0.6792,-0.7244,-0.7693,-0.7743,-0.7793,-0.7992,-0.7988,-0.7988,-0.7988,-0.7988,-0.7988,-0.7988,-0.7988,-0.7924,-0.7821,-0.7678,-0.7533,-0.7426,-0.7221,-0.7143,-0.7231,-0.7231,-0.7455,-0.79,-0.79,-0.79,-0.79,-0.79,-0.79,0.0,0.0,0.0,0.0,0.0,0.0,0.0,0.0,0.0,0.0,0.2965,0.2749,0.2301,0.1669,0.1105,0.0706,0.0425,0.0189,0.0143,0.0048,0.0,0.0,0.0,0.0,0.0,0.0,0.0,0.0,-0.0149,0.0,-0.0248,-0.0496,-0.0694,-0.0793,-0.0997,-0.1151,-0.1351,-0.1309,-0.1314,-0.1314,-0.1415,-0.1465,-0.1465,-0.1566,-0.1617,-0.1617,-0.1617,-0.1617,-0.1617,-0.1617,-0.1617,-0.1617,-0.1617,-0.1617,-0.1617,-0.1617,-0.1617,-0.1617,-0.1617,-0.1617,-0.1617,-0.1617,-0.1617,-0.1617,-0.1617,-0.1617,-0.1617,-0.1617,-0.1617,-0.1617,-0.1617,-0.1617,-0.1667,-0.1819,-0.1869,-0.192,-0.207,-0.2672,-0.3377,-0.388,-0.4379,-0.488,-0.5489,-0.6039,-0.6542,-0.6995,-0.7194,-0.7444,-0.769,-0.7789,-0.7892,-0.7988,-0.7988,-0.7988,-0.7988,-0.7941,-0.7899,-0.775,-0.7604,-0.7455,-0.7299,-0.7149,-0.7095,-0.7095,-0.7095,-0.7275,-0.7632,-0.7632,-0.7632,-0.7632,-0.7632,-0.7676,0.0,0.0,0.0,0.0,0.0,0.0,0.0,0.0,0.0,0.0,0.3821,0.3639,0.3118,0.2998,0.2567,0.138,0.0924,0.0651,0.0427,0.019,0.0,0.0,0.0,0.0,0.0,0.0,0.0,0.0,0.0,0.0,0.0,-0.0238,-0.0524,-0.0763,-0.0777,-0.0785,-0.0785,-0.08,-0.0808,-0.0808,-0.1061,-0.1212,-0.1212,-0.1465,-0.1566,-0.1566,-0.1566,-0.1566,-0.1566,-0.1617,-0.1617,-0.1617,-0.1617,-0.1617,-0.1617,-0.1617,-0.1617,-0.1617,-0.1617,-0.1617,-0.1617,-0.1617,-0.1617,-0.1617,-0.1617,-0.1617,-0.1617,-0.1617,-0.1617,-0.1617,-0.1617,-0.1617,-0.1617,-0.1617,-0.1617,-0.1617,-0.1617,-0.2019,-0.2522,-0.3079,-0.3379,-0.3828,-0.4634,-0.5186,-0.5636,-0.5942,-0.6442,-0.6842,-0.7138,-0.7391,-0.7696,-0.7939,-0.7985,-0.7982,-0.7982,-0.7892,-0.7743,-0.76,-0.7455,-0.7302,-0.7102,-0.7095,-0.7095,-0.7095,-0.7095,-0.7095,-0.7095,-0.7095,-0.7095,-0.7095,-0.7095,-0.7231,0.3166,0.0,0.0,0.0,0.0,0.0,0.0,0.0,0.0,0.0,0.4059,0.4093,0.3837,0.3876,0.3658,0.2905,0.188,0.1133,0.0912,0.0555,0.028,0.028,0.0095,0.0,0.0,0.0,0.0,0.0,0.0,0.0,0.0,-0.0048,-0.0238,-0.0524,-0.0527,-0.0625,-0.0817,-0.0784,-0.0792,-0.0792,-0.0853,-0.0909,-0.0909,-0.101,-0.101,-0.101,-0.101,-0.1111,-0.1314,-0.1516,-0.1617,-0.1617,-0.1617,-0.1617,-0.1617,-0.1617,-0.1617,-0.1617,-0.1617,-0.1617,-0.1617,-0.1617,-0.1617,-0.1617,-0.1617,-0.1617,-0.1617,-0.1617,-0.1617,-0.1617,-0.1617,-0.1617,-0.1617,-0.1617,-0.1617,-0.1617,-0.1617,-0.1718,-0.1919,-0.2273,-0.2574,-0.2924,-0.3525,-0.4081,-0.4583,-0.5085,-0.5586,-0.6039,-0.6292,-0.6742,-0.7144,-0.7388,-0.7497,-0.7631,-0.7826,-0.7743,-0.7594,-0.7444,-0.7439,-0.7302,-0.7102,-0.7095,-0.7095,-0.7095,-0.7095,-0.7095,-0.7095,-0.7095,-0.7095,-0.7095,-0.7095,-0.7143,0.0,0.0,0.0,0.0,0.0,0.0,0.0,0.3937,0.0,0.0,0.4293,0.4439,0.4279,0.4379,0.4317,0.3789,0.2861,0.2087,0.1609,0.1224,0.0913,0.0731,0.0461,0.0279,0.0186,0.0047,0.0,0.0,0.0,0.0,0.0,0.0,-0.0093,-0.0233,-0.0234,-0.033,-0.0471,-0.048,-0.0485,-0.0485,-0.0589,-0.0641,-0.0641,-0.074,-0.0793,-0.0799,-0.0799,-0.0903,-0.1061,-0.1212,-0.1415,-0.1617,-0.1617,-0.1617,-0.1617,-0.1617,-0.1617,-0.1617,-0.1617,-0.1617,-0.1617,-0.1617,-0.1617,-0.1617,-0.1617,-0.1617,-0.1617,-0.1617,-0.1617,-0.1617,-0.1617,-0.1617,-0.1617,-0.1617,-0.1617,-0.1617,-0.1617,-0.1617,-0.1667,-0.1971,-0.2122,-0.2372,-0.2772,-0.3226,-0.358,-0.393,-0.4533,-0.5035,-0.5286,-0.5887,-0.6371,-0.6616,-0.6939,-0.716,-0.7244,-0.7258,-0.7188,-0.7099,-0.7131,-0.7058,-0.6833,-0.7007,-0.7051,-0.6966,-0.7051,-0.7095,-0.7095,-0.7095,-0.7095,-0.7095,-0.7095,-0.7095,0.3457,0.346,0.0,0.0,0.3746,0.0,0.3812,0.3953,0.4107,0.0,0.0,0.4593,0.4491,0.4604,0.4569,0.4214,0.3786,0.3263,0.2436,0.2056,0.17,0.13,0.0987,0.0718,0.0493,0.0224,0.0045,0.0,0.0,0.0,0.0,0.0,0.0,0.0,0.0,0.0,0.0,0.0,0.0,0.0,-0.0238,-0.0334,-0.0381,-0.062,-0.0722,-0.0734,-0.0736,-0.0744,-0.0755,-0.0757,-0.1061,-0.1516,-0.1516,-0.1516,-0.1516,-0.1516,-0.1516,-0.1516,-0.1566,-0.1566,-0.1566,-0.1566,-0.1617,-0.1617,-0.1617,-0.1617,-0.1617,-0.1617,-0.1617,-0.1617,-0.1617,-0.1617,-0.1617,-0.1617,-0.1617,-0.1617,-0.1617,-0.1617,-0.1667,-0.1921,-0.1971,-0.2021,-0.227,-0.2523,-0.2725,-0.2725,-0.3379,-0.393,-0.4178,-0.4924,-0.5483,-0.5686,-0.6187,-0.6466,-0.6352,-0.6461,-0.6569,-0.6569,-0.6639,-0.6567,-0.634,-0.6741,-0.6877,-0.6659,-0.6922,-0.7051,-0.7051,-0.7095,-0.7095,-0.7095,-0.7095,-0.7095,0.4005,0.3922,0.3838,0.4045,0.0,0.0,0.3812,0.3819,0.3862,0.0,0.0,0.4226,0.4314,0.4464,0.4501,0.445,0.4327,0.4034,0.3282,0.2667,0.2288,0.2235,0.1658,0.1166,0.0987,0.0583,0.0224,0.0,0.0,0.0,0.0,0.0,0.0,0.0,0.0,0.0,0.0,0.0,0.0,0.0,-0.0047,-0.0095,-0.0095,-0.0143,-0.0143,-0.0144,-0.0146,-0.0295,-0.0494,-0.0502,-0.0657,-0.096,-0.096,-0.096,-0.096,-0.096,-0.096,-0.101,-0.1212,-0.1263,-0.1314,-0.1516,-0.1617,-0.1617,-0.1617,-0.1617,-0.1617,-0.1617,-0.1617,-0.1617,-0.1617,-0.1617,-0.1617,-0.1617,-0.1617,-0.1617,-0.1617,-0.1617,-0.1617,-0.1667,-0.1667,-0.1718,-0.1768,-0.197,-0.2172,-0.2172,-0.2675,-0.3078,-0.3127,-0.378,-0.4326,-0.46,-0.4946,-0.5266,-0.5432,-0.5559,-0.5673,-0.5673,-0.5824,-0.5899,-0.5852,-0.5941,-0.5944,-0.5899,-0.634,-0.6653,-0.6836,-0.701,-0.7095,-0.7095,-0.7095,-0.7095,0.4515,0.4372,0.4222,0.4417,0.0,0.0,0.0,0.3797,0.3715,0.3801,0.3882,0.3974,0.0,0.0,0.4251,0.4385,0.4316,0.4196,0.397,0.3562,0.3178,0.2943,0.2473,0.1997,0.152,0.1086,0.0652,0.0174,0.0132,0.0088,0.0,0.0,0.0,0.0,0.0,0.0,0.0,0.0,0.0,0.0,0.0,0.0,0.0,0.0,0.0,0.0,0.0,-0.0096,-0.0194,-0.0198,-0.0299,-0.0448,-0.0704,-0.0808,-0.0808,-0.0808,-0.0808,-0.0808,-0.096,-0.101,-0.101,-0.1162,-0.1212,-0.1212,-0.1212,-0.1212,-0.1212,-0.1212,-0.1212,-0.1212,-0.1364,-0.1415,-0.1415,-0.1566,-0.1617,-0.1617,-0.1617,-0.1617,-0.1617,-0.1617,-0.1617,-0.1617,-0.1617,-0.1718,-0.1819,-0.1819,-0.2122,-0.2424,-0.2424,-0.2978,-0.3369,-0.343,-0.3854,-0.4139,-0.4188,-0.4459,-0.4654,-0.4654,-0.5008,-0.5139,-0.501,-0.5233,-0.5411,-0.5547,-0.5769,-0.608,-0.6438,-0.6571,-0.6789,-0.7095,-0.7095,-0.7095,0.0,0.0,0.0,0.0,0.0,0.4115,0.0,0.0,0.0,0.3786,0.0,0.0,0.0,0.0,0.0,0.0,0.0,0.0,0.0,0.422,0.0,0.3548,0.319,0.2735,0.2156,0.1617,0.1081,0.0502,0.0383,0.0259,0.0087,0.0,0.0,0.0,0.0,0.0,0.0,0.0,0.0,0.0,0.0,0.0,0.0,0.0,0.0,0.0,0.0,0.0,0.0,0.0,0.0,-0.0049,-0.0501,-0.0657,-0.0657,-0.0657,-0.0657,-0.0657,-0.0707,-0.0707,-0.0707,-0.0808,-0.0808,-0.0808,-0.0808,-0.0808,-0.0808,-0.0808,-0.0808,-0.0859,-0.1061,-0.1111,-0.1162,-0.1415,-0.1465,-0.1465,-0.1465,-0.1465,-0.1465,-0.1516,-0.1516,-0.1516,-0.1566,-0.1617,-0.1617,-0.1617,-0.1768,-0.1918,-0.1911,-0.2321,-0.2566,-0.2468,-0.2885,-0.3105,-0.3008,-0.3405,-0.3626,-0.3626,-0.4071,-0.4249,-0.403,-0.4387,-0.4743,-0.506,-0.5104,-0.5369,-0.5813,-0.5858,-0.6257,-0.6962,-0.701,-0.7054,0.0,0.0,0.0,0.0,0.4877,0.0,0.0,0.0,0.3774,0.3789,0.0,0.0,0.0,0.0,0.0,0.0,0.0,0.0,0.4113,0.4123,0.4129,0.4167,0.3632,0.3158,0.2882,0.1935,0.1235,0.1017,0.0696,0.0418,0.0261,0.0087,0.0,0.0,0.0,0.0,0.0,0.0,0.0,0.0,0.0,0.0,0.0,0.0,0.0,0.0,0.0,0.0,0.0,0.0,0.0,0.0,-0.005,-0.0101,-0.0101,-0.0101,-0.0101,-0.0101,-0.0354,-0.0455,-0.0505,-0.0707,-0.0808,-0.0808,-0.0808,-0.0808,-0.0808,-0.0808,-0.0808,-0.0808,-0.0859,-0.0859,-0.0859,-0.0859,-0.0909,-0.0909,-0.0909,-0.0909,-0.096,-0.1212,-0.1263,-0.1314,-0.1566,-0.1617,-0.1617,-0.1617,-0.1617,-0.1657,-0.1629,-0.1841,-0.1994,-0.1908,-0.2143,-0.234,-0.2334,-0.2512,-0.2648,-0.2648,-0.2957,-0.309,-0.3047,-0.309,-0.336,-0.381,-0.3985,-0.434,-0.4872,-0.5053,-0.5586,-0.6476,-0.6704,-0.6836,0.0,0.0,0.0,0.0,0.0,0.0,0.4608,0.0,0.3931,0.0,0.0,0.0,0.0,0.0,0.0,0.0,0.3876,0.0,0.0,0.0,0.4027,0.0,0.0,0.0,0.3156,0.2533,0.1962,0.1489,0.1059,0.0684,0.0328,0.0128,0.0,0.0,0.0,0.0,0.0,0.0,0.0,0.0,0.0,0.0,0.0,0.0,0.0,0.0,0.0,0.0,0.0,0.0,0.0,0.0,0.0,0.0,0.0,0.0,0.0,0.0,-0.0152,-0.0152,-0.0202,-0.0303,-0.0354,-0.0354,-0.0354,-0.0354,-0.0354,-0.0354,-0.0354,-0.0354,-0.0505,-0.0556,-0.0606,-0.0758,-0.0808,-0.0808,-0.0808,-0.0808,-0.0808,-0.096,-0.096,-0.101,-0.1111,-0.1415,-0.1617,-0.1617,-0.1602,-0.1585,-0.1622,-0.1625,-0.1636,-0.1621,-0.1681,-0.1749,-0.1749,-0.1974,-0.2109,-0.2109,-0.2332,-0.2511,-0.2511,-0.2511,-0.2647,-0.2962,-0.305,-0.3315,-0.3849,-0.3896,-0.4295,-0.4961,-0.5677,-0.6127,0.6641,0.0,0.0,0.0,0.0,0.0,0.0,0.0,0.0,0.0,0.0,0.0,0.0,0.0,0.4089,0.3999,0.0,0.3851,0.0,0.0,0.0,0.0,0.0,0.0,0.0,0.2998,0.2595,0.1995,0.1478,0.1031,0.0588,0.0249,0.0086,0.0087,0.0044,0.0,0.0,0.0,0.0,0.0,0.0,0.0,0.0,0.0,0.0,0.0,0.0,0.0,0.0,0.0,0.0,0.0,0.0,0.0,0.0,0.0,0.0,0.0,0.0,0.0,0.0,0.0,0.0,0.0,0.0,0.0,0.0,0.0,0.0,-0.0051,-0.0253,-0.0303,-0.0354,-0.0556,-0.0556,-0.0556,-0.0556,-0.0556,-0.0606,-0.0657,-0.0707,-0.0707,-0.0808,-0.1111,-0.1364,-0.1364,-0.1442,-0.147,-0.1462,-0.1466,-0.1478,-0.1469,-0.1448,-0.1391,-0.1391,-0.157,-0.1705,-0.1705,-0.1885,-0.1974,-0.1974,-0.1974,-0.2064,-0.2289,-0.2289,-0.2512,-0.2914,-0.2914,-0.3136,-0.3537,-0.4612,-0.5324,0.0,0.0,0.0,0.6064,0.0,0.0,0.0,0.0,0.4516,0.0,0.0,0.0,0.0,0.4445,0.4345,0.4224,0.409,0.0,0.0,0.0,0.0,0.0,0.0,0.0,0.0,0.3094,0.2821,0.0,0.189,0.1381,0.1173,0.0604,0.0291,0.0304,0.0089,0.0,0.0,0.0,0.0,0.0,0.0,0.0,0.0,0.0,0.0,0.0,0.0,0.0,0.0,0.0,0.0,0.0,0.0,0.0,0.0,0.0,0.0,0.0,0.0,0.0,0.0,0.0,0.0,0.0,0.0,0.0,0.0,0.0,0.0,0.0,0.0,0.0,0.0,0.0,-0.0051,-0.0051,-0.0051,-0.0051,-0.0101,-0.0354,-0.0404,-0.0505,-0.0758,-0.0808,-0.0808,-0.0808,-0.1044,-0.117,-0.11,-0.136,-0.147,-0.1395,-0.1391,-0.1391,-0.1391,-0.1391,-0.1436,-0.1436,-0.1436,-0.1436,-0.1436,-0.1436,-0.157,-0.1839,-0.1839,-0.1974,-0.2243,-0.2243,-0.2334,-0.2558,-0.3764,-0.4476,0.7115,0.6888,0.6576,0.6373,0.5986,0.5589,0.0,0.0,0.0,0.0,0.0,0.0,0.0,0.4871,0.4637,0.4375,0.4215,0.4099,0.0,0.0,0.0,0.0,0.0,0.0,0.0,0.0,0.0,0.2819,0.2333,0.0,0.1491,0.108,0.0731,0.051,0.0305,0.0133,0.0,0.0,0.0,0.0,0.0,0.0,0.0,0.0,0.0,0.0,0.0,0.009,0.0269,0.0269,0.0359,0.045,0.0462,0.0613,0.0767,0.0398,0.0253,0.0303,0.0455,0.0505,0.0505,0.0303,0.0253,0.0253,0.0051,0.0,0.0,0.0,0.0,0.0,0.0,0.0,0.0,0.0,0.0,0.0,0.0,0.0,-0.0051,-0.0101,-0.0152,-0.0152,-0.0253,-0.0253,-0.0404,-0.0758,-0.0885,-0.0913,-0.0907,-0.0926,-0.0949,-0.0942,-0.0942,-0.0942,-0.0942,-0.1121,-0.1211,-0.1211,-0.1345,-0.1391,-0.1391,-0.1391,-0.1436,-0.1525,-0.1525,-0.157,-0.166,-0.166,-0.1794,-0.2064,-0.2466,-0.3047,0.7424,0.72,0.6888,0.6685,0.6298,0.5901,0.5654,0.5369,0.5226,0.0,0.0,0.0,0.0,0.5216,0.496,0.4639,0.4459,0.4295,0.0,0.4024,0.0,0.0,0.0,0.0,0.0,0.0,0.3292,0.3024,0.2694,0.0,0.0,0.1683,0.1392,0.1092,0.0817,0.0571,0.0404,0.0314,0.0269,0.0269,0.018,0.0135,0.0135,0.0135,0.0135,0.0135,0.0314,0.0494,0.0673,0.0807,0.0987,0.1123,0.1192,0.1358,0.1531,0.089,0.0753,0.0858,0.1009,0.106,0.106,0.0858,0.0757,0.0657,0.0455,0.0303,0.0152,0.0152,0.0051,0.0,0.0,0.0,0.0,0.0,0.0,0.0,0.0,0.0,0.0,0.0,0.0,0.0,0.0,0.0,-0.0101,-0.0455,-0.0587,-0.0668,-0.0668,-0.069,-0.0718,-0.0718,-0.0718,-0.0718,-0.0718,-0.0852,-0.0942,-0.0942,-0.1076,-0.1166,-0.1166,-0.1166,-0.1211,-0.13,-0.13,-0.1345,-0.1391,-0.1391,-0.148,-0.166,-0.166,-0.1973]}]]